<?xml version='1.0' encoding='UTF-8'?><gpx version="1.1" creator="JPX - https://github.com/jenetics/jpx" xmlns="http://www.topografix.com/GPX/1/1"><trk><trkseg><trkpt lat="50.986438801685146" lon="4.813090298119309"><ele>10.0</ele><time>2026-04-08T15:12:04.99Z</time></trkpt><trkpt lat="50.986356500103696" lon="4.812993562314135"><ele>10.0</ele><time>2026-04-08T15:13:43Z</time></trkpt><trkpt lat="50.98628931586178" lon="4.81291713638171"><ele>10.0</ele><time>2026-04-08T15:13:44Z</time></trkpt><trkpt lat="50.98620298098522" lon="4.812840771512123"><ele>10.0</ele><time>2026-04-08T15:13:45Z</time></trkpt><trkpt lat="50.9861268241144" lon="4.812794496530833"><ele>10.0</ele><time>2026-04-08T15:13:46Z</time></trkpt><trkpt lat="50.98602100054388" lon="4.812756192428328"><ele>10.0</ele><time>2026-04-08T15:13:47Z</time></trkpt><trkpt lat="50.98590592973123" lon="4.812744058012062"><ele>10.0</ele><time>2026-04-08T15:13:48Z</time></trkpt><trkpt lat="50.985804693504726" lon="4.812759729579571"><ele>10.0</ele><time>2026-04-08T15:13:49Z</time></trkpt><trkpt lat="50.98570805000004" lon="4.812777287175621"><ele>10.0</ele><time>2026-04-08T15:13:50Z</time></trkpt><trkpt lat="50.98563122480326" lon="4.81279474669115"><ele>10.0</ele><time>2026-04-08T15:13:51Z</time></trkpt><trkpt lat="50.98549610078737" lon="4.812813316567755"><ele>10.25</ele><time>2026-04-08T15:13:52Z</time></trkpt><trkpt lat="50.98537416939447" lon="4.812817597332956"><ele>10.5</ele><time>2026-04-08T15:13:53Z</time></trkpt><trkpt lat="50.98525352065485" lon="4.812828490174744"><ele>10.75</ele><time>2026-04-08T15:13:54Z</time></trkpt><trkpt lat="50.985142815413354" lon="4.812837926156698"><ele>11.0</ele><time>2026-04-08T15:13:55Z</time></trkpt><trkpt lat="50.98502583623455" lon="4.812850687842072"><ele>11.0</ele><time>2026-04-08T15:13:56Z</time></trkpt><trkpt lat="50.98490834236834" lon="4.81287132143337"><ele>11.0</ele><time>2026-04-08T15:13:57Z</time></trkpt><trkpt lat="50.984783509869345" lon="4.812859434324602"><ele>11.0</ele><time>2026-04-08T15:13:58Z</time></trkpt><trkpt lat="50.9846616274578" lon="4.81287115798525"><ele>11.0</ele><time>2026-04-08T15:13:59Z</time></trkpt><trkpt lat="50.98454163420067" lon="4.812882785193759"><ele>11.0</ele><time>2026-04-08T15:14:00Z</time></trkpt><trkpt lat="50.984418564994755" lon="4.812894875569881"><ele>11.0</ele><time>2026-04-08T15:14:01Z</time></trkpt><trkpt lat="50.984296128576986" lon="4.812982639196616"><ele>11.0</ele><time>2026-04-08T15:14:02.001Z</time></trkpt><trkpt lat="50.98416588109925" lon="4.812983191474996"><ele>11.0</ele><time>2026-04-08T15:14:03.001Z</time></trkpt><trkpt lat="50.98403929882314" lon="4.812971820757478"><ele>10.833333333333332</ele><time>2026-04-08T15:14:04.001Z</time></trkpt><trkpt lat="50.983933691120605" lon="4.812956699689854"><ele>10.666666666666666</ele><time>2026-04-08T15:14:05.001Z</time></trkpt><trkpt lat="50.98384350289111" lon="4.812962394628906"><ele>10.5</ele><time>2026-04-08T15:14:06.001Z</time></trkpt><trkpt lat="50.98376309857005" lon="4.812966977377936"><ele>10.333333333333334</ele><time>2026-04-08T15:14:07.001Z</time></trkpt><trkpt lat="50.983696570008014" lon="4.812964124691918"><ele>10.166666666666668</ele><time>2026-04-08T15:14:08.001Z</time></trkpt><trkpt lat="50.983614321127554" lon="4.812967398089714"><ele>10.0</ele><time>2026-04-08T15:14:10.001Z</time></trkpt><trkpt lat="50.983571932080906" lon="4.812850951164476"><ele>10.0</ele><time>2026-04-08T15:14:11.001Z</time></trkpt><trkpt lat="50.98353221920821" lon="4.812729882280871"><ele>10.0</ele><time>2026-04-08T15:14:12.001Z</time></trkpt><trkpt lat="50.98350041133575" lon="4.812587330101283"><ele>10.0</ele><time>2026-04-08T15:14:13.001Z</time></trkpt><trkpt lat="50.98347416971415" lon="4.812411256570518"><ele>10.0</ele><time>2026-04-08T15:14:14.001Z</time></trkpt><trkpt lat="50.98344561685952" lon="4.812217408672566"><ele>10.0</ele><time>2026-04-08T15:14:15.001Z</time></trkpt><trkpt lat="50.98341409468136" lon="4.812000072736148"><ele>10.25</ele><time>2026-04-08T15:14:16.001Z</time></trkpt><trkpt lat="50.98337430655416" lon="4.811785679754932"><ele>10.5</ele><time>2026-04-08T15:14:17.001Z</time></trkpt><trkpt lat="50.98333368104505" lon="4.811578392624399"><ele>10.75</ele><time>2026-04-08T15:14:18.001Z</time></trkpt><trkpt lat="50.983300214094314" lon="4.811397279931372"><ele>11.0</ele><time>2026-04-08T15:14:19.001Z</time></trkpt><trkpt lat="50.98327563172982" lon="4.811239299763213"><ele>11.0</ele><time>2026-04-08T15:14:20.001Z</time></trkpt><trkpt lat="50.983256073682526" lon="4.811086622591315"><ele>11.0</ele><time>2026-04-08T15:14:21.001Z</time></trkpt><trkpt lat="50.98324337471325" lon="4.8109781748586755"><ele>11.0</ele><time>2026-04-08T15:14:22.001Z</time></trkpt><trkpt lat="50.98322464763047" lon="4.810784141140012"><ele>11.0</ele><time>2026-04-08T15:14:24.001Z</time></trkpt><trkpt lat="50.98315717638524" lon="4.810675354607625"><ele>11.0</ele><time>2026-04-08T15:14:25.001Z</time></trkpt><trkpt lat="50.98305820429146" lon="4.810633325052854"><ele>11.0</ele><time>2026-04-08T15:14:26.001Z</time></trkpt><trkpt lat="50.982945683858205" lon="4.810649039850712"><ele>11.0</ele><time>2026-04-08T15:14:27.001Z</time></trkpt><trkpt lat="50.982822642132426" lon="4.810700160326314"><ele>11.0</ele><time>2026-04-08T15:14:28.001Z</time></trkpt><trkpt lat="50.98268346321591" lon="4.810736554896335"><ele>11.0</ele><time>2026-04-08T15:14:29.001Z</time></trkpt><trkpt lat="50.98252660318487" lon="4.810749899777166"><ele>11.333333333333332</ele><time>2026-04-08T15:14:30.001Z</time></trkpt><trkpt lat="50.98236418582752" lon="4.810758198105091"><ele>11.666666666666666</ele><time>2026-04-08T15:14:31.001Z</time></trkpt><trkpt lat="50.98220154621642" lon="4.810769406187448"><ele>12.0</ele><time>2026-04-08T15:14:32.001Z</time></trkpt><trkpt lat="50.98203151975479" lon="4.8107853497837745"><ele>12.0</ele><time>2026-04-08T15:14:33.001Z</time></trkpt><trkpt lat="50.98185184079651" lon="4.810807140087668"><ele>12.0</ele><time>2026-04-08T15:14:34Z</time></trkpt><trkpt lat="50.981667258452184" lon="4.810828681098538"><ele>12.0</ele><time>2026-04-08T15:14:35Z</time></trkpt><trkpt lat="50.98146870194043" lon="4.810854206517681"><ele>12.0</ele><time>2026-04-08T15:14:36Z</time></trkpt><trkpt lat="50.981273866904324" lon="4.810879891887521"><ele>12.0</ele><time>2026-04-08T15:14:37Z</time></trkpt><trkpt lat="50.9810611311869" lon="4.81090942891663"><ele>12.0</ele><time>2026-04-08T15:14:38Z</time></trkpt><trkpt lat="50.980848645890745" lon="4.810945486308545"><ele>13.0</ele><time>2026-04-08T15:14:39Z</time></trkpt><trkpt lat="50.9806385946388" lon="4.810996523742458"><ele>14.0</ele><time>2026-04-08T15:14:40Z</time></trkpt><trkpt lat="50.98043627719204" lon="4.811070827108502"><ele>15.0</ele><time>2026-04-08T15:14:41Z</time></trkpt><trkpt lat="50.98023856002231" lon="4.811160925649087"><ele>15.0</ele><time>2026-04-08T15:14:42Z</time></trkpt><trkpt lat="50.98004203640416" lon="4.811272102605973"><ele>15.0</ele><time>2026-04-08T15:14:43Z</time></trkpt><trkpt lat="50.97985013677291" lon="4.811399521230504"><ele>15.0</ele><time>2026-04-08T15:14:44Z</time></trkpt><trkpt lat="50.97966741739032" lon="4.811538023388003"><ele>15.666666666666668</ele><time>2026-04-08T15:14:45Z</time></trkpt><trkpt lat="50.97948589943376" lon="4.811694648354212"><ele>16.333333333333336</ele><time>2026-04-08T15:14:46Z</time></trkpt><trkpt lat="50.97931253563857" lon="4.811859759950218"><ele>17.0</ele><time>2026-04-08T15:14:47Z</time></trkpt><trkpt lat="50.97914211923023" lon="4.812036437722697"><ele>17.0</ele><time>2026-04-08T15:14:48Z</time></trkpt><trkpt lat="50.978979854658405" lon="4.812224205163495"><ele>17.0</ele><time>2026-04-08T15:14:49Z</time></trkpt><trkpt lat="50.97881965666494" lon="4.812435632370744"><ele>17.0</ele><time>2026-04-08T15:14:50Z</time></trkpt><trkpt lat="50.97866638932573" lon="4.812652756883833"><ele>17.0</ele><time>2026-04-08T15:14:51Z</time></trkpt><trkpt lat="50.978517516770914" lon="4.812881298685579"><ele>17.0</ele><time>2026-04-08T15:14:52Z</time></trkpt><trkpt lat="50.97837134782572" lon="4.813119505241539"><ele>17.0</ele><time>2026-04-08T15:14:53Z</time></trkpt><trkpt lat="50.97823568994265" lon="4.81335878894986"><ele>17.0</ele><time>2026-04-08T15:14:54Z</time></trkpt><trkpt lat="50.9780977190207" lon="4.81360976221129"><ele>17.0</ele><time>2026-04-08T15:14:55Z</time></trkpt><trkpt lat="50.97796327305359" lon="4.8138640485526025"><ele>17.0</ele><time>2026-04-08T15:14:56Z</time></trkpt><trkpt lat="50.97782714394302" lon="4.814124042875209"><ele>16.333333333333336</ele><time>2026-04-08T15:14:57Z</time></trkpt><trkpt lat="50.97769471260785" lon="4.814370224510613"><ele>15.666666666666668</ele><time>2026-04-08T15:14:58Z</time></trkpt><trkpt lat="50.97755749090985" lon="4.814621299835224"><ele>15.0</ele><time>2026-04-08T15:14:59Z</time></trkpt><trkpt lat="50.9774197593166" lon="4.814876517188065"><ele>15.666666666666668</ele><time>2026-04-08T15:15:00Z</time></trkpt><trkpt lat="50.9772879313443" lon="4.8151342119035485"><ele>16.333333333333336</ele><time>2026-04-08T15:15:01Z</time></trkpt><trkpt lat="50.977168556928085" lon="4.815405741869778"><ele>17.0</ele><time>2026-04-08T15:15:02Z</time></trkpt><trkpt lat="50.977058680821195" lon="4.815698435329315"><ele>17.0</ele><time>2026-04-08T15:15:03Z</time></trkpt><trkpt lat="50.97696025410528" lon="4.8160024166097255"><ele>17.0</ele><time>2026-04-08T15:15:04Z</time></trkpt><trkpt lat="50.97687426282928" lon="4.816319313766337"><ele>17.0</ele><time>2026-04-08T15:15:05Z</time></trkpt><trkpt lat="50.976811994399824" lon="4.816649950371345"><ele>18.0</ele><time>2026-04-08T15:15:06Z</time></trkpt><trkpt lat="50.976768746465574" lon="4.816983566200568"><ele>19.0</ele><time>2026-04-08T15:15:07Z</time></trkpt><trkpt lat="50.97674698677055" lon="4.81733738874522"><ele>20.0</ele><time>2026-04-08T15:15:08Z</time></trkpt><trkpt lat="50.97674698525742" lon="4.81768347444506"><ele>20.333333333333336</ele><time>2026-04-08T15:15:09Z</time></trkpt><trkpt lat="50.97676262648046" lon="4.8180336431499"><ele>20.666666666666668</ele><time>2026-04-08T15:15:10Z</time></trkpt><trkpt lat="50.976802635240816" lon="4.818370342031287"><ele>21.0</ele><time>2026-04-08T15:15:11Z</time></trkpt><trkpt lat="50.97685724165729" lon="4.818707432014078"><ele>21.333333333333332</ele><time>2026-04-08T15:15:12Z</time></trkpt><trkpt lat="50.97692769011075" lon="4.819042661544464"><ele>21.666666666666664</ele><time>2026-04-08T15:15:13Z</time></trkpt><trkpt lat="50.97700841541808" lon="4.819368835297801"><ele>22.0</ele><time>2026-04-08T15:15:14Z</time></trkpt><trkpt lat="50.97709400223142" lon="4.819689164768063"><ele>23.0</ele><time>2026-04-08T15:15:15Z</time></trkpt><trkpt lat="50.97718522774296" lon="4.820004043421586"><ele>24.0</ele><time>2026-04-08T15:15:16Z</time></trkpt><trkpt lat="50.97728117571368" lon="4.820328708028442"><ele>25.0</ele><time>2026-04-08T15:15:17Z</time></trkpt><trkpt lat="50.97737550129481" lon="4.820647967654037"><ele>24.333333333333336</ele><time>2026-04-08T15:15:18Z</time></trkpt><trkpt lat="50.97746658814655" lon="4.820959614128305"><ele>23.666666666666668</ele><time>2026-04-08T15:15:19Z</time></trkpt><trkpt lat="50.97755896614346" lon="4.821287958392225"><ele>23.0</ele><time>2026-04-08T15:15:20Z</time></trkpt><trkpt lat="50.977651440544015" lon="4.821612335516198"><ele>24.333333333333336</ele><time>2026-04-08T15:15:21Z</time></trkpt><trkpt lat="50.97774419371995" lon="4.821936240726132"><ele>25.666666666666668</ele><time>2026-04-08T15:15:22Z</time></trkpt><trkpt lat="50.977836009151574" lon="4.822259079925059"><ele>27.0</ele><time>2026-04-08T15:15:23Z</time></trkpt><trkpt lat="50.97792151546839" lon="4.822593373468075"><ele>28.5</ele><time>2026-04-08T15:15:24Z</time></trkpt><trkpt lat="50.97799466907263" lon="4.822943438260045"><ele>30.0</ele><time>2026-04-08T15:15:25Z</time></trkpt><trkpt lat="50.978056774650284" lon="4.823289176860776"><ele>31.666666666666664</ele><time>2026-04-08T15:15:26Z</time></trkpt><trkpt lat="50.97809415090212" lon="4.823643704250116"><ele>33.33333333333333</ele><time>2026-04-08T15:15:27Z</time></trkpt><trkpt lat="50.97811365390758" lon="4.823988287460976"><ele>35.0</ele><time>2026-04-08T15:15:28Z</time></trkpt><trkpt lat="50.978106884143884" lon="4.8243285940571345"><ele>36.33333333333333</ele><time>2026-04-08T15:15:29Z</time></trkpt><trkpt lat="50.97808142765241" lon="4.82466020780073"><ele>37.666666666666664</ele><time>2026-04-08T15:15:30Z</time></trkpt><trkpt lat="50.97804176676795" lon="4.824961269955081"><ele>39.0</ele><time>2026-04-08T15:15:31Z</time></trkpt><trkpt lat="50.97798975729766" lon="4.825256779043138"><ele>39.333333333333336</ele><time>2026-04-08T15:15:32Z</time></trkpt><trkpt lat="50.97793234696056" lon="4.825522563707361"><ele>39.66666666666667</ele><time>2026-04-08T15:15:33Z</time></trkpt><trkpt lat="50.977876077526346" lon="4.825762877706086"><ele>40.0</ele><time>2026-04-08T15:15:34Z</time></trkpt><trkpt lat="50.97781631115297" lon="4.825960684396589"><ele>40.2</ele><time>2026-04-08T15:15:35Z</time></trkpt><trkpt lat="50.97775608607448" lon="4.826095038009769"><ele>40.4</ele><time>2026-04-08T15:15:36Z</time></trkpt><trkpt lat="50.97770348866758" lon="4.826173871950429"><ele>40.599999999999994</ele><time>2026-04-08T15:15:37Z</time></trkpt><trkpt lat="50.9776359097468" lon="4.826270481247958"><ele>40.8</ele><time>2026-04-08T15:15:39Z</time></trkpt><trkpt lat="50.97759903776825" lon="4.826368320797751"><ele>41.0</ele><time>2026-04-08T15:16:16.001Z</time></trkpt><trkpt lat="50.97751854552144" lon="4.826509046746133"><ele>41.0</ele><time>2026-04-08T15:16:18.001Z</time></trkpt><trkpt lat="50.977453232447274" lon="4.826617736943696"><ele>41.0</ele><time>2026-04-08T15:16:19.001Z</time></trkpt><trkpt lat="50.97737023192364" lon="4.8267357599849765"><ele>41.0</ele><time>2026-04-08T15:16:20.001Z</time></trkpt><trkpt lat="50.977267240124206" lon="4.826879608087255"><ele>41.0</ele><time>2026-04-08T15:16:21.001Z</time></trkpt><trkpt lat="50.977148603630006" lon="4.827032590278063"><ele>41.666666666666664</ele><time>2026-04-08T15:16:22.001Z</time></trkpt><trkpt lat="50.97700810199367" lon="4.827190992897211"><ele>42.333333333333336</ele><time>2026-04-08T15:16:23.001Z</time></trkpt><trkpt lat="50.97685195625692" lon="4.827351722674385"><ele>43.0</ele><time>2026-04-08T15:16:24.001Z</time></trkpt><trkpt lat="50.97669077894945" lon="4.827494867855624"><ele>43.66666666666667</ele><time>2026-04-08T15:16:25.001Z</time></trkpt><trkpt lat="50.976540578442034" lon="4.827645759390837"><ele>44.333333333333336</ele><time>2026-04-08T15:16:26.001Z</time></trkpt><trkpt lat="50.9763653000547" lon="4.827826592572106"><ele>45.0</ele><time>2026-04-08T15:16:27.001Z</time></trkpt><trkpt lat="50.97618504965953" lon="4.8280151665944775"><ele>45.0</ele><time>2026-04-08T15:16:28.001Z</time></trkpt><trkpt lat="50.9760031639632" lon="4.828200119701691"><ele>45.0</ele><time>2026-04-08T15:16:29.001Z</time></trkpt><trkpt lat="50.97581824668587" lon="4.828376343643452"><ele>45.0</ele><time>2026-04-08T15:16:30.001Z</time></trkpt><trkpt lat="50.97563254973156" lon="4.828556423057128"><ele>45.0</ele><time>2026-04-08T15:16:31Z</time></trkpt><trkpt lat="50.975447523284984" lon="4.828741191928033"><ele>45.0</ele><time>2026-04-08T15:16:32Z</time></trkpt><trkpt lat="50.97526001224219" lon="4.828936343767593"><ele>45.0</ele><time>2026-04-08T15:16:33Z</time></trkpt><trkpt lat="50.9750889119486" lon="4.829129899233737"><ele>45.0</ele><time>2026-04-08T15:16:34Z</time></trkpt><trkpt lat="50.97491499241697" lon="4.829335749823786"><ele>45.0</ele><time>2026-04-08T15:16:35Z</time></trkpt><trkpt lat="50.97473956820506" lon="4.829551483090954"><ele>45.0</ele><time>2026-04-08T15:16:36Z</time></trkpt><trkpt lat="50.9745660068612" lon="4.829766422516252"><ele>45.0</ele><time>2026-04-08T15:16:37Z</time></trkpt><trkpt lat="50.97439486751849" lon="4.829990342259546"><ele>45.0</ele><time>2026-04-08T15:16:38Z</time></trkpt><trkpt lat="50.974227474299724" lon="4.830215521503776"><ele>45.0</ele><time>2026-04-08T15:16:39Z</time></trkpt><trkpt lat="50.974058144800104" lon="4.83045235110827"><ele>46.5</ele><time>2026-04-08T15:16:40Z</time></trkpt><trkpt lat="50.9738921062043" lon="4.830697327154093"><ele>48.0</ele><time>2026-04-08T15:16:41Z</time></trkpt><trkpt lat="50.97372855171648" lon="4.830944670950516"><ele>48.33333333333333</ele><time>2026-04-08T15:16:42Z</time></trkpt><trkpt lat="50.973566154655835" lon="4.831184975792518"><ele>48.666666666666664</ele><time>2026-04-08T15:16:43Z</time></trkpt><trkpt lat="50.97340579167136" lon="4.831425911066088"><ele>49.0</ele><time>2026-04-08T15:16:44Z</time></trkpt><trkpt lat="50.9732388295613" lon="4.8316682887524784"><ele>48.666666666666664</ele><time>2026-04-08T15:16:45Z</time></trkpt><trkpt lat="50.97307653776274" lon="4.831904835127802"><ele>48.33333333333333</ele><time>2026-04-08T15:16:46Z</time></trkpt><trkpt lat="50.972913001701954" lon="4.832143800554784"><ele>48.0</ele><time>2026-04-08T15:16:47Z</time></trkpt><trkpt lat="50.97275565531086" lon="4.832380185789467"><ele>48.0</ele><time>2026-04-08T15:16:48Z</time></trkpt><trkpt lat="50.97259658824396" lon="4.832615889447788"><ele>48.0</ele><time>2026-04-08T15:16:49Z</time></trkpt><trkpt lat="50.97243700644085" lon="4.832846421622296"><ele>48.0</ele><time>2026-04-08T15:16:50Z</time></trkpt><trkpt lat="50.97226846398367" lon="4.833078067749869"><ele>48.0</ele><time>2026-04-08T15:16:51Z</time></trkpt><trkpt lat="50.9720997155146" lon="4.833291892337575"><ele>48.0</ele><time>2026-04-08T15:16:52Z</time></trkpt><trkpt lat="50.971925210245075" lon="4.833502616949056"><ele>48.0</ele><time>2026-04-08T15:16:53Z</time></trkpt><trkpt lat="50.971751202185345" lon="4.833703934013696"><ele>48.0</ele><time>2026-04-08T15:16:54Z</time></trkpt><trkpt lat="50.971570719967794" lon="4.833896072993167"><ele>48.0</ele><time>2026-04-08T15:16:55Z</time></trkpt><trkpt lat="50.97138314420816" lon="4.834076681364952"><ele>48.0</ele><time>2026-04-08T15:16:56Z</time></trkpt><trkpt lat="50.97119725332074" lon="4.834245335377634"><ele>48.0</ele><time>2026-04-08T15:16:57Z</time></trkpt><trkpt lat="50.97100671939784" lon="4.8344124694325314"><ele>48.0</ele><time>2026-04-08T15:16:58Z</time></trkpt><trkpt lat="50.97080193088407" lon="4.834541395007303"><ele>48.0</ele><time>2026-04-08T15:16:59Z</time></trkpt><trkpt lat="50.970600390620106" lon="4.834682803570835"><ele>48.0</ele><time>2026-04-08T15:17:00Z</time></trkpt><trkpt lat="50.97040432107895" lon="4.83484472066322"><ele>48.0</ele><time>2026-04-08T15:17:01Z</time></trkpt><trkpt lat="50.97020051627738" lon="4.834961055647011"><ele>48.0</ele><time>2026-04-08T15:17:02Z</time></trkpt><trkpt lat="50.96999265183466" lon="4.835073106002647"><ele>48.66666666666667</ele><time>2026-04-08T15:17:03Z</time></trkpt><trkpt lat="50.969785436840624" lon="4.835181217127087"><ele>49.333333333333336</ele><time>2026-04-08T15:17:04Z</time></trkpt><trkpt lat="50.96957779919185" lon="4.835279350699048"><ele>50.0</ele><time>2026-04-08T15:17:05Z</time></trkpt><trkpt lat="50.969360930121994" lon="4.835338680708804"><ele>51.66666666666667</ele><time>2026-04-08T15:17:06Z</time></trkpt><trkpt lat="50.9691496010031" lon="4.835413552328556"><ele>53.33333333333333</ele><time>2026-04-08T15:17:07Z</time></trkpt><trkpt lat="50.96893781894657" lon="4.83548195370826"><ele>55.0</ele><time>2026-04-08T15:17:08Z</time></trkpt><trkpt lat="50.968748646553514" lon="4.835538003340466"><ele>55.0</ele><time>2026-04-08T15:17:09Z</time></trkpt><trkpt lat="50.968568406604035" lon="4.835606901793234"><ele>55.0</ele><time>2026-04-08T15:17:10Z</time></trkpt><trkpt lat="50.96840355904739" lon="4.835651783423459"><ele>55.0</ele><time>2026-04-08T15:17:11Z</time></trkpt><trkpt lat="50.96825163747337" lon="4.835670076082377"><ele>55.2</ele><time>2026-04-08T15:17:12Z</time></trkpt><trkpt lat="50.96811961832006" lon="4.8357031559119115"><ele>55.4</ele><time>2026-04-08T15:17:13Z</time></trkpt><trkpt lat="50.96800211097686" lon="4.835732599498289"><ele>55.599999999999994</ele><time>2026-04-08T15:17:14Z</time></trkpt><trkpt lat="50.96790322531183" lon="4.835757377177055"><ele>55.8</ele><time>2026-04-08T15:17:15Z</time></trkpt><trkpt lat="50.967832449594795" lon="4.835775111315314"><ele>56.0</ele><time>2026-04-08T15:17:16Z</time></trkpt><trkpt lat="50.967765419931034" lon="4.835791906790543"><ele>56.0</ele><time>2026-04-08T15:17:18Z</time></trkpt><trkpt lat="50.967694652982956" lon="4.835810035601237"><ele>56.0</ele><time>2026-04-08T15:17:24Z</time></trkpt><trkpt lat="50.967631445160144" lon="4.835826930577758"><ele>56.0</ele><time>2026-04-08T15:17:25Z</time></trkpt><trkpt lat="50.967520734718555" lon="4.835855100727589"><ele>56.0</ele><time>2026-04-08T15:17:27Z</time></trkpt><trkpt lat="50.967524108166245" lon="4.836188736008166"><ele>55.25</ele><time>2026-04-08T15:17:28Z</time></trkpt><trkpt lat="50.96751516576442" lon="4.836333997864942"><ele>54.5</ele><time>2026-04-08T15:17:29Z</time></trkpt><trkpt lat="50.967521967978136" lon="4.836518926168286"><ele>53.75</ele><time>2026-04-08T15:17:30Z</time></trkpt><trkpt lat="50.96752677782323" lon="4.836722722438796"><ele>53.0</ele><time>2026-04-08T15:17:31Z</time></trkpt><trkpt lat="50.96752485428674" lon="4.836946560435291"><ele>53.0</ele><time>2026-04-08T15:17:32Z</time></trkpt><trkpt lat="50.967518802171334" lon="4.837189765318163"><ele>53.0</ele><time>2026-04-08T15:17:33Z</time></trkpt><trkpt lat="50.967503740536735" lon="4.837439646774921"><ele>53.0</ele><time>2026-04-08T15:17:34Z</time></trkpt><trkpt lat="50.96748802052261" lon="4.8376925556931765"><ele>53.0</ele><time>2026-04-08T15:17:35Z</time></trkpt><trkpt lat="50.96745433016307" lon="4.837942482703561"><ele>53.0</ele><time>2026-04-08T15:17:36Z</time></trkpt><trkpt lat="50.96741468269313" lon="4.8381945794062196"><ele>53.0</ele><time>2026-04-08T15:17:36.999Z</time></trkpt><trkpt lat="50.967360637545205" lon="4.8384223524520955"><ele>52.75</ele><time>2026-04-08T15:17:37.999Z</time></trkpt><trkpt lat="50.96729852287668" lon="4.838618933247878"><ele>52.5</ele><time>2026-04-08T15:17:38.999Z</time></trkpt><trkpt lat="50.967231883669115" lon="4.838790108260998"><ele>52.25</ele><time>2026-04-08T15:17:39.999Z</time></trkpt><trkpt lat="50.96716529518817" lon="4.838935995841576"><ele>52.0</ele><time>2026-04-08T15:17:40.999Z</time></trkpt><trkpt lat="50.96709674643674" lon="4.839064618511987"><ele>52.0</ele><time>2026-04-08T15:17:41.999Z</time></trkpt><trkpt lat="50.967036740286176" lon="4.83915074487691"><ele>52.0</ele><time>2026-04-08T15:17:42.999Z</time></trkpt><trkpt lat="50.96698637002429" lon="4.83922014794849"><ele>52.0</ele><time>2026-04-08T15:17:43.999Z</time></trkpt><trkpt lat="50.96692846540443" lon="4.83929963770456"><ele>52.0</ele><time>2026-04-08T15:17:45.999Z</time></trkpt><trkpt lat="50.96706456309345" lon="4.839509073655954"><ele>52.0</ele><time>2026-04-08T15:17:47.999Z</time></trkpt><trkpt lat="50.967124801245276" lon="4.839620136946802"><ele>52.0</ele><time>2026-04-08T15:17:48.999Z</time></trkpt><trkpt lat="50.96721039565287" lon="4.839713519764971"><ele>52.0</ele><time>2026-04-08T15:17:49.999Z</time></trkpt><trkpt lat="50.9672742565714" lon="4.83984475092759"><ele>52.0</ele><time>2026-04-08T15:17:50.999Z</time></trkpt><trkpt lat="50.9673321966281" lon="4.840020200489713"><ele>52.0</ele><time>2026-04-08T15:17:51.999Z</time></trkpt><trkpt lat="50.967380947108374" lon="4.840212076520728"><ele>52.25</ele><time>2026-04-08T15:17:52.999Z</time></trkpt><trkpt lat="50.967383856989734" lon="4.840426562943631"><ele>52.5</ele><time>2026-04-08T15:17:53.999Z</time></trkpt><trkpt lat="50.96738737057846" lon="4.840646412546934"><ele>52.75</ele><time>2026-04-08T15:17:54.999Z</time></trkpt><trkpt lat="50.96737688932506" lon="4.840864234001618"><ele>53.0</ele><time>2026-04-08T15:17:55.999Z</time></trkpt><trkpt lat="50.96738130567897" lon="4.841073614357822"><ele>53.0</ele><time>2026-04-08T15:17:56.999Z</time></trkpt><trkpt lat="50.96736907655105" lon="4.841244790094434"><ele>53.0</ele><time>2026-04-08T15:17:57.999Z</time></trkpt><trkpt lat="50.9673642514696" lon="4.8413930657404665"><ele>53.0</ele><time>2026-04-08T15:17:58.999Z</time></trkpt><trkpt lat="50.96735720952769" lon="4.841517335186032"><ele>53.0</ele><time>2026-04-08T15:17:59.999Z</time></trkpt><trkpt lat="50.967351819634956" lon="4.841622953352857"><ele>53.0</ele><time>2026-04-08T15:18:00.999Z</time></trkpt><trkpt lat="50.96734510222333" lon="4.841815892788329"><ele>53.0</ele><time>2026-04-08T15:18:02.999Z</time></trkpt><trkpt lat="50.967301360975775" lon="4.841913180982757"><ele>53.0</ele><time>2026-04-08T15:18:04.999Z</time></trkpt><trkpt lat="50.96712282757647" lon="4.841823264953421"><ele>53.0</ele><time>2026-04-08T15:18:05.999Z</time></trkpt><trkpt lat="50.9670305989956" lon="4.8418232649523185"><ele>53.0</ele><time>2026-04-08T15:18:06.999Z</time></trkpt><trkpt lat="50.96692942792155" lon="4.841824287497667"><ele>53.0</ele><time>2026-04-08T15:18:07.999Z</time></trkpt><trkpt lat="50.96681937230766" lon="4.841831939283847"><ele>53.0</ele><time>2026-04-08T15:18:08.999Z</time></trkpt><trkpt lat="50.96670276065035" lon="4.84182503403871"><ele>53.0</ele><time>2026-04-08T15:18:09.999Z</time></trkpt><trkpt lat="50.96658321975011" lon="4.84182762977419"><ele>53.0</ele><time>2026-04-08T15:18:10.999Z</time></trkpt><trkpt lat="50.96646504463209" lon="4.841834739414356"><ele>52.5</ele><time>2026-04-08T15:18:11.999Z</time></trkpt><trkpt lat="50.966348302240974" lon="4.841842974361303"><ele>52.0</ele><time>2026-04-08T15:18:12.999Z</time></trkpt><trkpt lat="50.966234121668585" lon="4.841851028593748"><ele>51.5</ele><time>2026-04-08T15:18:14.001Z</time></trkpt><trkpt lat="50.96612178761753" lon="4.841877500474839"><ele>51.0</ele><time>2026-04-08T15:18:15.001Z</time></trkpt><trkpt lat="50.96600826528713" lon="4.841875690416573"><ele>51.0</ele><time>2026-04-08T15:18:16.001Z</time></trkpt><trkpt lat="50.96589297749364" lon="4.841860917402084"><ele>51.0</ele><time>2026-04-08T15:18:17.001Z</time></trkpt><trkpt lat="50.96577696331843" lon="4.84181455388323"><ele>51.0</ele><time>2026-04-08T15:18:18.001Z</time></trkpt><trkpt lat="50.96565852877997" lon="4.841801656438887"><ele>51.0</ele><time>2026-04-08T15:18:19.001Z</time></trkpt><trkpt lat="50.96554223148923" lon="4.841767897389834"><ele>51.4</ele><time>2026-04-08T15:18:20.001Z</time></trkpt><trkpt lat="50.96542691298545" lon="4.841734125546423"><ele>51.8</ele><time>2026-04-08T15:18:21.001Z</time></trkpt><trkpt lat="50.96532858834271" lon="4.841695805905181"><ele>52.199999999999996</ele><time>2026-04-08T15:18:22.001Z</time></trkpt><trkpt lat="50.96523580946264" lon="4.841662229956497"><ele>52.599999999999994</ele><time>2026-04-08T15:18:23.001Z</time></trkpt><trkpt lat="50.96516145810938" lon="4.8416360543545895"><ele>53.0</ele><time>2026-04-08T15:18:24.001Z</time></trkpt><trkpt lat="50.9650942321878" lon="4.841608980820168"><ele>52.833333333333336</ele><time>2026-04-08T15:18:25.001Z</time></trkpt><trkpt lat="50.96502838331612" lon="4.841553974771616"><ele>52.66666666666667</ele><time>2026-04-08T15:18:26.001Z</time></trkpt><trkpt lat="50.964946602242755" lon="4.841531837677393"><ele>52.5</ele><time>2026-04-08T15:18:27.001Z</time></trkpt><trkpt lat="50.96487157458773" lon="4.841479552952573"><ele>52.33333333333333</ele><time>2026-04-08T15:18:28.001Z</time></trkpt><trkpt lat="50.96480895435083" lon="4.841460701506327"><ele>52.166666666666664</ele><time>2026-04-08T15:18:29Z</time></trkpt><trkpt lat="50.96469376233621" lon="4.841490026709536"><ele>52.0</ele><time>2026-04-08T15:18:31Z</time></trkpt><trkpt lat="50.964676247815696" lon="4.841625414625321"><ele>52.0</ele><time>2026-04-08T15:18:32Z</time></trkpt><trkpt lat="50.96464949069894" lon="4.8417518403754585"><ele>52.0</ele><time>2026-04-08T15:18:33Z</time></trkpt><trkpt lat="50.964625860664505" lon="4.841894457755884"><ele>52.0</ele><time>2026-04-08T15:18:34Z</time></trkpt><trkpt lat="50.96460145843882" lon="4.842054173618037"><ele>52.0</ele><time>2026-04-08T15:18:35Z</time></trkpt><trkpt lat="50.96457852811478" lon="4.842224114782616"><ele>52.0</ele><time>2026-04-08T15:18:36Z</time></trkpt><trkpt lat="50.96456809266841" lon="4.842418641108689"><ele>52.0</ele><time>2026-04-08T15:18:37Z</time></trkpt><trkpt lat="50.964551214380094" lon="4.842592984372462"><ele>52.0</ele><time>2026-04-08T15:18:38Z</time></trkpt><trkpt lat="50.964544423456026" lon="4.842755065900919"><ele>52.0</ele><time>2026-04-08T15:18:39Z</time></trkpt><trkpt lat="50.96453179126188" lon="4.842897954971378"><ele>52.0</ele><time>2026-04-08T15:18:40Z</time></trkpt><trkpt lat="50.96451681766593" lon="4.84305495470418"><ele>52.0</ele><time>2026-04-08T15:18:41Z</time></trkpt><trkpt lat="50.96448820243418" lon="4.843215703510688"><ele>51.83333333333333</ele><time>2026-04-08T15:18:42Z</time></trkpt><trkpt lat="50.96448344009235" lon="4.8433820710648625"><ele>51.666666666666664</ele><time>2026-04-08T15:18:43Z</time></trkpt><trkpt lat="50.96446784956813" lon="4.843522441874173"><ele>51.5</ele><time>2026-04-08T15:18:44Z</time></trkpt><trkpt lat="50.96445385238681" lon="4.843644804071999"><ele>51.33333333333333</ele><time>2026-04-08T15:18:45Z</time></trkpt><trkpt lat="50.96444459521941" lon="4.843750268272037"><ele>51.166666666666664</ele><time>2026-04-08T15:18:46Z</time></trkpt><trkpt lat="50.96442762962794" lon="4.843852582519338"><ele>51.0</ele><time>2026-04-08T15:18:47Z</time></trkpt><trkpt lat="50.9644352719345" lon="4.844035315836514"><ele>50.8</ele><time>2026-04-08T15:18:49Z</time></trkpt><trkpt lat="50.96444290934879" lon="4.844173608340746"><ele>50.599999999999994</ele><time>2026-04-08T15:18:51Z</time></trkpt><trkpt lat="50.96443961391522" lon="4.844295845458396"><ele>50.4</ele><time>2026-04-08T15:19:10Z</time></trkpt><trkpt lat="50.964456041700146" lon="4.844508861058427"><ele>50.2</ele><time>2026-04-08T15:19:12Z</time></trkpt><trkpt lat="50.964464378559896" lon="4.844617688268266"><ele>50.0</ele><time>2026-04-08T15:19:13Z</time></trkpt><trkpt lat="50.964488255135066" lon="4.844803317922432"><ele>50.0</ele><time>2026-04-08T15:19:15Z</time></trkpt><trkpt lat="50.96450180773753" lon="4.844952421552009"><ele>50.0</ele><time>2026-04-08T15:19:17Z</time></trkpt><trkpt lat="50.96432037267385" lon="4.845143468888709"><ele>50.0</ele><time>2026-04-08T15:19:20Z</time></trkpt><trkpt lat="50.96428493713016" lon="4.845235120014835"><ele>50.0</ele><time>2026-04-08T15:19:21Z</time></trkpt><trkpt lat="50.964249369625406" lon="4.845355699010953"><ele>50.00000000000001</ele><time>2026-04-08T15:19:22Z</time></trkpt><trkpt lat="50.96423240747552" lon="4.845461088594787"><ele>50.0</ele><time>2026-04-08T15:19:23Z</time></trkpt><trkpt lat="50.96423398358125" lon="4.845591414844554"><ele>50.0</ele><time>2026-04-08T15:19:24Z</time></trkpt><trkpt lat="50.96422570279553" lon="4.845720846452832"><ele>50.0</ele><time>2026-04-08T15:19:25Z</time></trkpt><trkpt lat="50.964213589420986" lon="4.845849483156742"><ele>50.00000000000001</ele><time>2026-04-08T15:19:26Z</time></trkpt><trkpt lat="50.9642024206531" lon="4.845970738763459"><ele>50.0</ele><time>2026-04-08T15:19:27Z</time></trkpt><trkpt lat="50.96419396611787" lon="4.846118073765824"><ele>49.8</ele><time>2026-04-08T15:19:27.999Z</time></trkpt><trkpt lat="50.96418934874353" lon="4.8462733407418686"><ele>49.6</ele><time>2026-04-08T15:19:28.999Z</time></trkpt><trkpt lat="50.96417882098482" lon="4.846442239220355"><ele>49.400000000000006</ele><time>2026-04-08T15:19:29.999Z</time></trkpt><trkpt lat="50.96415979086337" lon="4.846612537227215"><ele>49.2</ele><time>2026-04-08T15:19:30.999Z</time></trkpt><trkpt lat="50.96414688772928" lon="4.846776676526505"><ele>49.0</ele><time>2026-04-08T15:19:31.999Z</time></trkpt><trkpt lat="50.96414017105341" lon="4.846929644901036"><ele>49.0</ele><time>2026-04-08T15:19:32.999Z</time></trkpt><trkpt lat="50.96412866845958" lon="4.847078038157248"><ele>49.0</ele><time>2026-04-08T15:19:33.999Z</time></trkpt><trkpt lat="50.96409869873446" lon="4.847246326163928"><ele>49.0</ele><time>2026-04-08T15:19:34.999Z</time></trkpt><trkpt lat="50.964069991724074" lon="4.8474189514839425"><ele>49.0</ele><time>2026-04-08T15:19:35.999Z</time></trkpt><trkpt lat="50.964054819215555" lon="4.847577786515466"><ele>49.0</ele><time>2026-04-08T15:19:36.999Z</time></trkpt><trkpt lat="50.96403019226628" lon="4.84776596189477"><ele>48.0</ele><time>2026-04-08T15:19:37.999Z</time></trkpt><trkpt lat="50.96400368568577" lon="4.84799924557109"><ele>47.0</ele><time>2026-04-08T15:19:38.999Z</time></trkpt><trkpt lat="50.96397443292391" lon="4.848276944431066"><ele>46.0</ele><time>2026-04-08T15:19:39.999Z</time></trkpt><trkpt lat="50.96394753469187" lon="4.848545492877154"><ele>45.75</ele><time>2026-04-08T15:19:40.999Z</time></trkpt><trkpt lat="50.96392237892266" lon="4.84877647940217"><ele>45.5</ele><time>2026-04-08T15:19:41.999Z</time></trkpt><trkpt lat="50.96389475187066" lon="4.848997307185443"><ele>45.25</ele><time>2026-04-08T15:19:42.999Z</time></trkpt><trkpt lat="50.96387097299841" lon="4.849221508282689"><ele>45.0</ele><time>2026-04-08T15:19:43.999Z</time></trkpt><trkpt lat="50.96385042489726" lon="4.84943312627093"><ele>44.8</ele><time>2026-04-08T15:19:44.999Z</time></trkpt><trkpt lat="50.96383039162053" lon="4.849620196865956"><ele>44.6</ele><time>2026-04-08T15:19:45.999Z</time></trkpt><trkpt lat="50.96381393002773" lon="4.849799049552993"><ele>44.400000000000006</ele><time>2026-04-08T15:19:46.999Z</time></trkpt><trkpt lat="50.9637985422682" lon="4.849965221510856"><ele>44.2</ele><time>2026-04-08T15:19:47.999Z</time></trkpt><trkpt lat="50.96378322143008" lon="4.850124489375016"><ele>44.0</ele><time>2026-04-08T15:19:48.999Z</time></trkpt><trkpt lat="50.9637670947571" lon="4.850261292633005"><ele>44.0</ele><time>2026-04-08T15:19:49.999Z</time></trkpt><trkpt lat="50.96375213544026" lon="4.850409004084832"><ele>44.0</ele><time>2026-04-08T15:19:50.999Z</time></trkpt><trkpt lat="50.96373300646316" lon="4.850583650414323"><ele>44.0</ele><time>2026-04-08T15:19:51.999Z</time></trkpt><trkpt lat="50.96371011720163" lon="4.850806314175326"><ele>44.0</ele><time>2026-04-08T15:19:52.999Z</time></trkpt><trkpt lat="50.96368393836951" lon="4.851039860779826"><ele>44.33333333333333</ele><time>2026-04-08T15:19:53.999Z</time></trkpt><trkpt lat="50.963658239259516" lon="4.851270748579772"><ele>44.666666666666664</ele><time>2026-04-08T15:19:54.999Z</time></trkpt><trkpt lat="50.96362507947118" lon="4.851507173623504"><ele>45.0</ele><time>2026-04-08T15:19:55.999Z</time></trkpt><trkpt lat="50.963597848431235" lon="4.851759496215178"><ele>44.666666666666664</ele><time>2026-04-08T15:19:56.999Z</time></trkpt><trkpt lat="50.963577859874704" lon="4.851981622881303"><ele>44.33333333333333</ele><time>2026-04-08T15:19:57.999Z</time></trkpt><trkpt lat="50.96355199699518" lon="4.852226361818965"><ele>44.0</ele><time>2026-04-08T15:19:58.999Z</time></trkpt><trkpt lat="50.963527271891145" lon="4.852466333332518"><ele>43.5</ele><time>2026-04-08T15:19:59.999Z</time></trkpt><trkpt lat="50.96350704701569" lon="4.852707564585553"><ele>43.0</ele><time>2026-04-08T15:20:00.999Z</time></trkpt><trkpt lat="50.963489498450656" lon="4.852952103254687"><ele>42.5</ele><time>2026-04-08T15:20:01.999Z</time></trkpt><trkpt lat="50.96346409361711" lon="4.853167455462918"><ele>42.0</ele><time>2026-04-08T15:20:02.999Z</time></trkpt><trkpt lat="50.96343300621793" lon="4.853375276462164"><ele>41.8</ele><time>2026-04-08T15:20:03.999Z</time></trkpt><trkpt lat="50.963423488485184" lon="4.853580457637853"><ele>41.6</ele><time>2026-04-08T15:20:04.999Z</time></trkpt><trkpt lat="50.96340327952553" lon="4.853750427256435"><ele>41.4</ele><time>2026-04-08T15:20:05.999Z</time></trkpt><trkpt lat="50.96339406673846" lon="4.853924581574774"><ele>41.199999999999996</ele><time>2026-04-08T15:20:06.999Z</time></trkpt><trkpt lat="50.963389419236876" lon="4.8540727609678385"><ele>41.0</ele><time>2026-04-08T15:20:07.999Z</time></trkpt><trkpt lat="50.96336532672476" lon="4.854245865327972"><ele>41.0</ele><time>2026-04-08T15:20:08.999Z</time></trkpt><trkpt lat="50.96333909854627" lon="4.8544283888195885"><ele>41.0</ele><time>2026-04-08T15:20:09.999Z</time></trkpt><trkpt lat="50.963348978668556" lon="4.854663242497425"><ele>41.0</ele><time>2026-04-08T15:20:11.999Z</time></trkpt><trkpt lat="50.96333322478673" lon="4.854816936965336"><ele>41.0</ele><time>2026-04-08T15:20:12.999Z</time></trkpt><trkpt lat="50.96331482680161" lon="4.854984242943904"><ele>41.0</ele><time>2026-04-08T15:20:13.999Z</time></trkpt><trkpt lat="50.96329877745202" lon="4.855154055669865"><ele>41.0</ele><time>2026-04-08T15:20:14.999Z</time></trkpt><trkpt lat="50.96328104674111" lon="4.855322056422366"><ele>41.0</ele><time>2026-04-08T15:20:15.999Z</time></trkpt><trkpt lat="50.963269592871875" lon="4.855500665510996"><ele>41.0</ele><time>2026-04-08T15:20:16.999Z</time></trkpt><trkpt lat="50.963260220930415" lon="4.855665789215437"><ele>41.0</ele><time>2026-04-08T15:20:17.999Z</time></trkpt><trkpt lat="50.963250040049374" lon="4.855839945292685"><ele>41.199999999999996</ele><time>2026-04-08T15:20:18.999Z</time></trkpt><trkpt lat="50.963234352900976" lon="4.856018729070766"><ele>41.4</ele><time>2026-04-08T15:20:20Z</time></trkpt><trkpt lat="50.96322247253307" lon="4.856177072276585"><ele>41.6</ele><time>2026-04-08T15:20:21Z</time></trkpt><trkpt lat="50.96320421442762" lon="4.8563466928017345"><ele>41.8</ele><time>2026-04-08T15:20:22Z</time></trkpt><trkpt lat="50.96318939020787" lon="4.856504152015084"><ele>42.0</ele><time>2026-04-08T15:20:23Z</time></trkpt><trkpt lat="50.96317918730866" lon="4.856616540863326"><ele>41.8</ele><time>2026-04-08T15:20:24Z</time></trkpt><trkpt lat="50.96318293236149" lon="4.856793195227041"><ele>41.6</ele><time>2026-04-08T15:20:26Z</time></trkpt><trkpt lat="50.96317267552388" lon="4.856942838393889"><ele>41.4</ele><time>2026-04-08T15:20:28Z</time></trkpt><trkpt lat="50.96315821113926" lon="4.85708204423674"><ele>41.199999999999996</ele><time>2026-04-08T15:20:30Z</time></trkpt><trkpt lat="50.96314535859418" lon="4.857182186692292"><ele>41.0</ele><time>2026-04-08T15:20:57Z</time></trkpt><trkpt lat="50.963106195690195" lon="4.857331052805403"><ele>41.0</ele><time>2026-04-08T15:20:59Z</time></trkpt><trkpt lat="50.96309485258135" lon="4.857437564969092"><ele>41.0</ele><time>2026-04-08T15:21:00Z</time></trkpt><trkpt lat="50.96308271195742" lon="4.857551178152145"><ele>41.0</ele><time>2026-04-08T15:21:01Z</time></trkpt><trkpt lat="50.96306905935621" lon="4.857678940812691"><ele>41.0</ele><time>2026-04-08T15:21:02Z</time></trkpt><trkpt lat="50.96305424421224" lon="4.857817582531951"><ele>41.0</ele><time>2026-04-08T15:21:03Z</time></trkpt><trkpt lat="50.96303871775477" lon="4.8579566276933"><ele>41.0</ele><time>2026-04-08T15:21:04Z</time></trkpt><trkpt lat="50.96302233019576" lon="4.858095366909826"><ele>41.166666666666664</ele><time>2026-04-08T15:21:05Z</time></trkpt><trkpt lat="50.963008508788086" lon="4.858220385258756"><ele>41.33333333333333</ele><time>2026-04-08T15:21:06Z</time></trkpt><trkpt lat="50.962994560694135" lon="4.858346665296699"><ele>41.5</ele><time>2026-04-08T15:21:07Z</time></trkpt><trkpt lat="50.96297982491149" lon="4.858480076515738"><ele>41.666666666666664</ele><time>2026-04-08T15:21:08Z</time></trkpt><trkpt lat="50.96296429544921" lon="4.858620672824288"><ele>41.833333333333336</ele><time>2026-04-08T15:21:09Z</time></trkpt><trkpt lat="50.96294569273667" lon="4.858789093633825"><ele>42.0</ele><time>2026-04-08T15:21:10Z</time></trkpt><trkpt lat="50.96292421107632" lon="4.858985093009996"><ele>42.333333333333336</ele><time>2026-04-08T15:21:11Z</time></trkpt><trkpt lat="50.96289843673233" lon="4.859220658599894"><ele>42.66666666666667</ele><time>2026-04-08T15:21:12Z</time></trkpt><trkpt lat="50.96286708849027" lon="4.859481671197622"><ele>43.0</ele><time>2026-04-08T15:21:13Z</time></trkpt><trkpt lat="50.962832343845776" lon="4.859772346933709"><ele>43.66666666666667</ele><time>2026-04-08T15:21:14Z</time></trkpt><trkpt lat="50.962792915439685" lon="4.8600601288959755"><ele>44.333333333333336</ele><time>2026-04-08T15:21:15Z</time></trkpt><trkpt lat="50.962757712410905" lon="4.860321041700158"><ele>45.0</ele><time>2026-04-08T15:21:16Z</time></trkpt><trkpt lat="50.96273082207604" lon="4.860539854316772"><ele>45.333333333333336</ele><time>2026-04-08T15:21:17Z</time></trkpt><trkpt lat="50.962702214092104" lon="4.860772695387316"><ele>45.66666666666667</ele><time>2026-04-08T15:21:18Z</time></trkpt><trkpt lat="50.96267309723778" lon="4.861014923702808"><ele>46.0</ele><time>2026-04-08T15:21:19Z</time></trkpt><trkpt lat="50.96264217515232" lon="4.861261433243345"><ele>46.0</ele><time>2026-04-08T15:21:20Z</time></trkpt><trkpt lat="50.96261374341413" lon="4.861510976433196"><ele>46.0</ele><time>2026-04-08T15:21:21Z</time></trkpt><trkpt lat="50.962587821920685" lon="4.86177218191814"><ele>46.0</ele><time>2026-04-08T15:21:22Z</time></trkpt><trkpt lat="50.96256564755553" lon="4.8620304833190975"><ele>46.0</ele><time>2026-04-08T15:21:23Z</time></trkpt><trkpt lat="50.96254050533882" lon="4.862311315862818"><ele>46.0</ele><time>2026-04-08T15:21:24Z</time></trkpt><trkpt lat="50.96251653141237" lon="4.862585802621128"><ele>46.0</ele><time>2026-04-08T15:21:25Z</time></trkpt><trkpt lat="50.962490099555694" lon="4.862890059958411"><ele>46.333333333333336</ele><time>2026-04-08T15:21:25.999Z</time></trkpt><trkpt lat="50.96246442275199" lon="4.863182760146279"><ele>46.666666666666664</ele><time>2026-04-08T15:21:26.999Z</time></trkpt><trkpt lat="50.96243704369683" lon="4.863498504374611"><ele>47.0</ele><time>2026-04-08T15:21:27.999Z</time></trkpt><trkpt lat="50.962410681019264" lon="4.863800416472253"><ele>47.0</ele><time>2026-04-08T15:21:28.999Z</time></trkpt><trkpt lat="50.962383553578604" lon="4.8641135952363035"><ele>47.0</ele><time>2026-04-08T15:21:29.999Z</time></trkpt><trkpt lat="50.96235654117648" lon="4.864429524769283"><ele>47.0</ele><time>2026-04-08T15:21:30.999Z</time></trkpt><trkpt lat="50.962329480276765" lon="4.864743598076268"><ele>48.0</ele><time>2026-04-08T15:21:31.999Z</time></trkpt><trkpt lat="50.96230098811474" lon="4.8650647874983886"><ele>49.0</ele><time>2026-04-08T15:21:32.999Z</time></trkpt><trkpt lat="50.96227312563536" lon="4.865386175022394"><ele>50.0</ele><time>2026-04-08T15:21:33.999Z</time></trkpt><trkpt lat="50.962248556619095" lon="4.865695292704852"><ele>49.66666666666667</ele><time>2026-04-08T15:21:34.999Z</time></trkpt><trkpt lat="50.96223692925546" lon="4.866017487697522"><ele>49.33333333333333</ele><time>2026-04-08T15:21:35.999Z</time></trkpt><trkpt lat="50.96221254030917" lon="4.866328015908177"><ele>49.0</ele><time>2026-04-08T15:21:36.999Z</time></trkpt><trkpt lat="50.96217225835042" lon="4.866636109148092"><ele>49.666666666666664</ele><time>2026-04-08T15:21:37.999Z</time></trkpt><trkpt lat="50.96214720055677" lon="4.866947630247461"><ele>50.33333333333333</ele><time>2026-04-08T15:21:38.999Z</time></trkpt><trkpt lat="50.96214207055722" lon="4.867255195928293"><ele>51.0</ele><time>2026-04-08T15:21:39.999Z</time></trkpt><trkpt lat="50.9621202002059" lon="4.867554682117517"><ele>51.33333333333333</ele><time>2026-04-08T15:21:40.999Z</time></trkpt><trkpt lat="50.962098743398315" lon="4.867853401201836"><ele>51.666666666666664</ele><time>2026-04-08T15:21:41.999Z</time></trkpt><trkpt lat="50.962082855013854" lon="4.868133793637161"><ele>52.0</ele><time>2026-04-08T15:21:42.999Z</time></trkpt><trkpt lat="50.962069498627834" lon="4.868385612639852"><ele>52.5</ele><time>2026-04-08T15:21:43.999Z</time></trkpt><trkpt lat="50.96203994508439" lon="4.868600870701417"><ele>53.0</ele><time>2026-04-08T15:21:44.999Z</time></trkpt><trkpt lat="50.96204138101268" lon="4.86881632535537"><ele>53.5</ele><time>2026-04-08T15:21:45.999Z</time></trkpt><trkpt lat="50.96202458651697" lon="4.869001592588836"><ele>54.0</ele><time>2026-04-08T15:21:46.999Z</time></trkpt><trkpt lat="50.96201663499747" lon="4.869172152497426"><ele>54.333333333333336</ele><time>2026-04-08T15:21:47.999Z</time></trkpt><trkpt lat="50.96203229776076" lon="4.869314085675412"><ele>54.66666666666667</ele><time>2026-04-08T15:21:48.999Z</time></trkpt><trkpt lat="50.96208027218201" lon="4.86944361098838"><ele>55.0</ele><time>2026-04-08T15:21:49.999Z</time></trkpt><trkpt lat="50.96213293345411" lon="4.869534494187593"><ele>55.333333333333336</ele><time>2026-04-08T15:21:50.999Z</time></trkpt><trkpt lat="50.96218333228218" lon="4.869656304675263"><ele>55.66666666666667</ele><time>2026-04-08T15:21:52.999Z</time></trkpt><trkpt lat="50.96221768322827" lon="4.869766801775856"><ele>56.0</ele><time>2026-04-08T15:21:55.999Z</time></trkpt><trkpt lat="50.962368030430255" lon="4.869667202375142"><ele>56.0</ele><time>2026-04-08T15:21:56.999Z</time></trkpt><trkpt lat="50.9624784425643" lon="4.869617719104154"><ele>56.0</ele><time>2026-04-08T15:21:57.999Z</time></trkpt><trkpt lat="50.962593243974915" lon="4.869578077802488"><ele>56.0</ele><time>2026-04-08T15:21:58.999Z</time></trkpt><trkpt lat="50.96273049007768" lon="4.869534250600053"><ele>56.0</ele><time>2026-04-08T15:21:59.999Z</time></trkpt><trkpt lat="50.962867718347944" lon="4.869486847826093"><ele>56.333333333333336</ele><time>2026-04-08T15:22:00.999Z</time></trkpt><trkpt lat="50.96301475089489" lon="4.8694320914250575"><ele>56.66666666666667</ele><time>2026-04-08T15:22:01.999Z</time></trkpt><trkpt lat="50.96316504921396" lon="4.869379485222407"><ele>57.0</ele><time>2026-04-08T15:22:02.999Z</time></trkpt><trkpt lat="50.963323114607206" lon="4.869329049244534"><ele>57.33333333333333</ele><time>2026-04-08T15:22:03.999Z</time></trkpt><trkpt lat="50.96348873269886" lon="4.86927469009651"><ele>57.666666666666664</ele><time>2026-04-08T15:22:04.999Z</time></trkpt><trkpt lat="50.96365103119231" lon="4.86921930307635"><ele>58.0</ele><time>2026-04-08T15:22:05.999Z</time></trkpt><trkpt lat="50.96381343191354" lon="4.8691654540458"><ele>58.0</ele><time>2026-04-08T15:22:06.999Z</time></trkpt><trkpt lat="50.96395444653762" lon="4.8691137748775875"><ele>58.0</ele><time>2026-04-08T15:22:07.999Z</time></trkpt><trkpt lat="50.96407646699431" lon="4.8690624320392315"><ele>58.0</ele><time>2026-04-08T15:22:08.999Z</time></trkpt><trkpt lat="50.96416897341623" lon="4.869019101583286"><ele>58.0</ele><time>2026-04-08T15:22:09.999Z</time></trkpt><trkpt lat="50.96424384331791" lon="4.868993131103506"><ele>58.0</ele><time>2026-04-08T15:22:10.999Z</time></trkpt><trkpt lat="50.96431524011803" lon="4.868980715472454"><ele>58.0</ele><time>2026-04-08T15:22:11.999Z</time></trkpt><trkpt lat="50.964388597008885" lon="4.869013787239514"><ele>58.0</ele><time>2026-04-08T15:22:12.999Z</time></trkpt><trkpt lat="50.96449830461348" lon="4.868921448143088"><ele>58.0</ele><time>2026-04-08T15:22:13.999Z</time></trkpt><trkpt lat="50.96445554834443" lon="4.869427284609188"><ele>58.25</ele><time>2026-04-08T15:22:15.999Z</time></trkpt><trkpt lat="50.964471136566445" lon="4.869598981944637"><ele>58.5</ele><time>2026-04-08T15:22:16.999Z</time></trkpt><trkpt lat="50.96447100806512" lon="4.869796401844441"><ele>58.75</ele><time>2026-04-08T15:22:17.999Z</time></trkpt><trkpt lat="50.96447460254732" lon="4.8700117582907545"><ele>59.0</ele><time>2026-04-08T15:22:18.999Z</time></trkpt><trkpt lat="50.96447654612111" lon="4.87025448414018"><ele>59.66666666666667</ele><time>2026-04-08T15:22:19.999Z</time></trkpt><trkpt lat="50.96447797629976" lon="4.870491682038515"><ele>60.33333333333333</ele><time>2026-04-08T15:22:20.999Z</time></trkpt><trkpt lat="50.96448225345091" lon="4.870737065983168"><ele>61.0</ele><time>2026-04-08T15:22:21.999Z</time></trkpt><trkpt lat="50.964489843895095" lon="4.8709815384553545"><ele>61.5</ele><time>2026-04-08T15:22:22.999Z</time></trkpt><trkpt lat="50.964505046455876" lon="4.871482255804891"><ele>62.0</ele><time>2026-04-08T15:22:24.999Z</time></trkpt><trkpt lat="50.964517400365416" lon="4.871699120221614"><ele>62.25</ele><time>2026-04-08T15:22:26Z</time></trkpt><trkpt lat="50.96454249221005" lon="4.8719184557834385"><ele>62.5</ele><time>2026-04-08T15:22:27Z</time></trkpt><trkpt lat="50.96457674904719" lon="4.872141769346003"><ele>62.75</ele><time>2026-04-08T15:22:28Z</time></trkpt><trkpt lat="50.964613293320014" lon="4.87237249407402"><ele>63.0</ele><time>2026-04-08T15:22:29Z</time></trkpt><trkpt lat="50.96466000657974" lon="4.872604118649778"><ele>63.5</ele><time>2026-04-08T15:22:30Z</time></trkpt><trkpt lat="50.96471700399354" lon="4.872831037279075"><ele>64.0</ele><time>2026-04-08T15:22:31Z</time></trkpt><trkpt lat="50.96478113042788" lon="4.873037604689583"><ele>64.5</ele><time>2026-04-08T15:22:32Z</time></trkpt><trkpt lat="50.96484127791421" lon="4.873212645125339"><ele>65.0</ele><time>2026-04-08T15:22:33Z</time></trkpt><trkpt lat="50.964897151964955" lon="4.873370237430572"><ele>65.4</ele><time>2026-04-08T15:22:34Z</time></trkpt><trkpt lat="50.96494484184063" lon="4.873496930944256"><ele>65.8</ele><time>2026-04-08T15:22:35Z</time></trkpt><trkpt lat="50.96499702275779" lon="4.873641259300608"><ele>66.2</ele><time>2026-04-08T15:22:37Z</time></trkpt><trkpt lat="50.96500994487983" lon="4.873751527652038"><ele>66.6</ele><time>2026-04-08T15:22:39Z</time></trkpt><trkpt lat="50.96491273660401" lon="4.873856659699847"><ele>67.0</ele><time>2026-04-08T15:22:40Z</time></trkpt><trkpt lat="50.96485034560336" lon="4.873876197947719"><ele>67.0</ele><time>2026-04-08T15:22:41Z</time></trkpt><trkpt lat="50.9647843490662" lon="4.873893483277587"><ele>67.0</ele><time>2026-04-08T15:22:42Z</time></trkpt><trkpt lat="50.964718819652305" lon="4.8739054642490345"><ele>67.0</ele><time>2026-04-08T15:22:43Z</time></trkpt><trkpt lat="50.964633060032966" lon="4.874047210395563"><ele>67.0</ele><time>2026-04-08T15:22:45Z</time></trkpt><trkpt lat="50.964600620688415" lon="4.874159945030837"><ele>67.0</ele><time>2026-04-08T15:22:46Z</time></trkpt><trkpt lat="50.96456603953654" lon="4.874245383627706"><ele>67.0</ele><time>2026-04-08T15:22:47Z</time></trkpt><trkpt lat="50.964454204475885" lon="4.874322989697926"><ele>66.66666666666666</ele><time>2026-04-08T15:22:49Z</time></trkpt><trkpt lat="50.964382129037766" lon="4.874360492949987"><ele>66.33333333333333</ele><time>2026-04-08T15:22:50Z</time></trkpt><trkpt lat="50.96430281744913" lon="4.874382694514839"><ele>66.0</ele><time>2026-04-08T15:22:51Z</time></trkpt><trkpt lat="50.96421662047801" lon="4.874402357748044"><ele>65.66666666666667</ele><time>2026-04-08T15:22:52Z</time></trkpt><trkpt lat="50.964144926143106" lon="4.874424747176507"><ele>65.33333333333334</ele><time>2026-04-08T15:22:53Z</time></trkpt><trkpt lat="50.964077646208246" lon="4.874448499181689"><ele>65.0</ele><time>2026-04-08T15:22:54Z</time></trkpt><trkpt lat="50.96395132957074" lon="4.874434378444327"><ele>64.2</ele><time>2026-04-08T15:22:56Z</time></trkpt><trkpt lat="50.96387546491731" lon="4.874431936017845"><ele>63.4</ele><time>2026-04-08T15:22:57Z</time></trkpt><trkpt lat="50.96377832062696" lon="4.874493850415189"><ele>62.599999999999994</ele><time>2026-04-08T15:22:59Z</time></trkpt><trkpt lat="50.96371537740143" lon="4.87455672313396"><ele>61.8</ele><time>2026-04-08T15:23:01Z</time></trkpt><trkpt lat="50.96370505029165" lon="4.874673941181388"><ele>61.0</ele><time>2026-04-08T15:23:03Z</time></trkpt><trkpt lat="50.963786483763805" lon="4.874816341139949"><ele>61.0</ele><time>2026-04-08T15:23:05Z</time></trkpt><trkpt lat="50.963882213814195" lon="4.874993489171879"><ele>60.99999999999999</ele><time>2026-04-08T15:23:07Z</time></trkpt><trkpt lat="50.96391348999062" lon="4.875119652753652"><ele>60.99999999999999</ele><time>2026-04-08T15:23:08Z</time></trkpt><trkpt lat="50.96396399725342" lon="4.875244471880338"><ele>61.0</ele><time>2026-04-08T15:23:09Z</time></trkpt><trkpt lat="50.96402942625439" lon="4.875351475357717"><ele>61.0</ele><time>2026-04-08T15:23:10Z</time></trkpt><trkpt lat="50.96407922544967" lon="4.875488229070957"><ele>61.0</ele><time>2026-04-08T15:23:11Z</time></trkpt><trkpt lat="50.964173674088016" lon="4.875598532639481"><ele>61.0</ele><time>2026-04-08T15:23:12Z</time></trkpt><trkpt lat="50.964272492801214" lon="4.875724163719001"><ele>61.0</ele><time>2026-04-08T15:23:13Z</time></trkpt><trkpt lat="50.96437753418174" lon="4.875841798230287"><ele>61.0</ele><time>2026-04-08T15:23:14Z</time></trkpt><trkpt lat="50.96449174789596" lon="4.87596668431189"><ele>61.0</ele><time>2026-04-08T15:23:15Z</time></trkpt><trkpt lat="50.96460449692449" lon="4.8760939168847885"><ele>61.0</ele><time>2026-04-08T15:23:16Z</time></trkpt><trkpt lat="50.96471589440961" lon="4.876219353626678"><ele>61.0</ele><time>2026-04-08T15:23:17Z</time></trkpt><trkpt lat="50.9648246879411" lon="4.876341202944122"><ele>61.0</ele><time>2026-04-08T15:23:18Z</time></trkpt><trkpt lat="50.96492741695428" lon="4.876463828933742"><ele>61.0</ele><time>2026-04-08T15:23:19Z</time></trkpt><trkpt lat="50.96502913231387" lon="4.876587777303131"><ele>61.0</ele><time>2026-04-08T15:23:20Z</time></trkpt><trkpt lat="50.9651095365092" lon="4.876736577202486"><ele>61.0</ele><time>2026-04-08T15:23:21Z</time></trkpt><trkpt lat="50.96519692074886" lon="4.8768752843516445"><ele>61.0</ele><time>2026-04-08T15:23:22Z</time></trkpt><trkpt lat="50.965287571467115" lon="4.877017071813942"><ele>60.0</ele><time>2026-04-08T15:23:23Z</time></trkpt><trkpt lat="50.96539118520897" lon="4.877138677270381"><ele>59.0</ele><time>2026-04-08T15:23:24Z</time></trkpt><trkpt lat="50.965480340340925" lon="4.877263909823183"><ele>58.0</ele><time>2026-04-08T15:23:25Z</time></trkpt><trkpt lat="50.96558060124293" lon="4.877385918699886"><ele>57.0</ele><time>2026-04-08T15:23:26Z</time></trkpt><trkpt lat="50.965670781073904" lon="4.877499122515168"><ele>56.833333333333336</ele><time>2026-04-08T15:23:27Z</time></trkpt><trkpt lat="50.96575033308335" lon="4.87760242036046"><ele>56.66666666666667</ele><time>2026-04-08T15:23:28Z</time></trkpt><trkpt lat="50.96580448246388" lon="4.87769616175834"><ele>56.5</ele><time>2026-04-08T15:23:29Z</time></trkpt><trkpt lat="50.96586493002734" lon="4.8777733724086865"><ele>56.333333333333336</ele><time>2026-04-08T15:23:29.999Z</time></trkpt><trkpt lat="50.96591533739558" lon="4.877837758349917"><ele>56.16666666666667</ele><time>2026-04-08T15:23:30.999Z</time></trkpt><trkpt lat="50.966008240525824" lon="4.877927080775216"><ele>56.0</ele><time>2026-04-08T15:23:32.999Z</time></trkpt><trkpt lat="50.96604279841723" lon="4.878034147840295"><ele>56.00000000000001</ele><time>2026-04-08T15:23:34.999Z</time></trkpt><trkpt lat="50.96594676320603" lon="4.878084323841217"><ele>56.0</ele><time>2026-04-08T15:23:35.999Z</time></trkpt><trkpt lat="50.96587371062689" lon="4.8781142569263745"><ele>56.0</ele><time>2026-04-08T15:23:36.999Z</time></trkpt><trkpt lat="50.96579068057505" lon="4.878148284788516"><ele>56.0</ele><time>2026-04-08T15:23:37.999Z</time></trkpt><trkpt lat="50.96570056377657" lon="4.87818134280886"><ele>56.00000000000001</ele><time>2026-04-08T15:23:38.999Z</time></trkpt><trkpt lat="50.965609795327964" lon="4.878213060408689"><ele>56.0</ele><time>2026-04-08T15:23:39.999Z</time></trkpt><trkpt lat="50.9655272811414" lon="4.8782418933837315"><ele>55.4</ele><time>2026-04-08T15:23:40.999Z</time></trkpt><trkpt lat="50.96545846209858" lon="4.878265940949655"><ele>54.8</ele><time>2026-04-08T15:23:41.999Z</time></trkpt><trkpt lat="50.96533694511325" lon="4.878308455875678"><ele>54.199999999999996</ele><time>2026-04-08T15:23:43.999Z</time></trkpt><trkpt lat="50.965258481162515" lon="4.878361978358888"><ele>53.599999999999994</ele><time>2026-04-08T15:23:44.999Z</time></trkpt><trkpt lat="50.9651569388821" lon="4.878389308237026"><ele>53.0</ele><time>2026-04-08T15:23:45.999Z</time></trkpt><trkpt lat="50.96504370625791" lon="4.8784402195864685"><ele>52.75</ele><time>2026-04-08T15:23:46.999Z</time></trkpt><trkpt lat="50.96492851283273" lon="4.8784807201287"><ele>52.5</ele><time>2026-04-08T15:23:47.999Z</time></trkpt><trkpt lat="50.96480007037422" lon="4.878499759886422"><ele>52.25</ele><time>2026-04-08T15:23:48.999Z</time></trkpt><trkpt lat="50.96467802314255" lon="4.878541824984914"><ele>52.0</ele><time>2026-04-08T15:23:49.999Z</time></trkpt><trkpt lat="50.96454760930195" lon="4.878586971654113"><ele>52.0</ele><time>2026-04-08T15:23:50.999Z</time></trkpt><trkpt lat="50.96441395125567" lon="4.878633656393492"><ele>52.0</ele><time>2026-04-08T15:23:51.999Z</time></trkpt><trkpt lat="50.96428066254347" lon="4.878685312274063"><ele>52.0</ele><time>2026-04-08T15:23:52.999Z</time></trkpt><trkpt lat="50.96414388781362" lon="4.878738626507705"><ele>52.0</ele><time>2026-04-08T15:23:53.999Z</time></trkpt><trkpt lat="50.963995802555154" lon="4.878790643367712"><ele>51.75</ele><time>2026-04-08T15:23:54.999Z</time></trkpt><trkpt lat="50.96386052600615" lon="4.878838061051995"><ele>51.5</ele><time>2026-04-08T15:23:55.999Z</time></trkpt><trkpt lat="50.963729362989255" lon="4.878884567186058"><ele>51.25</ele><time>2026-04-08T15:23:56.999Z</time></trkpt><trkpt lat="50.96360623167276" lon="4.878928225510001"><ele>51.0</ele><time>2026-04-08T15:23:57.999Z</time></trkpt><trkpt lat="50.96348114631485" lon="4.878999698873796"><ele>51.25</ele><time>2026-04-08T15:23:58.999Z</time></trkpt><trkpt lat="50.96334812954125" lon="4.879044976785871"><ele>51.5</ele><time>2026-04-08T15:23:59.999Z</time></trkpt><trkpt lat="50.96320549851612" lon="4.879072093164482"><ele>51.75</ele><time>2026-04-08T15:24:00.999Z</time></trkpt><trkpt lat="50.96307787096056" lon="4.879118162706225"><ele>52.0</ele><time>2026-04-08T15:24:01.999Z</time></trkpt><trkpt lat="50.96295194104413" lon="4.879163619436227"><ele>52.0</ele><time>2026-04-08T15:24:02.999Z</time></trkpt><trkpt lat="50.96283591326408" lon="4.879206102206431"><ele>52.0</ele><time>2026-04-08T15:24:03.999Z</time></trkpt><trkpt lat="50.96273189820587" lon="4.879270742483623"><ele>52.0</ele><time>2026-04-08T15:24:04.999Z</time></trkpt><trkpt lat="50.9626331582241" lon="4.8792824435848905"><ele>52.0</ele><time>2026-04-08T15:24:05.999Z</time></trkpt><trkpt lat="50.962539447755084" lon="4.879318643010664"><ele>52.0</ele><time>2026-04-08T15:24:06.999Z</time></trkpt><trkpt lat="50.96243214983453" lon="4.879365913372681"><ele>52.0</ele><time>2026-04-08T15:24:07.999Z</time></trkpt><trkpt lat="50.96231801384488" lon="4.879407743488546"><ele>52.0</ele><time>2026-04-08T15:24:08.999Z</time></trkpt><trkpt lat="50.96219582924893" lon="4.879453002593222"><ele>52.0</ele><time>2026-04-08T15:24:09.999Z</time></trkpt><trkpt lat="50.962086678305106" lon="4.879495033215411"><ele>52.0</ele><time>2026-04-08T15:24:10.999Z</time></trkpt><trkpt lat="50.96198063654544" lon="4.879535470640931"><ele>52.0</ele><time>2026-04-08T15:24:11.999Z</time></trkpt><trkpt lat="50.96186858231288" lon="4.8795782008328805"><ele>52.0</ele><time>2026-04-08T15:24:12.999Z</time></trkpt><trkpt lat="50.961764768166034" lon="4.879615644101154"><ele>52.0</ele><time>2026-04-08T15:24:13.999Z</time></trkpt><trkpt lat="50.96167692016528" lon="4.879645482081894"><ele>52.0</ele><time>2026-04-08T15:24:14.999Z</time></trkpt><trkpt lat="50.961587116282686" lon="4.879675118595264"><ele>52.0</ele><time>2026-04-08T15:24:15.999Z</time></trkpt><trkpt lat="50.9614975498097" lon="4.879704676774362"><ele>51.83333333333333</ele><time>2026-04-08T15:24:16.999Z</time></trkpt><trkpt lat="50.96141758788115" lon="4.879731065319167"><ele>51.666666666666664</ele><time>2026-04-08T15:24:17.999Z</time></trkpt><trkpt lat="50.961355712159516" lon="4.879751485196964"><ele>51.5</ele><time>2026-04-08T15:24:18.999Z</time></trkpt><trkpt lat="50.96128375292684" lon="4.879782372302493"><ele>51.33333333333333</ele><time>2026-04-08T15:24:19.999Z</time></trkpt><trkpt lat="50.961223871933804" lon="4.8798748848458064"><ele>51.166666666666664</ele><time>2026-04-08T15:24:20.999Z</time></trkpt><trkpt lat="50.96119202147825" lon="4.8800058572564105"><ele>51.0</ele><time>2026-04-08T15:24:21.999Z</time></trkpt><trkpt lat="50.96120898925412" lon="4.88015691076722"><ele>51.0</ele><time>2026-04-08T15:24:22.999Z</time></trkpt><trkpt lat="50.961208763575556" lon="4.880305747543587"><ele>51.0</ele><time>2026-04-08T15:24:23.999Z</time></trkpt><trkpt lat="50.961202792475504" lon="4.880467305199919"><ele>51.0</ele><time>2026-04-08T15:24:24.999Z</time></trkpt><trkpt lat="50.96118991830916" lon="4.880640927092741"><ele>51.0</ele><time>2026-04-08T15:24:25.999Z</time></trkpt><trkpt lat="50.96117202448471" lon="4.880864703726464"><ele>51.0</ele><time>2026-04-08T15:24:26.999Z</time></trkpt><trkpt lat="50.961148169350054" lon="4.881142116129482"><ele>51.0</ele><time>2026-04-08T15:24:27.999Z</time></trkpt><trkpt lat="50.961123768686555" lon="4.881442460892844"><ele>51.0</ele><time>2026-04-08T15:24:28.999Z</time></trkpt><trkpt lat="50.96109185852843" lon="4.881785832889257"><ele>51.0</ele><time>2026-04-08T15:24:29.999Z</time></trkpt><trkpt lat="50.96106371323839" lon="4.882113249794742"><ele>50.66666666666667</ele><time>2026-04-08T15:24:31Z</time></trkpt><trkpt lat="50.96104800268385" lon="4.882455588204109"><ele>50.333333333333336</ele><time>2026-04-08T15:24:32Z</time></trkpt><trkpt lat="50.961021873724114" lon="4.882799324145245"><ele>50.0</ele><time>2026-04-08T15:24:33Z</time></trkpt><trkpt lat="50.96099744332358" lon="4.883162934153339"><ele>55.0</ele><time>2026-04-08T15:24:34Z</time></trkpt><trkpt lat="50.9609794855378" lon="4.8835105523328215"><ele>60.0</ele><time>2026-04-08T15:24:35Z</time></trkpt><trkpt lat="50.96093723860946" lon="4.883875180212893"><ele>60.0</ele><time>2026-04-08T15:24:36Z</time></trkpt><trkpt lat="50.96091203671252" lon="4.884223168727202"><ele>60.0</ele><time>2026-04-08T15:24:37Z</time></trkpt><trkpt lat="50.96089920498684" lon="4.884592316762365"><ele>61.0</ele><time>2026-04-08T15:24:38Z</time></trkpt><trkpt lat="50.96087999934345" lon="4.884951680216463"><ele>62.0</ele><time>2026-04-08T15:24:39Z</time></trkpt><trkpt lat="50.96084368228992" lon="4.885312448461599"><ele>57.0</ele><time>2026-04-08T15:24:40Z</time></trkpt><trkpt lat="50.960837018402465" lon="4.885690299871044"><ele>52.0</ele><time>2026-04-08T15:24:41Z</time></trkpt><trkpt lat="50.960808512339895" lon="4.886101823042411"><ele>51.0</ele><time>2026-04-08T15:24:42Z</time></trkpt><trkpt lat="50.96077991645196" lon="4.886493622827865"><ele>50.0</ele><time>2026-04-08T15:24:43Z</time></trkpt><trkpt lat="50.96075343549294" lon="4.886861268342312"><ele>49.0</ele><time>2026-04-08T15:24:44Z</time></trkpt><trkpt lat="50.96073356050067" lon="4.887223530733777"><ele>48.0</ele><time>2026-04-08T15:24:45Z</time></trkpt><trkpt lat="50.96071266933704" lon="4.887577669186767"><ele>47.5</ele><time>2026-04-08T15:24:46Z</time></trkpt><trkpt lat="50.960692796267445" lon="4.8879289003011"><ele>47.0</ele><time>2026-04-08T15:24:47Z</time></trkpt><trkpt lat="50.9606741318835" lon="4.888290886091209"><ele>47.0</ele><time>2026-04-08T15:24:48Z</time></trkpt><trkpt lat="50.96065501363918" lon="4.888638231898735"><ele>47.0</ele><time>2026-04-08T15:24:49Z</time></trkpt><trkpt lat="50.96063072038351" lon="4.888986339059731"><ele>47.0</ele><time>2026-04-08T15:24:50Z</time></trkpt><trkpt lat="50.96060960589084" lon="4.889342048829864"><ele>46.666666666666664</ele><time>2026-04-08T15:24:51Z</time></trkpt><trkpt lat="50.960587633568466" lon="4.8896856717269"><ele>46.333333333333336</ele><time>2026-04-08T15:24:52Z</time></trkpt><trkpt lat="50.96056487444064" lon="4.890033114745612"><ele>46.0</ele><time>2026-04-08T15:24:53Z</time></trkpt><trkpt lat="50.96054473355968" lon="4.890390116446352"><ele>44.66666666666667</ele><time>2026-04-08T15:24:54Z</time></trkpt><trkpt lat="50.960539815728616" lon="4.890749631911836"><ele>43.333333333333336</ele><time>2026-04-08T15:24:55Z</time></trkpt><trkpt lat="50.96054439953105" lon="4.891103618947101"><ele>42.0</ele><time>2026-04-08T15:24:56Z</time></trkpt><trkpt lat="50.960548504144704" lon="4.891451308374575"><ele>36.5</ele><time>2026-04-08T15:24:57Z</time></trkpt><trkpt lat="50.96054280615864" lon="4.891813728643431"><ele>31.0</ele><time>2026-04-08T15:24:58Z</time></trkpt><trkpt lat="50.96052958975992" lon="4.892168413268571"><ele>31.0</ele><time>2026-04-08T15:24:59Z</time></trkpt><trkpt lat="50.96049871898482" lon="4.892521449587673"><ele>31.0</ele><time>2026-04-08T15:25:00Z</time></trkpt><trkpt lat="50.96048194033588" lon="4.892878407523691"><ele>30.0</ele><time>2026-04-08T15:25:01Z</time></trkpt><trkpt lat="50.96048313133873" lon="4.893238408202413"><ele>29.0</ele><time>2026-04-08T15:25:02Z</time></trkpt><trkpt lat="50.9604740719458" lon="4.893580303227482"><ele>28.0</ele><time>2026-04-08T15:25:03Z</time></trkpt><trkpt lat="50.960449488002766" lon="4.893947159500593"><ele>27.666666666666668</ele><time>2026-04-08T15:25:04Z</time></trkpt><trkpt lat="50.960439144163374" lon="4.894285504597448"><ele>27.333333333333336</ele><time>2026-04-08T15:25:05Z</time></trkpt><trkpt lat="50.96044718187147" lon="4.894645081718604"><ele>27.0</ele><time>2026-04-08T15:25:06Z</time></trkpt><trkpt lat="50.96042179979603" lon="4.89499417465323"><ele>26.0</ele><time>2026-04-08T15:25:07Z</time></trkpt><trkpt lat="50.96041315519721" lon="4.89534749731408"><ele>25.0</ele><time>2026-04-08T15:25:08Z</time></trkpt><trkpt lat="50.960418900607465" lon="4.89570965555932"><ele>24.0</ele><time>2026-04-08T15:25:09Z</time></trkpt><trkpt lat="50.96039085315408" lon="4.896057170770186"><ele>23.0</ele><time>2026-04-08T15:25:10Z</time></trkpt><trkpt lat="50.96037927947798" lon="4.8964127140630005"><ele>22.0</ele><time>2026-04-08T15:25:11Z</time></trkpt><trkpt lat="50.96037144581011" lon="4.896760072896049"><ele>21.333333333333332</ele><time>2026-04-08T15:25:12Z</time></trkpt><trkpt lat="50.96036780723949" lon="4.897072778717357"><ele>20.666666666666668</ele><time>2026-04-08T15:25:13Z</time></trkpt><trkpt lat="50.960361471851904" lon="4.897370473569979"><ele>20.0</ele><time>2026-04-08T15:25:14Z</time></trkpt><trkpt lat="50.960351847130696" lon="4.89767561520622"><ele>20.0</ele><time>2026-04-08T15:25:15Z</time></trkpt><trkpt lat="50.960360165811196" lon="4.89792501949199"><ele>20.0</ele><time>2026-04-08T15:25:16Z</time></trkpt><trkpt lat="50.960354284938745" lon="4.898148253455758"><ele>20.0</ele><time>2026-04-08T15:25:17Z</time></trkpt><trkpt lat="50.9603485031503" lon="4.898333703247114"><ele>20.0</ele><time>2026-04-08T15:25:18Z</time></trkpt><trkpt lat="50.96034004213855" lon="4.898501514254779"><ele>20.0</ele><time>2026-04-08T15:25:19Z</time></trkpt><trkpt lat="50.96032100571455" lon="4.8986458845305245"><ele>20.0</ele><time>2026-04-08T15:25:20Z</time></trkpt><trkpt lat="50.96031683715445" lon="4.898752182826068"><ele>20.0</ele><time>2026-04-08T15:25:21Z</time></trkpt><trkpt lat="50.960311814981935" lon="4.8988836781149825"><ele>20.0</ele><time>2026-04-08T15:25:23Z</time></trkpt><trkpt lat="50.96030730215256" lon="4.899004741041149"><ele>20.0</ele><time>2026-04-08T15:25:25Z</time></trkpt><trkpt lat="50.960302987187966" lon="4.899120496039298"><ele>20.0</ele><time>2026-04-08T15:25:28Z</time></trkpt><trkpt lat="50.96031260127965" lon="4.899221696840573"><ele>20.0</ele><time>2026-04-08T15:25:29.999Z</time></trkpt><trkpt lat="50.960300177812265" lon="4.89941583752845"><ele>20.0</ele><time>2026-04-08T15:25:31.999Z</time></trkpt><trkpt lat="50.960284795576534" lon="4.899608478348251"><ele>20.0</ele><time>2026-04-08T15:25:33.999Z</time></trkpt><trkpt lat="50.96030184527048" lon="4.899773660328915"><ele>20.0</ele><time>2026-04-08T15:25:34.999Z</time></trkpt><trkpt lat="50.96029185568944" lon="4.8999595494005845"><ele>20.75</ele><time>2026-04-08T15:25:35.999Z</time></trkpt><trkpt lat="50.96028286725968" lon="4.900153888739729"><ele>21.5</ele><time>2026-04-08T15:25:36.999Z</time></trkpt><trkpt lat="50.96027349767671" lon="4.900370317167499"><ele>22.25</ele><time>2026-04-08T15:25:37.999Z</time></trkpt><trkpt lat="50.96026794076266" lon="4.900590354866361"><ele>23.0</ele><time>2026-04-08T15:25:38.999Z</time></trkpt><trkpt lat="50.960261174970405" lon="4.900819093843835"><ele>24.0</ele><time>2026-04-08T15:25:39.999Z</time></trkpt><trkpt lat="50.960253753672134" lon="4.901057433031688"><ele>25.0</ele><time>2026-04-08T15:25:40.999Z</time></trkpt><trkpt lat="50.960243800861576" lon="4.901311110077583"><ele>26.0</ele><time>2026-04-08T15:25:41.999Z</time></trkpt><trkpt lat="50.96023271905901" lon="4.901569457670531"><ele>25.666666666666664</ele><time>2026-04-08T15:25:42.999Z</time></trkpt><trkpt lat="50.96021954002857" lon="4.901835592114723"><ele>25.333333333333336</ele><time>2026-04-08T15:25:43.999Z</time></trkpt><trkpt lat="50.96020627113961" lon="4.902113830831212"><ele>25.0</ele><time>2026-04-08T15:25:44.999Z</time></trkpt><trkpt lat="50.96020395790684" lon="4.902393933208097"><ele>25.666666666666668</ele><time>2026-04-08T15:25:45.999Z</time></trkpt><trkpt lat="50.960196226810716" lon="4.902671399916673"><ele>26.333333333333336</ele><time>2026-04-08T15:25:46.999Z</time></trkpt><trkpt lat="50.96018063518629" lon="4.9029439557069585"><ele>27.0</ele><time>2026-04-08T15:25:47.999Z</time></trkpt><trkpt lat="50.96015415265251" lon="4.903226098430179"><ele>28.0</ele><time>2026-04-08T15:25:48.999Z</time></trkpt><trkpt lat="50.96011947583907" lon="4.90350127756743"><ele>29.0</ele><time>2026-04-08T15:25:49.999Z</time></trkpt><trkpt lat="50.960094257932305" lon="4.903779751877932"><ele>30.0</ele><time>2026-04-08T15:25:50.999Z</time></trkpt><trkpt lat="50.96009558341813" lon="4.904067338871092"><ele>30.25</ele><time>2026-04-08T15:25:51.999Z</time></trkpt><trkpt lat="50.96006082745284" lon="4.904316595751033"><ele>30.5</ele><time>2026-04-08T15:25:52.999Z</time></trkpt><trkpt lat="50.96005190136951" lon="4.904541926713377"><ele>30.75</ele><time>2026-04-08T15:25:53.999Z</time></trkpt><trkpt lat="50.96004262358564" lon="4.90477323791617"><ele>31.0</ele><time>2026-04-08T15:25:54.999Z</time></trkpt><trkpt lat="50.96003393507448" lon="4.905001971811806"><ele>29.75</ele><time>2026-04-08T15:25:55.999Z</time></trkpt><trkpt lat="50.96002573468241" lon="4.905226276652825"><ele>28.5</ele><time>2026-04-08T15:25:56.999Z</time></trkpt><trkpt lat="50.96003286371263" lon="4.905434113390304"><ele>27.25</ele><time>2026-04-08T15:25:57.999Z</time></trkpt><trkpt lat="50.96002305946397" lon="4.905641422276355"><ele>26.0</ele><time>2026-04-08T15:25:58.999Z</time></trkpt><trkpt lat="50.959999633499635" lon="4.905841720296317"><ele>26.5</ele><time>2026-04-08T15:25:59.999Z</time></trkpt><trkpt lat="50.9599920021886" lon="4.906035925550618"><ele>27.0</ele><time>2026-04-08T15:26:00.999Z</time></trkpt><trkpt lat="50.959997006082816" lon="4.9062390420728015"><ele>27.5</ele><time>2026-04-08T15:26:01.999Z</time></trkpt><trkpt lat="50.95998276189184" lon="4.906442293235418"><ele>28.0</ele><time>2026-04-08T15:26:02.999Z</time></trkpt><trkpt lat="50.95996919319604" lon="4.906644635613746"><ele>28.25</ele><time>2026-04-08T15:26:03.999Z</time></trkpt><trkpt lat="50.95996642682248" lon="4.906857744121058"><ele>28.5</ele><time>2026-04-08T15:26:04.999Z</time></trkpt><trkpt lat="50.959956710943125" lon="4.907073022528469"><ele>28.75</ele><time>2026-04-08T15:26:05.999Z</time></trkpt><trkpt lat="50.95994880522915" lon="4.907279060109379"><ele>29.0</ele><time>2026-04-08T15:26:06.999Z</time></trkpt><trkpt lat="50.959948809221" lon="4.907473738419263"><ele>29.25</ele><time>2026-04-08T15:26:07.999Z</time></trkpt><trkpt lat="50.959945100820455" lon="4.907668572823219"><ele>29.5</ele><time>2026-04-08T15:26:08.999Z</time></trkpt><trkpt lat="50.95992957639923" lon="4.907873017755351"><ele>29.75</ele><time>2026-04-08T15:26:09.999Z</time></trkpt><trkpt lat="50.959917742081586" lon="4.908087243815178"><ele>30.0</ele><time>2026-04-08T15:26:10.999Z</time></trkpt><trkpt lat="50.95990710661425" lon="4.9083065191656265"><ele>30.5</ele><time>2026-04-08T15:26:11.999Z</time></trkpt><trkpt lat="50.95989811147754" lon="4.908525809900904"><ele>31.0</ele><time>2026-04-08T15:26:12.999Z</time></trkpt><trkpt lat="50.95988694005961" lon="4.908748595988726"><ele>31.5</ele><time>2026-04-08T15:26:13.999Z</time></trkpt><trkpt lat="50.959866976570154" lon="4.908977901169476"><ele>32.0</ele><time>2026-04-08T15:26:14.999Z</time></trkpt><trkpt lat="50.95984427037294" lon="4.909211136920076"><ele>32.0</ele><time>2026-04-08T15:26:15.999Z</time></trkpt><trkpt lat="50.95983525348938" lon="4.909450224433764"><ele>32.0</ele><time>2026-04-08T15:26:16.999Z</time></trkpt><trkpt lat="50.95982177437369" lon="4.909685595272281"><ele>32.0</ele><time>2026-04-08T15:26:17.999Z</time></trkpt><trkpt lat="50.95980621744677" lon="4.909923669017471"><ele>30.666666666666664</ele><time>2026-04-08T15:26:18.999Z</time></trkpt><trkpt lat="50.959795796843316" lon="4.910165956152784"><ele>29.333333333333336</ele><time>2026-04-08T15:26:19.999Z</time></trkpt><trkpt lat="50.95976538533392" lon="4.910408120207651"><ele>28.0</ele><time>2026-04-08T15:26:20.999Z</time></trkpt><trkpt lat="50.95974543239332" lon="4.91065375638645"><ele>28.0</ele><time>2026-04-08T15:26:21.999Z</time></trkpt><trkpt lat="50.95973529224427" lon="4.91087452484232"><ele>28.0</ele><time>2026-04-08T15:26:22.999Z</time></trkpt><trkpt lat="50.95972043797974" lon="4.911119814457566"><ele>28.0</ele><time>2026-04-08T15:26:23.999Z</time></trkpt><trkpt lat="50.95970897364583" lon="4.9113609023588705"><ele>28.0</ele><time>2026-04-08T15:26:24.999Z</time></trkpt><trkpt lat="50.95969461779577" lon="4.911593008009655"><ele>28.0</ele><time>2026-04-08T15:26:25.999Z</time></trkpt><trkpt lat="50.959670216913786" lon="4.911833097053357"><ele>28.0</ele><time>2026-04-08T15:26:26.999Z</time></trkpt><trkpt lat="50.959652934518246" lon="4.912081382269052"><ele>28.0</ele><time>2026-04-08T15:26:27.999Z</time></trkpt><trkpt lat="50.9596317301365" lon="4.912321599112947"><ele>29.0</ele><time>2026-04-08T15:26:28.999Z</time></trkpt><trkpt lat="50.959606727507605" lon="4.9125778446876485"><ele>30.0</ele><time>2026-04-08T15:26:29.999Z</time></trkpt><trkpt lat="50.959574077613205" lon="4.912817772413087"><ele>31.0</ele><time>2026-04-08T15:26:30.999Z</time></trkpt><trkpt lat="50.959548043712324" lon="4.913058216232201"><ele>31.0</ele><time>2026-04-08T15:26:31.999Z</time></trkpt><trkpt lat="50.95952651254115" lon="4.91329842941353"><ele>31.0</ele><time>2026-04-08T15:26:32.999Z</time></trkpt><trkpt lat="50.95949823026738" lon="4.913540801294281"><ele>31.0</ele><time>2026-04-08T15:26:33.999Z</time></trkpt><trkpt lat="50.959468451267725" lon="4.913779822967105"><ele>32.0</ele><time>2026-04-08T15:26:34.998Z</time></trkpt><trkpt lat="50.95943064006599" lon="4.9140261667811895"><ele>33.0</ele><time>2026-04-08T15:26:35.998Z</time></trkpt><trkpt lat="50.95939137324214" lon="4.9142644772919795"><ele>34.0</ele><time>2026-04-08T15:26:37Z</time></trkpt><trkpt lat="50.95938906846039" lon="4.914509627034031"><ele>34.5</ele><time>2026-04-08T15:26:38Z</time></trkpt><trkpt lat="50.95935504544433" lon="4.9147458558496915"><ele>35.0</ele><time>2026-04-08T15:26:39Z</time></trkpt><trkpt lat="50.959323357879875" lon="4.914981955196668"><ele>35.5</ele><time>2026-04-08T15:26:40Z</time></trkpt><trkpt lat="50.95930528012149" lon="4.915201811463016"><ele>36.0</ele><time>2026-04-08T15:26:41Z</time></trkpt><trkpt lat="50.959273425819056" lon="4.9154087582632835"><ele>37.25</ele><time>2026-04-08T15:26:42Z</time></trkpt><trkpt lat="50.95925112997717" lon="4.915631163027246"><ele>38.5</ele><time>2026-04-08T15:26:43Z</time></trkpt><trkpt lat="50.959205502328295" lon="4.915848309057456"><ele>39.75</ele><time>2026-04-08T15:26:44Z</time></trkpt><trkpt lat="50.95917602028836" lon="4.916072448071432"><ele>41.0</ele><time>2026-04-08T15:26:45Z</time></trkpt><trkpt lat="50.959171850483486" lon="4.916313267944008"><ele>42.0</ele><time>2026-04-08T15:26:46Z</time></trkpt><trkpt lat="50.959157164572275" lon="4.9165403615893135"><ele>43.0</ele><time>2026-04-08T15:26:47Z</time></trkpt><trkpt lat="50.95916494340305" lon="4.91675885649681"><ele>44.0</ele><time>2026-04-08T15:26:48Z</time></trkpt><trkpt lat="50.95918299015627" lon="4.916965314627302"><ele>45.0</ele><time>2026-04-08T15:26:49Z</time></trkpt><trkpt lat="50.959174670546616" lon="4.9171470128946675"><ele>46.25</ele><time>2026-04-08T15:26:50Z</time></trkpt><trkpt lat="50.95917052279808" lon="4.917366350083905"><ele>47.5</ele><time>2026-04-08T15:26:51Z</time></trkpt><trkpt lat="50.959168202744266" lon="4.917584072125818"><ele>48.75</ele><time>2026-04-08T15:26:52Z</time></trkpt><trkpt lat="50.9591444741331" lon="4.917798373290475"><ele>50.0</ele><time>2026-04-08T15:26:53Z</time></trkpt><trkpt lat="50.9591306276482" lon="4.918021421400594"><ele>50.333333333333336</ele><time>2026-04-08T15:26:54Z</time></trkpt><trkpt lat="50.959125330143515" lon="4.918255375203672"><ele>50.66666666666667</ele><time>2026-04-08T15:26:55Z</time></trkpt><trkpt lat="50.95909869572886" lon="4.918489492523488"><ele>51.0</ele><time>2026-04-08T15:26:56Z</time></trkpt><trkpt lat="50.959076020218596" lon="4.918731529619149"><ele>51.0</ele><time>2026-04-08T15:26:57Z</time></trkpt><trkpt lat="50.95905503138194" lon="4.918979362071783"><ele>51.0</ele><time>2026-04-08T15:26:58Z</time></trkpt><trkpt lat="50.95903542598439" lon="4.919226378934831"><ele>51.0</ele><time>2026-04-08T15:26:59Z</time></trkpt><trkpt lat="50.95901717178666" lon="4.919462678398079"><ele>51.5</ele><time>2026-04-08T15:27:00Z</time></trkpt><trkpt lat="50.959014797773484" lon="4.919698432041583"><ele>52.0</ele><time>2026-04-08T15:27:01Z</time></trkpt><trkpt lat="50.958979667952796" lon="4.919929533789382"><ele>52.5</ele><time>2026-04-08T15:27:02Z</time></trkpt><trkpt lat="50.95897580358719" lon="4.920166209267308"><ele>53.0</ele><time>2026-04-08T15:27:03Z</time></trkpt><trkpt lat="50.958955093565066" lon="4.920397732594951"><ele>53.66666666666667</ele><time>2026-04-08T15:27:04Z</time></trkpt><trkpt lat="50.95891835089372" lon="4.9206336803502175"><ele>54.33333333333333</ele><time>2026-04-08T15:27:05Z</time></trkpt><trkpt lat="50.95889667812025" lon="4.920874063244313"><ele>55.0</ele><time>2026-04-08T15:27:06Z</time></trkpt><trkpt lat="50.95887430353729" lon="4.9211113087081175"><ele>55.25</ele><time>2026-04-08T15:27:07Z</time></trkpt><trkpt lat="50.95885338416026" lon="4.921323070749802"><ele>55.5</ele><time>2026-04-08T15:27:08Z</time></trkpt><trkpt lat="50.95883914584994" lon="4.921510150910407"><ele>55.75</ele><time>2026-04-08T15:27:09Z</time></trkpt><trkpt lat="50.95884609353084" lon="4.921688612597314"><ele>56.0</ele><time>2026-04-08T15:27:10Z</time></trkpt><trkpt lat="50.958860384545055" lon="4.92185976449076"><ele>56.5</ele><time>2026-04-08T15:27:11Z</time></trkpt><trkpt lat="50.95892119304922" lon="4.922023768149536"><ele>57.0</ele><time>2026-04-08T15:27:12Z</time></trkpt><trkpt lat="50.95898601899405" lon="4.922190283624676"><ele>57.5</ele><time>2026-04-08T15:27:13Z</time></trkpt><trkpt lat="50.95902459943491" lon="4.922355342805068"><ele>58.0</ele><time>2026-04-08T15:27:14Z</time></trkpt><trkpt lat="50.95906657711953" lon="4.922512648539839"><ele>57.75</ele><time>2026-04-08T15:27:15Z</time></trkpt><trkpt lat="50.9591170931349" lon="4.922675383895042"><ele>57.5</ele><time>2026-04-08T15:27:16Z</time></trkpt><trkpt lat="50.95911333108798" lon="4.922837325708393"><ele>57.25</ele><time>2026-04-08T15:27:17Z</time></trkpt><trkpt lat="50.959129721292385" lon="4.923034931558476"><ele>57.0</ele><time>2026-04-08T15:27:18Z</time></trkpt><trkpt lat="50.95914434054234" lon="4.923221020709354"><ele>56.0</ele><time>2026-04-08T15:27:19Z</time></trkpt><trkpt lat="50.95916584108774" lon="4.923422722562428"><ele>55.0</ele><time>2026-04-08T15:27:20Z</time></trkpt><trkpt lat="50.959189090290266" lon="4.923628291766029"><ele>54.0</ele><time>2026-04-08T15:27:21Z</time></trkpt><trkpt lat="50.9592087194302" lon="4.923813574378865"><ele>53.0</ele><time>2026-04-08T15:27:22Z</time></trkpt><trkpt lat="50.959222562401045" lon="4.923971214690383"><ele>52.66666666666667</ele><time>2026-04-08T15:27:23Z</time></trkpt><trkpt lat="50.95923534998133" lon="4.924110732466063"><ele>52.333333333333336</ele><time>2026-04-08T15:27:24Z</time></trkpt><trkpt lat="50.95924708662298" lon="4.924231603090454"><ele>52.0</ele><time>2026-04-08T15:27:25Z</time></trkpt><trkpt lat="50.95926763803416" lon="4.9243658447494445"><ele>51.66666666666667</ele><time>2026-04-08T15:27:27Z</time></trkpt><trkpt lat="50.95927326808148" lon="4.924520243845446"><ele>51.333333333333336</ele><time>2026-04-08T15:27:32.999Z</time></trkpt><trkpt lat="50.959282376150284" lon="4.924621766720135"><ele>51.0</ele><time>2026-04-08T15:27:33.999Z</time></trkpt><trkpt lat="50.95929333466802" lon="4.9247418605117"><ele>50.8</ele><time>2026-04-08T15:27:34.999Z</time></trkpt><trkpt lat="50.959306250413924" lon="4.9248820308116095"><ele>50.599999999999994</ele><time>2026-04-08T15:27:35.999Z</time></trkpt><trkpt lat="50.959321215849094" lon="4.9250444454453906"><ele>50.4</ele><time>2026-04-08T15:27:36.999Z</time></trkpt><trkpt lat="50.959336589194265" lon="4.925222378223092"><ele>50.2</ele><time>2026-04-08T15:27:37.999Z</time></trkpt><trkpt lat="50.95935236208404" lon="4.925407197765821"><ele>50.0</ele><time>2026-04-08T15:27:38.999Z</time></trkpt><trkpt lat="50.95936968342448" lon="4.92561446488887"><ele>49.75</ele><time>2026-04-08T15:27:39.999Z</time></trkpt><trkpt lat="50.95938743052554" lon="4.925830657006045"><ele>49.5</ele><time>2026-04-08T15:27:40.999Z</time></trkpt><trkpt lat="50.95940453564523" lon="4.92603698731287"><ele>49.25</ele><time>2026-04-08T15:27:41.999Z</time></trkpt><trkpt lat="50.95942532629529" lon="4.926263020498062"><ele>49.0</ele><time>2026-04-08T15:27:42.999Z</time></trkpt><trkpt lat="50.95944613077349" lon="4.926485026243952"><ele>48.75</ele><time>2026-04-08T15:27:43.999Z</time></trkpt><trkpt lat="50.95946795372851" lon="4.926717990074756"><ele>48.5</ele><time>2026-04-08T15:27:44.999Z</time></trkpt><trkpt lat="50.959487020529444" lon="4.926943326818609"><ele>48.25</ele><time>2026-04-08T15:27:45.999Z</time></trkpt><trkpt lat="50.95952537428393" lon="4.92716919628179"><ele>48.0</ele><time>2026-04-08T15:27:46.999Z</time></trkpt><trkpt lat="50.9595473207349" lon="4.927392831136682"><ele>48.0</ele><time>2026-04-08T15:27:47.999Z</time></trkpt><trkpt lat="50.95955284223566" lon="4.92761413941515"><ele>48.0</ele><time>2026-04-08T15:27:48.999Z</time></trkpt><trkpt lat="50.95957300476566" lon="4.927833974360348"><ele>48.0</ele><time>2026-04-08T15:27:49.999Z</time></trkpt><trkpt lat="50.95959014197351" lon="4.928054286203488"><ele>48.0</ele><time>2026-04-08T15:27:50.999Z</time></trkpt><trkpt lat="50.95960859647448" lon="4.928273421435711"><ele>48.0</ele><time>2026-04-08T15:27:51.999Z</time></trkpt><trkpt lat="50.959624974044324" lon="4.928491283416145"><ele>48.0</ele><time>2026-04-08T15:27:52.999Z</time></trkpt><trkpt lat="50.95964782849374" lon="4.928706611736156"><ele>48.0</ele><time>2026-04-08T15:27:53.999Z</time></trkpt><trkpt lat="50.95967015652904" lon="4.9289161758215485"><ele>48.0</ele><time>2026-04-08T15:27:54.999Z</time></trkpt><trkpt lat="50.9596951478283" lon="4.929113254592378"><ele>48.25</ele><time>2026-04-08T15:27:55.999Z</time></trkpt><trkpt lat="50.95971657500368" lon="4.929300697085142"><ele>48.5</ele><time>2026-04-08T15:27:56.999Z</time></trkpt><trkpt lat="50.95973418965027" lon="4.929484805003914"><ele>48.75</ele><time>2026-04-08T15:27:57.999Z</time></trkpt><trkpt lat="50.959751322178015" lon="4.929658435504704"><ele>49.0</ele><time>2026-04-08T15:27:58.999Z</time></trkpt><trkpt lat="50.95977813691292" lon="4.929817073311405"><ele>49.0</ele><time>2026-04-08T15:27:59.999Z</time></trkpt><trkpt lat="50.95982292859197" lon="4.929976936520903"><ele>49.0</ele><time>2026-04-08T15:28:00.999Z</time></trkpt><trkpt lat="50.959890891251376" lon="4.930113214935062"><ele>49.0</ele><time>2026-04-08T15:28:01.999Z</time></trkpt><trkpt lat="50.960026692116614" lon="4.930123852670851"><ele>49.0</ele><time>2026-04-08T15:28:02.999Z</time></trkpt><trkpt lat="50.960123066399724" lon="4.93012523019015"><ele>48.83333333333333</ele><time>2026-04-08T15:28:03.999Z</time></trkpt><trkpt lat="50.96018735643287" lon="4.930172452740673"><ele>48.666666666666664</ele><time>2026-04-08T15:28:04.999Z</time></trkpt><trkpt lat="50.96022497164733" lon="4.930289418787348"><ele>48.5</ele><time>2026-04-08T15:28:05.999Z</time></trkpt><trkpt lat="50.960241505667064" lon="4.930430332314157"><ele>48.33333333333333</ele><time>2026-04-08T15:28:06.999Z</time></trkpt><trkpt lat="50.96021501755862" lon="4.930541950164999"><ele>48.166666666666664</ele><time>2026-04-08T15:28:07.999Z</time></trkpt><trkpt lat="50.96016210528621" lon="4.930641451012027"><ele>48.0</ele><time>2026-04-08T15:28:08.999Z</time></trkpt><trkpt lat="50.9599782815649" lon="4.9306837417945415"><ele>48.5</ele><time>2026-04-08T15:28:10.999Z</time></trkpt><trkpt lat="50.959874356084754" lon="4.930655203574312"><ele>49.0</ele><time>2026-04-08T15:28:11.999Z</time></trkpt><trkpt lat="50.95976331825604" lon="4.930632547390887"><ele>49.5</ele><time>2026-04-08T15:28:12.999Z</time></trkpt><trkpt lat="50.9596328406909" lon="4.930619561228816"><ele>50.0</ele><time>2026-04-08T15:28:13.999Z</time></trkpt><trkpt lat="50.95948640973536" lon="4.930608986040395"><ele>50.0</ele><time>2026-04-08T15:28:14.999Z</time></trkpt><trkpt lat="50.959334605122095" lon="4.9305955807037485"><ele>50.0</ele><time>2026-04-08T15:28:15.999Z</time></trkpt><trkpt lat="50.959171673931024" lon="4.930578738235575"><ele>50.0</ele><time>2026-04-08T15:28:16.999Z</time></trkpt><trkpt lat="50.95900775935363" lon="4.930565946744777"><ele>49.66666666666667</ele><time>2026-04-08T15:28:17.999Z</time></trkpt><trkpt lat="50.95883115472116" lon="4.93055857000269"><ele>49.33333333333333</ele><time>2026-04-08T15:28:18.999Z</time></trkpt><trkpt lat="50.95865460293379" lon="4.930548377070408"><ele>49.0</ele><time>2026-04-08T15:28:19.999Z</time></trkpt><trkpt lat="50.9584713456336" lon="4.930538223836258"><ele>49.666666666666664</ele><time>2026-04-08T15:28:20.999Z</time></trkpt><trkpt lat="50.95828276280023" lon="4.93052435468497"><ele>50.33333333333333</ele><time>2026-04-08T15:28:21.999Z</time></trkpt><trkpt lat="50.95811179881303" lon="4.930509448479807"><ele>51.0</ele><time>2026-04-08T15:28:22.999Z</time></trkpt><trkpt lat="50.957938417954665" lon="4.930492453644463"><ele>51.0</ele><time>2026-04-08T15:28:23.999Z</time></trkpt><trkpt lat="50.957773312434945" lon="4.930480559660087"><ele>51.0</ele><time>2026-04-08T15:28:24.999Z</time></trkpt><trkpt lat="50.95760571414848" lon="4.930469254464695"><ele>51.0</ele><time>2026-04-08T15:28:25.999Z</time></trkpt><trkpt lat="50.957448697196114" lon="4.93045697450459"><ele>51.66666666666667</ele><time>2026-04-08T15:28:26.999Z</time></trkpt><trkpt lat="50.957273133994676" lon="4.930442716167241"><ele>52.333333333333336</ele><time>2026-04-08T15:28:27.999Z</time></trkpt><trkpt lat="50.95710856756174" lon="4.930416597002062"><ele>53.0</ele><time>2026-04-08T15:28:28.999Z</time></trkpt><trkpt lat="50.95694225299318" lon="4.930397579857861"><ele>53.0</ele><time>2026-04-08T15:28:29.999Z</time></trkpt><trkpt lat="50.95677273111903" lon="4.930375339366008"><ele>53.0</ele><time>2026-04-08T15:28:30.999Z</time></trkpt><trkpt lat="50.95661334719845" lon="4.930351088296773"><ele>53.0</ele><time>2026-04-08T15:28:31.999Z</time></trkpt><trkpt lat="50.956455326111424" lon="4.930328204008126"><ele>52.25</ele><time>2026-04-08T15:28:32.999Z</time></trkpt><trkpt lat="50.956306388928965" lon="4.930301243544618"><ele>51.5</ele><time>2026-04-08T15:28:33.999Z</time></trkpt><trkpt lat="50.95616285334503" lon="4.930283065389204"><ele>50.75</ele><time>2026-04-08T15:28:34.998Z</time></trkpt><trkpt lat="50.95603249490229" lon="4.93027821345718"><ele>50.0</ele><time>2026-04-08T15:28:35.998Z</time></trkpt><trkpt lat="50.955912428703684" lon="4.930294482170744"><ele>49.0</ele><time>2026-04-08T15:28:36.998Z</time></trkpt><trkpt lat="50.95580175758005" lon="4.930261817299578"><ele>48.0</ele><time>2026-04-08T15:28:37.998Z</time></trkpt><trkpt lat="50.95571022095816" lon="4.930252356814386"><ele>47.0</ele><time>2026-04-08T15:28:38.998Z</time></trkpt><trkpt lat="50.95563188753157" lon="4.930244307645132"><ele>46.0</ele><time>2026-04-08T15:28:39.998Z</time></trkpt><trkpt lat="50.955556220292706" lon="4.930237245358728"><ele>45.0</ele><time>2026-04-08T15:28:40.998Z</time></trkpt><trkpt lat="50.95545498992002" lon="4.930232147574698"><ele>45.0</ele><time>2026-04-08T15:28:41.998Z</time></trkpt><trkpt lat="50.95532961950731" lon="4.930208877124097"><ele>45.0</ele><time>2026-04-08T15:28:43Z</time></trkpt><trkpt lat="50.955203338333625" lon="4.930196606620892"><ele>45.0</ele><time>2026-04-08T15:28:44Z</time></trkpt><trkpt lat="50.95510425104903" lon="4.930186839587765"><ele>45.0</ele><time>2026-04-08T15:28:45Z</time></trkpt><trkpt lat="50.95503212933757" lon="4.930179294686191"><ele>45.0</ele><time>2026-04-08T15:28:46Z</time></trkpt><trkpt lat="50.95493023961161" lon="4.9303775817918325"><ele>45.0</ele><time>2026-04-08T15:28:49Z</time></trkpt><trkpt lat="50.95492391104885" lon="4.930594785787504"><ele>45.0</ele><time>2026-04-08T15:28:51Z</time></trkpt><trkpt lat="50.95512138025346" lon="4.930728636834524"><ele>45.0</ele><time>2026-04-08T15:28:52Z</time></trkpt><trkpt lat="50.95516435203296" lon="4.9308321521021785"><ele>45.0</ele><time>2026-04-08T15:28:53Z</time></trkpt><trkpt lat="50.95519567060138" lon="4.930925488705746"><ele>45.0</ele><time>2026-04-08T15:28:54Z</time></trkpt><trkpt lat="50.95523194233191" lon="4.931021511166332"><ele>45.0</ele><time>2026-04-08T15:28:55Z</time></trkpt><trkpt lat="50.95552604804105" lon="4.931074672307658"><ele>45.0</ele><time>2026-04-08T15:28:56Z</time></trkpt><trkpt lat="50.95554033920654" lon="4.931295984846575"><ele>45.0</ele><time>2026-04-08T15:28:58Z</time></trkpt><trkpt lat="50.95555481584739" lon="4.931411687931088"><ele>45.0</ele><time>2026-04-08T15:28:59Z</time></trkpt><trkpt lat="50.95558371290469" lon="4.931560370284226"><ele>45.0</ele><time>2026-04-08T15:29:00Z</time></trkpt><trkpt lat="50.95561820198756" lon="4.931697447807328"><ele>45.0</ele><time>2026-04-08T15:29:01Z</time></trkpt><trkpt lat="50.955659937526484" lon="4.931817836164719"><ele>45.0</ele><time>2026-04-08T15:29:02Z</time></trkpt><trkpt lat="50.955718576293606" lon="4.931976150951152"><ele>45.5</ele><time>2026-04-08T15:29:03Z</time></trkpt><trkpt lat="50.955772812647126" lon="4.932073874632477"><ele>46.0</ele><time>2026-04-08T15:29:04Z</time></trkpt><trkpt lat="50.95582882675123" lon="4.932155785561814"><ele>46.5</ele><time>2026-04-08T15:29:05Z</time></trkpt><trkpt lat="50.95588311598284" lon="4.932235322442106"><ele>47.0</ele><time>2026-04-08T15:29:06Z</time></trkpt><trkpt lat="50.95594369082559" lon="4.932306409265575"><ele>47.5</ele><time>2026-04-08T15:29:07Z</time></trkpt><trkpt lat="50.956014328023144" lon="4.932379914299203"><ele>48.0</ele><time>2026-04-08T15:29:08Z</time></trkpt><trkpt lat="50.956092938123916" lon="4.932458634594867"><ele>48.8</ele><time>2026-04-08T15:29:09Z</time></trkpt><trkpt lat="50.95616331304262" lon="4.932516050022547"><ele>49.599999999999994</ele><time>2026-04-08T15:29:10Z</time></trkpt><trkpt lat="50.95624115971269" lon="4.932577580449917"><ele>50.400000000000006</ele><time>2026-04-08T15:29:11Z</time></trkpt><trkpt lat="50.956334351248785" lon="4.932651370600509"><ele>51.2</ele><time>2026-04-08T15:29:12Z</time></trkpt><trkpt lat="50.95641720766449" lon="4.932717575304515"><ele>52.0</ele><time>2026-04-08T15:29:13Z</time></trkpt><trkpt lat="50.95649638235613" lon="4.932780838116859"><ele>52.0</ele><time>2026-04-08T15:29:14Z</time></trkpt><trkpt lat="50.95657574536123" lon="4.932846947989203"><ele>52.0</ele><time>2026-04-08T15:29:15Z</time></trkpt><trkpt lat="50.95666763224063" lon="4.932947228366748"><ele>52.0</ele><time>2026-04-08T15:29:16Z</time></trkpt><trkpt lat="50.95676367209431" lon="4.9330754973631725"><ele>52.0</ele><time>2026-04-08T15:29:17Z</time></trkpt><trkpt lat="50.95683447403605" lon="4.933193740746058"><ele>52.0</ele><time>2026-04-08T15:29:18Z</time></trkpt><trkpt lat="50.956894192069115" lon="4.933330738729639"><ele>51.99999999999999</ele><time>2026-04-08T15:29:19Z</time></trkpt><trkpt lat="50.95693259119733" lon="4.933447442908346"><ele>52.0</ele><time>2026-04-08T15:29:20Z</time></trkpt><trkpt lat="50.95696924120306" lon="4.9336003001707915"><ele>52.0</ele><time>2026-04-08T15:29:22Z</time></trkpt><trkpt lat="50.95698753531591" lon="4.933728018281893"><ele>52.0</ele><time>2026-04-08T15:29:24Z</time></trkpt><trkpt lat="50.9569970019124" lon="4.933838323519096"><ele>51.99999999999999</ele><time>2026-04-08T15:29:25Z</time></trkpt><trkpt lat="50.95700055158619" lon="4.933972824684458"><ele>52.0</ele><time>2026-04-08T15:29:26Z</time></trkpt><trkpt lat="50.95700134949245" lon="4.934104503438503"><ele>51.99999999999999</ele><time>2026-04-08T15:29:27Z</time></trkpt><trkpt lat="50.956999259245855" lon="4.934225224599174"><ele>52.0</ele><time>2026-04-08T15:29:28Z</time></trkpt><trkpt lat="50.95699630987445" lon="4.93433920888796"><ele>52.0</ele><time>2026-04-08T15:29:29Z</time></trkpt><trkpt lat="50.95699194076542" lon="4.934453107679392"><ele>52.0</ele><time>2026-04-08T15:29:30Z</time></trkpt><trkpt lat="50.95698379656036" lon="4.934611928610837"><ele>51.99999999999999</ele><time>2026-04-08T15:29:32Z</time></trkpt><trkpt lat="50.956971398203116" lon="4.934784581184771"><ele>52.0</ele><time>2026-04-08T15:29:33.999Z</time></trkpt><trkpt lat="50.95696065724306" lon="4.934887197253509"><ele>52.0</ele><time>2026-04-08T15:29:34.999Z</time></trkpt><trkpt lat="50.95695517837275" lon="4.9350167582617415"><ele>52.0</ele><time>2026-04-08T15:29:35.999Z</time></trkpt><trkpt lat="50.95691902859878" lon="4.935293522429875"><ele>52.0</ele><time>2026-04-08T15:29:37.999Z</time></trkpt><trkpt lat="50.95690596265236" lon="4.93543098131734"><ele>52.0</ele><time>2026-04-08T15:29:38.999Z</time></trkpt><trkpt lat="50.95689191031992" lon="4.935578812962958"><ele>52.0</ele><time>2026-04-08T15:29:39.999Z</time></trkpt><trkpt lat="50.95687918068813" lon="4.935712729621174"><ele>52.33333333333333</ele><time>2026-04-08T15:29:40.999Z</time></trkpt><trkpt lat="50.95686849950094" lon="4.935825096843378"><ele>52.666666666666664</ele><time>2026-04-08T15:29:41.999Z</time></trkpt><trkpt lat="50.95685787792519" lon="4.935941158154901"><ele>53.0</ele><time>2026-04-08T15:29:42.999Z</time></trkpt><trkpt lat="50.95684812302768" lon="4.936049976639968"><ele>53.33333333333333</ele><time>2026-04-08T15:29:43.999Z</time></trkpt><trkpt lat="50.9568373020518" lon="4.936170687234389"><ele>53.666666666666664</ele><time>2026-04-08T15:29:44.999Z</time></trkpt><trkpt lat="50.95682123598372" lon="4.936350565154088"><ele>54.0</ele><time>2026-04-08T15:29:46.999Z</time></trkpt><trkpt lat="50.95681027936284" lon="4.936478609629929"><ele>54.33333333333333</ele><time>2026-04-08T15:29:48.999Z</time></trkpt><trkpt lat="50.95676402234462" lon="4.936547489383871"><ele>54.666666666666664</ele><time>2026-04-08T15:29:50.999Z</time></trkpt><trkpt lat="50.9564258284412" lon="4.9365327348941666"><ele>55.0</ele><time>2026-04-08T15:29:51.999Z</time></trkpt><trkpt lat="50.956346249074194" lon="4.936594765896841"><ele>55.0</ele><time>2026-04-08T15:29:52.999Z</time></trkpt><trkpt lat="50.95626229890638" lon="4.93666140061441"><ele>55.0</ele><time>2026-04-08T15:29:53.999Z</time></trkpt><trkpt lat="50.95616088094664" lon="4.936743000680932"><ele>55.0</ele><time>2026-04-08T15:29:54.999Z</time></trkpt><trkpt lat="50.956063403153024" lon="4.936824528872634"><ele>55.0</ele><time>2026-04-08T15:29:55.999Z</time></trkpt><trkpt lat="50.9559542455965" lon="4.936906733254223"><ele>55.0</ele><time>2026-04-08T15:29:56.999Z</time></trkpt><trkpt lat="50.95582826451476" lon="4.936980264799173"><ele>54.25</ele><time>2026-04-08T15:29:57.999Z</time></trkpt><trkpt lat="50.95569513821416" lon="4.937049608504301"><ele>53.5</ele><time>2026-04-08T15:29:58.999Z</time></trkpt><trkpt lat="50.95555498617614" lon="4.937125256348103"><ele>52.75</ele><time>2026-04-08T15:29:59.999Z</time></trkpt><trkpt lat="50.95541032769401" lon="4.937210554954541"><ele>52.0</ele><time>2026-04-08T15:30:00.999Z</time></trkpt><trkpt lat="50.955268299504674" lon="4.937300762025983"><ele>52.0</ele><time>2026-04-08T15:30:01.999Z</time></trkpt><trkpt lat="50.95512579314878" lon="4.9373871156846105"><ele>52.0</ele><time>2026-04-08T15:30:02.999Z</time></trkpt><trkpt lat="50.95499413991056" lon="4.937459472133744"><ele>52.0</ele><time>2026-04-08T15:30:03.999Z</time></trkpt><trkpt lat="50.95487944514709" lon="4.937520456430357"><ele>52.0</ele><time>2026-04-08T15:30:04.999Z</time></trkpt><trkpt lat="50.954793032068075" lon="4.937567088968036"><ele>52.166666666666664</ele><time>2026-04-08T15:30:05.999Z</time></trkpt><trkpt lat="50.95471980168519" lon="4.937580115885778"><ele>52.33333333333333</ele><time>2026-04-08T15:30:06.999Z</time></trkpt><trkpt lat="50.95464278564008" lon="4.937646545523054"><ele>52.5</ele><time>2026-04-08T15:30:08.999Z</time></trkpt><trkpt lat="50.95464951413927" lon="4.937847402830446"><ele>52.66666666666667</ele><time>2026-04-08T15:30:11.999Z</time></trkpt><trkpt lat="50.95463693818223" lon="4.937948129037543"><ele>52.833333333333336</ele><time>2026-04-08T15:30:12.999Z</time></trkpt><trkpt lat="50.954641589427155" lon="4.93806220669"><ele>53.0</ele><time>2026-04-08T15:30:13.999Z</time></trkpt><trkpt lat="50.95464589759943" lon="4.938185775550339"><ele>53.0</ele><time>2026-04-08T15:30:14.999Z</time></trkpt><trkpt lat="50.95466515768272" lon="4.938333189028817"><ele>53.0</ele><time>2026-04-08T15:30:15.999Z</time></trkpt><trkpt lat="50.95465539529036" lon="4.938495979676852"><ele>53.0</ele><time>2026-04-08T15:30:16.999Z</time></trkpt><trkpt lat="50.954660962301226" lon="4.938677803963528"><ele>53.0</ele><time>2026-04-08T15:30:17.999Z</time></trkpt><trkpt lat="50.954668449158156" lon="4.938870495300177"><ele>53.0</ele><time>2026-04-08T15:30:18.999Z</time></trkpt><trkpt lat="50.954675891126335" lon="4.939058865190179"><ele>52.75</ele><time>2026-04-08T15:30:19.999Z</time></trkpt><trkpt lat="50.95470148595263" lon="4.939275924135351"><ele>52.5</ele><time>2026-04-08T15:30:20.999Z</time></trkpt><trkpt lat="50.95471222901271" lon="4.939496789418673"><ele>52.25</ele><time>2026-04-08T15:30:21.999Z</time></trkpt><trkpt lat="50.95473221016069" lon="4.9397314713866205"><ele>52.0</ele><time>2026-04-08T15:30:22.999Z</time></trkpt><trkpt lat="50.954747691896095" lon="4.939966815389867"><ele>51.666666666666664</ele><time>2026-04-08T15:30:23.999Z</time></trkpt><trkpt lat="50.95474837131107" lon="4.940208513682311"><ele>51.33333333333333</ele><time>2026-04-08T15:30:24.999Z</time></trkpt><trkpt lat="50.954765058477626" lon="4.9404521194959115"><ele>51.0</ele><time>2026-04-08T15:30:25.999Z</time></trkpt><trkpt lat="50.95478215814347" lon="4.940701747107482"><ele>50.66666666666667</ele><time>2026-04-08T15:30:26.999Z</time></trkpt><trkpt lat="50.954799643489615" lon="4.940956873260546"><ele>50.333333333333336</ele><time>2026-04-08T15:30:27.999Z</time></trkpt><trkpt lat="50.95481452265784" lon="4.941194358210184"><ele>50.0</ele><time>2026-04-08T15:30:28.999Z</time></trkpt><trkpt lat="50.95482529255689" lon="4.9414123516113495"><ele>50.0</ele><time>2026-04-08T15:30:29.999Z</time></trkpt><trkpt lat="50.954835158640186" lon="4.941638105351591"><ele>50.0</ele><time>2026-04-08T15:30:30.999Z</time></trkpt><trkpt lat="50.95486374757786" lon="4.941860327616714"><ele>50.0</ele><time>2026-04-08T15:30:31.999Z</time></trkpt><trkpt lat="50.95486232817637" lon="4.942087787804792"><ele>50.0</ele><time>2026-04-08T15:30:32.999Z</time></trkpt><trkpt lat="50.954878999044396" lon="4.942296654298014"><ele>49.8</ele><time>2026-04-08T15:30:33.999Z</time></trkpt><trkpt lat="50.95489000298721" lon="4.942469879227668"><ele>49.6</ele><time>2026-04-08T15:30:34.999Z</time></trkpt><trkpt lat="50.95490969345759" lon="4.942633942364132"><ele>49.400000000000006</ele><time>2026-04-08T15:30:35.999Z</time></trkpt><trkpt lat="50.95486407829593" lon="4.942795816075033"><ele>49.2</ele><time>2026-04-08T15:30:36.998Z</time></trkpt><trkpt lat="50.95480795666589" lon="4.942952719170597"><ele>49.0</ele><time>2026-04-08T15:30:37.998Z</time></trkpt><trkpt lat="50.95473926162376" lon="4.943113675119947"><ele>49.0</ele><time>2026-04-08T15:30:38.998Z</time></trkpt><trkpt lat="50.95466776747807" lon="4.943283992553361"><ele>49.0</ele><time>2026-04-08T15:30:39.998Z</time></trkpt><trkpt lat="50.9546019402985" lon="4.94346539870564"><ele>49.0</ele><time>2026-04-08T15:30:40.998Z</time></trkpt><trkpt lat="50.954554915204824" lon="4.943660940638309"><ele>49.0</ele><time>2026-04-08T15:30:41.998Z</time></trkpt><trkpt lat="50.954552920607455" lon="4.9438677404744675"><ele>48.75</ele><time>2026-04-08T15:30:42.998Z</time></trkpt><trkpt lat="50.95455312050492" lon="4.944072554490041"><ele>48.5</ele><time>2026-04-08T15:30:43.998Z</time></trkpt><trkpt lat="50.954566873578166" lon="4.9442897091631615"><ele>48.25</ele><time>2026-04-08T15:30:44.998Z</time></trkpt><trkpt lat="50.95457461482022" lon="4.944503490760794"><ele>48.0</ele><time>2026-04-08T15:30:45.998Z</time></trkpt><trkpt lat="50.954563971521" lon="4.9447231637932365"><ele>47.75</ele><time>2026-04-08T15:30:46.998Z</time></trkpt><trkpt lat="50.95457898604143" lon="4.944948165896999"><ele>47.5</ele><time>2026-04-08T15:30:48Z</time></trkpt><trkpt lat="50.95457700919117" lon="4.9451713118888385"><ele>47.25</ele><time>2026-04-08T15:30:49Z</time></trkpt><trkpt lat="50.95457421633805" lon="4.945397099320721"><ele>47.0</ele><time>2026-04-08T15:30:50Z</time></trkpt><trkpt lat="50.95457227164373" lon="4.94562728243382"><ele>46.666666666666664</ele><time>2026-04-08T15:30:51Z</time></trkpt><trkpt lat="50.95457212469456" lon="4.945861148653667"><ele>46.333333333333336</ele><time>2026-04-08T15:30:52Z</time></trkpt><trkpt lat="50.954574460954454" lon="4.946102216606505"><ele>46.0</ele><time>2026-04-08T15:30:53Z</time></trkpt><trkpt lat="50.9545772963678" lon="4.946348243716648"><ele>45.66666666666667</ele><time>2026-04-08T15:30:54Z</time></trkpt><trkpt lat="50.95457740629851" lon="4.946600856546264"><ele>45.333333333333336</ele><time>2026-04-08T15:30:55Z</time></trkpt><trkpt lat="50.95457941635636" lon="4.946847171552462"><ele>45.0</ele><time>2026-04-08T15:30:56Z</time></trkpt><trkpt lat="50.95458141223267" lon="4.9470818245140915"><ele>45.0</ele><time>2026-04-08T15:30:57Z</time></trkpt><trkpt lat="50.95457818549672" lon="4.947314046717585"><ele>45.0</ele><time>2026-04-08T15:30:58Z</time></trkpt><trkpt lat="50.95457967434004" lon="4.947542506895172"><ele>45.0</ele><time>2026-04-08T15:30:59Z</time></trkpt><trkpt lat="50.954578822587244" lon="4.947777684919592"><ele>45.0</ele><time>2026-04-08T15:31:00Z</time></trkpt><trkpt lat="50.95457216767746" lon="4.948020315652536"><ele>45.0</ele><time>2026-04-08T15:31:01Z</time></trkpt><trkpt lat="50.95456011880198" lon="4.948264754733197"><ele>45.0</ele><time>2026-04-08T15:31:02Z</time></trkpt><trkpt lat="50.954544888638125" lon="4.948518638802689"><ele>45.0</ele><time>2026-04-08T15:31:03Z</time></trkpt><trkpt lat="50.95453216456261" lon="4.948761626595169"><ele>45.0</ele><time>2026-04-08T15:31:04Z</time></trkpt><trkpt lat="50.95452432447236" lon="4.948979719275688"><ele>45.0</ele><time>2026-04-08T15:31:05Z</time></trkpt><trkpt lat="50.954538520577174" lon="4.9492008008031405"><ele>45.0</ele><time>2026-04-08T15:31:06Z</time></trkpt><trkpt lat="50.954587968741784" lon="4.94942042198961"><ele>45.0</ele><time>2026-04-08T15:31:07Z</time></trkpt><trkpt lat="50.954655881382934" lon="4.949636957826142"><ele>45.0</ele><time>2026-04-08T15:31:08Z</time></trkpt><trkpt lat="50.95472541428195" lon="4.949854227270587"><ele>45.0</ele><time>2026-04-08T15:31:09Z</time></trkpt><trkpt lat="50.95478600540059" lon="4.950086267100259"><ele>45.0</ele><time>2026-04-08T15:31:10Z</time></trkpt><trkpt lat="50.9548401220897" lon="4.950305801930541"><ele>44.75</ele><time>2026-04-08T15:31:11Z</time></trkpt><trkpt lat="50.954888518265435" lon="4.950508130844071"><ele>44.5</ele><time>2026-04-08T15:31:12Z</time></trkpt><trkpt lat="50.954937100317466" lon="4.950709442446579"><ele>44.25</ele><time>2026-04-08T15:31:13Z</time></trkpt><trkpt lat="50.95498289880906" lon="4.95089705908472"><ele>44.0</ele><time>2026-04-08T15:31:14Z</time></trkpt><trkpt lat="50.9550155325092" lon="4.951088846538459"><ele>43.75</ele><time>2026-04-08T15:31:15Z</time></trkpt><trkpt lat="50.95504430748074" lon="4.951285976163785"><ele>43.5</ele><time>2026-04-08T15:31:16Z</time></trkpt><trkpt lat="50.95507355271014" lon="4.951452968556512"><ele>43.25</ele><time>2026-04-08T15:31:17Z</time></trkpt><trkpt lat="50.95511022177881" lon="4.951634230233242"><ele>43.0</ele><time>2026-04-08T15:31:18Z</time></trkpt><trkpt lat="50.9551482820787" lon="4.951810944346395"><ele>43.0</ele><time>2026-04-08T15:31:19Z</time></trkpt><trkpt lat="50.955184665074604" lon="4.951999742415321"><ele>43.0</ele><time>2026-04-08T15:31:20Z</time></trkpt><trkpt lat="50.95521513810765" lon="4.95219302718911"><ele>43.0</ele><time>2026-04-08T15:31:21Z</time></trkpt><trkpt lat="50.95522185873903" lon="4.952360662327422"><ele>43.0</ele><time>2026-04-08T15:31:22Z</time></trkpt><trkpt lat="50.95520637475359" lon="4.952536772481318"><ele>42.0</ele><time>2026-04-08T15:31:23Z</time></trkpt><trkpt lat="50.9553400215323" lon="4.952746714160322"><ele>41.0</ele><time>2026-04-08T15:31:24Z</time></trkpt><trkpt lat="50.955330926762706" lon="4.9529393396189265"><ele>40.0</ele><time>2026-04-08T15:31:25Z</time></trkpt><trkpt lat="50.955322130667874" lon="4.953125540950202"><ele>39.0</ele><time>2026-04-08T15:31:26Z</time></trkpt><trkpt lat="50.955313590350215" lon="4.9533005378867285"><ele>39.0</ele><time>2026-04-08T15:31:27Z</time></trkpt><trkpt lat="50.9553052939467" lon="4.953474633071993"><ele>39.0</ele><time>2026-04-08T15:31:28Z</time></trkpt><trkpt lat="50.95529800980132" lon="4.953659063627802"><ele>39.0</ele><time>2026-04-08T15:31:29Z</time></trkpt><trkpt lat="50.95529056251229" lon="4.953847625398388"><ele>39.0</ele><time>2026-04-08T15:31:30Z</time></trkpt><trkpt lat="50.95528416827254" lon="4.954012496248"><ele>39.0</ele><time>2026-04-08T15:31:31Z</time></trkpt><trkpt lat="50.955277878178954" lon="4.954175467120809"><ele>39.4</ele><time>2026-04-08T15:31:32Z</time></trkpt><trkpt lat="50.95527152276406" lon="4.9543401300784025"><ele>39.8</ele><time>2026-04-08T15:31:33Z</time></trkpt><trkpt lat="50.95526558434216" lon="4.954498770842039"><ele>40.199999999999996</ele><time>2026-04-08T15:31:34Z</time></trkpt><trkpt lat="50.95526053415487" lon="4.954644791751873"><ele>40.599999999999994</ele><time>2026-04-08T15:31:35Z</time></trkpt><trkpt lat="50.95525539597162" lon="4.954794030450008"><ele>41.0</ele><time>2026-04-08T15:31:36Z</time></trkpt><trkpt lat="50.955251229846304" lon="4.954895538833149"><ele>41.0</ele><time>2026-04-08T15:31:36.999Z</time></trkpt><trkpt lat="50.955246714627904" lon="4.955022948983179"><ele>41.0</ele><time>2026-04-08T15:31:37.999Z</time></trkpt><trkpt lat="50.955242571792674" lon="4.9551418436241335"><ele>41.0</ele><time>2026-04-08T15:31:38.999Z</time></trkpt><trkpt lat="50.95523880890379" lon="4.955307466030397"><ele>41.0</ele><time>2026-04-08T15:31:40.999Z</time></trkpt><trkpt lat="50.95524344496407" lon="4.95511678501502"><ele>41.0</ele><time>2026-04-08T15:37:29Z</time></trkpt><trkpt lat="50.955230179408865" lon="4.955012328764131"><ele>41.0</ele><time>2026-04-08T15:37:29.999Z</time></trkpt><trkpt lat="50.95507493108928" lon="4.954904858576764"><ele>41.0</ele><time>2026-04-08T15:37:31.999Z</time></trkpt><trkpt lat="50.95507823627443" lon="4.954782046826913"><ele>41.0</ele><time>2026-04-08T15:37:34.999Z</time></trkpt><trkpt lat="50.955092638897476" lon="4.954599984721162"><ele>41.0</ele><time>2026-04-08T15:37:36.999Z</time></trkpt><trkpt lat="50.95509311234628" lon="4.954446156367242"><ele>41.0</ele><time>2026-04-08T15:37:38.999Z</time></trkpt><trkpt lat="50.95510289050898" lon="4.9542866086973705"><ele>41.0</ele><time>2026-04-08T15:37:40.999Z</time></trkpt><trkpt lat="50.955101796055864" lon="4.954111181533465"><ele>40.33333333333333</ele><time>2026-04-08T15:37:42.999Z</time></trkpt><trkpt lat="50.95512478127993" lon="4.953557819590883"><ele>39.666666666666664</ele><time>2026-04-08T15:37:48.999Z</time></trkpt><trkpt lat="50.95513225099233" lon="4.953452224965973"><ele>39.0</ele><time>2026-04-08T15:37:49.999Z</time></trkpt><trkpt lat="50.955142371791574" lon="4.953258392544682"><ele>42.0</ele><time>2026-04-08T15:37:51.999Z</time></trkpt><trkpt lat="50.95488063431095" lon="4.952461809747588"><ele>42.0</ele><time>2026-04-08T15:39:11.999Z</time></trkpt><trkpt lat="50.95481834563134" lon="4.952438840362322"><ele>42.0</ele><time>2026-04-08T15:39:12.999Z</time></trkpt><trkpt lat="50.95470130944586" lon="4.952498496491204"><ele>42.0</ele><time>2026-04-08T15:39:14.999Z</time></trkpt><trkpt lat="50.95463005723402" lon="4.952548673656989"><ele>42.0</ele><time>2026-04-08T15:39:15.999Z</time></trkpt><trkpt lat="50.95455166961699" lon="4.9525841493235125"><ele>42.0</ele><time>2026-04-08T15:39:16.999Z</time></trkpt><trkpt lat="50.95448970999439" lon="4.9526214586521675"><ele>42.0</ele><time>2026-04-08T15:39:17.999Z</time></trkpt><trkpt lat="50.95441550926626" lon="4.952630521547385"><ele>41.833333333333336</ele><time>2026-04-08T15:39:18.999Z</time></trkpt><trkpt lat="50.954327847583315" lon="4.952678424963451"><ele>41.666666666666664</ele><time>2026-04-08T15:39:19.999Z</time></trkpt><trkpt lat="50.95424242953272" lon="4.952742050907482"><ele>41.5</ele><time>2026-04-08T15:39:20.999Z</time></trkpt><trkpt lat="50.95417566261766" lon="4.952828587978135"><ele>41.33333333333333</ele><time>2026-04-08T15:39:21.999Z</time></trkpt><trkpt lat="50.95409800861759" lon="4.9528725191266725"><ele>41.166666666666664</ele><time>2026-04-08T15:39:22.999Z</time></trkpt><trkpt lat="50.95403031166957" lon="4.952945883542712"><ele>41.0</ele><time>2026-04-08T15:39:23.999Z</time></trkpt><trkpt lat="50.9539656592309" lon="4.953016320506687"><ele>40.666666666666664</ele><time>2026-04-08T15:39:24.999Z</time></trkpt><trkpt lat="50.95390139651466" lon="4.95308633285643"><ele>40.33333333333333</ele><time>2026-04-08T15:39:25.999Z</time></trkpt><trkpt lat="50.95384224651026" lon="4.953147127221127"><ele>40.0</ele><time>2026-04-08T15:39:26.999Z</time></trkpt><trkpt lat="50.95374166635337" lon="4.953224414145262"><ele>39.666666666666664</ele><time>2026-04-08T15:39:28.999Z</time></trkpt><trkpt lat="50.95367935514239" lon="4.9532620249998285"><ele>39.333333333333336</ele><time>2026-04-08T15:39:29.999Z</time></trkpt><trkpt lat="50.95360737607511" lon="4.953294383924992"><ele>39.0</ele><time>2026-04-08T15:39:30.999Z</time></trkpt><trkpt lat="50.953536018224305" lon="4.953333379716155"><ele>39.0</ele><time>2026-04-08T15:39:31.999Z</time></trkpt><trkpt lat="50.953466309473356" lon="4.953395101594118"><ele>39.0</ele><time>2026-04-08T15:39:32.999Z</time></trkpt><trkpt lat="50.95338607695533" lon="4.953428617077249"><ele>39.0</ele><time>2026-04-08T15:39:33.999Z</time></trkpt><trkpt lat="50.953310198666195" lon="4.9534707171736665"><ele>39.0</ele><time>2026-04-08T15:39:34.999Z</time></trkpt><trkpt lat="50.953250069012086" lon="4.953528327001962"><ele>39.0</ele><time>2026-04-08T15:39:35.999Z</time></trkpt><trkpt lat="50.953203831207496" lon="4.9536206840420345"><ele>39.0</ele><time>2026-04-08T15:39:36.999Z</time></trkpt><trkpt lat="50.95319637045099" lon="4.953767951298076"><ele>39.0</ele><time>2026-04-08T15:39:37.999Z</time></trkpt><trkpt lat="50.953211702813164" lon="4.953917458389929"><ele>39.0</ele><time>2026-04-08T15:39:38.999Z</time></trkpt><trkpt lat="50.953220294421854" lon="4.954068345146828"><ele>39.0</ele><time>2026-04-08T15:39:39.999Z</time></trkpt><trkpt lat="50.95320368494428" lon="4.954208415044498"><ele>39.0</ele><time>2026-04-08T15:39:40.999Z</time></trkpt><trkpt lat="50.95318386273909" lon="4.954344828584613"><ele>39.0</ele><time>2026-04-08T15:39:41.999Z</time></trkpt><trkpt lat="50.953143841976896" lon="4.954484566334515"><ele>40.2</ele><time>2026-04-08T15:39:42.999Z</time></trkpt><trkpt lat="50.953103310292505" lon="4.954634519936528"><ele>41.4</ele><time>2026-04-08T15:39:43.999Z</time></trkpt><trkpt lat="50.95307042712485" lon="4.954803964917533"><ele>42.6</ele><time>2026-04-08T15:39:44.999Z</time></trkpt><trkpt lat="50.953023727933214" lon="4.954966453370741"><ele>43.8</ele><time>2026-04-08T15:39:45.999Z</time></trkpt><trkpt lat="50.952976648227086" lon="4.955125509499832"><ele>45.0</ele><time>2026-04-08T15:39:46.999Z</time></trkpt><trkpt lat="50.9529394746673" lon="4.955276982068157"><ele>45.333333333333336</ele><time>2026-04-08T15:39:47.999Z</time></trkpt><trkpt lat="50.95290863382596" lon="4.955416668176457"><ele>45.666666666666664</ele><time>2026-04-08T15:39:48.999Z</time></trkpt><trkpt lat="50.95288616996708" lon="4.955555607746796"><ele>46.0</ele><time>2026-04-08T15:39:49.999Z</time></trkpt><trkpt lat="50.95285906774893" lon="4.955674825627715"><ele>46.33333333333333</ele><time>2026-04-08T15:39:50.999Z</time></trkpt><trkpt lat="50.95284061650687" lon="4.955782119376156"><ele>46.666666666666664</ele><time>2026-04-08T15:39:51.999Z</time></trkpt><trkpt lat="50.95283387980507" lon="4.955894118546012"><ele>47.0</ele><time>2026-04-08T15:39:52.999Z</time></trkpt><trkpt lat="50.95279796412213" lon="4.9560030222153015"><ele>47.0</ele><time>2026-04-08T15:39:53.999Z</time></trkpt><trkpt lat="50.952791421423235" lon="4.956113876243876"><ele>47.0</ele><time>2026-04-08T15:39:54.999Z</time></trkpt><trkpt lat="50.95277178663251" lon="4.956214940421296"><ele>47.0</ele><time>2026-04-08T15:39:55.999Z</time></trkpt><trkpt lat="50.95275460719244" lon="4.956313045778865"><ele>47.0</ele><time>2026-04-08T15:39:56.999Z</time></trkpt><trkpt lat="50.95271558610647" lon="4.956511857463095"><ele>47.0</ele><time>2026-04-08T15:39:58.999Z</time></trkpt><trkpt lat="50.952691250363074" lon="4.956620391085499"><ele>47.0</ele><time>2026-04-08T15:39:59.999Z</time></trkpt><trkpt lat="50.952670901977726" lon="4.956730662118011"><ele>46.83333333333333</ele><time>2026-04-08T15:40:00.999Z</time></trkpt><trkpt lat="50.9526555157156" lon="4.956848110930461"><ele>46.666666666666664</ele><time>2026-04-08T15:40:01.999Z</time></trkpt><trkpt lat="50.95263557335724" lon="4.956970004533595"><ele>46.5</ele><time>2026-04-08T15:40:02.999Z</time></trkpt><trkpt lat="50.952610302113044" lon="4.957093513425279"><ele>46.333333333333336</ele><time>2026-04-08T15:40:03.999Z</time></trkpt><trkpt lat="50.95258150621239" lon="4.95723052553829"><ele>46.16666666666667</ele><time>2026-04-08T15:40:04.999Z</time></trkpt><trkpt lat="50.95255587676946" lon="4.957374185743103"><ele>46.0</ele><time>2026-04-08T15:40:05.999Z</time></trkpt><trkpt lat="50.95253176578638" lon="4.957515559786514"><ele>46.199999999999996</ele><time>2026-04-08T15:40:06.999Z</time></trkpt><trkpt lat="50.9525042642513" lon="4.957680085877105"><ele>46.4</ele><time>2026-04-08T15:40:07.999Z</time></trkpt><trkpt lat="50.95247461899955" lon="4.957847185887879"><ele>46.6</ele><time>2026-04-08T15:40:08.999Z</time></trkpt><trkpt lat="50.95244343142749" lon="4.958013651109357"><ele>46.8</ele><time>2026-04-08T15:40:09.999Z</time></trkpt><trkpt lat="50.95241633577168" lon="4.958162685897101"><ele>47.0</ele><time>2026-04-08T15:40:10.999Z</time></trkpt><trkpt lat="50.95238830746234" lon="4.958321453583339"><ele>46.8</ele><time>2026-04-08T15:40:11.999Z</time></trkpt><trkpt lat="50.95235303589877" lon="4.95847844238301"><ele>46.6</ele><time>2026-04-08T15:40:12.999Z</time></trkpt><trkpt lat="50.95232343252291" lon="4.958639878670572"><ele>46.4</ele><time>2026-04-08T15:40:13.999Z</time></trkpt><trkpt lat="50.95229622369652" lon="4.9587966956661385"><ele>46.199999999999996</ele><time>2026-04-08T15:40:14.999Z</time></trkpt><trkpt lat="50.95227435508924" lon="4.958924882802954"><ele>46.0</ele><time>2026-04-08T15:40:15.999Z</time></trkpt><trkpt lat="50.952252771670636" lon="4.9590387847000486"><ele>46.0</ele><time>2026-04-08T15:40:16.999Z</time></trkpt><trkpt lat="50.9522375851677" lon="4.959135817767744"><ele>46.0</ele><time>2026-04-08T15:40:17.999Z</time></trkpt><trkpt lat="50.952205920058425" lon="4.959325015454667"><ele>46.0</ele><time>2026-04-08T15:40:19.999Z</time></trkpt><trkpt lat="50.95217964944634" lon="4.959455637962015"><ele>46.0</ele><time>2026-04-08T15:40:21.999Z</time></trkpt><trkpt lat="50.95214230321217" lon="4.959540526836994"><ele>46.0</ele><time>2026-04-08T15:40:23.999Z</time></trkpt><trkpt lat="50.95208422832566" lon="4.959588668600413"><ele>46.0</ele><time>2026-04-08T15:40:25.999Z</time></trkpt><trkpt lat="50.952019245128106" lon="4.959660606253595"><ele>45.8</ele><time>2026-04-08T15:40:27.999Z</time></trkpt><trkpt lat="50.95194244502596" lon="4.959726763745921"><ele>45.599999999999994</ele><time>2026-04-08T15:40:43.998Z</time></trkpt><trkpt lat="50.95185352641389" lon="4.959801057738533"><ele>45.4</ele><time>2026-04-08T15:40:45.998Z</time></trkpt><trkpt lat="50.951772556060874" lon="4.959975855712211"><ele>45.2</ele><time>2026-04-08T15:40:47.998Z</time></trkpt><trkpt lat="50.95173174259673" lon="4.960085908920786"><ele>45.0</ele><time>2026-04-08T15:40:48.998Z</time></trkpt><trkpt lat="50.95169049175271" lon="4.960199691332551"><ele>45.0</ele><time>2026-04-08T15:40:49.998Z</time></trkpt><trkpt lat="50.95166169308021" lon="4.960311446609313"><ele>45.0</ele><time>2026-04-08T15:40:50.998Z</time></trkpt><trkpt lat="50.951627290330855" lon="4.960446535855111"><ele>45.0</ele><time>2026-04-08T15:40:51.998Z</time></trkpt><trkpt lat="50.951589691823834" lon="4.960587853526801"><ele>45.0</ele><time>2026-04-08T15:40:52.998Z</time></trkpt><trkpt lat="50.95154839971118" lon="4.960731634769228"><ele>45.0</ele><time>2026-04-08T15:40:53.998Z</time></trkpt><trkpt lat="50.95150370910299" lon="4.960879389299084"><ele>45.4</ele><time>2026-04-08T15:40:54.998Z</time></trkpt><trkpt lat="50.95145822681212" lon="4.9610242861848795"><ele>45.8</ele><time>2026-04-08T15:40:55.998Z</time></trkpt><trkpt lat="50.951413600985276" lon="4.96115997476623"><ele>46.2</ele><time>2026-04-08T15:40:56.998Z</time></trkpt><trkpt lat="50.95137510483018" lon="4.961284714037851"><ele>46.6</ele><time>2026-04-08T15:40:57.998Z</time></trkpt><trkpt lat="50.95133676819442" lon="4.96141087983111"><ele>47.0</ele><time>2026-04-08T15:40:58.998Z</time></trkpt><trkpt lat="50.95129854593439" lon="4.961535038212827"><ele>47.0</ele><time>2026-04-08T15:40:59.998Z</time></trkpt><trkpt lat="50.95126298525236" lon="4.9616511600602795"><ele>47.0</ele><time>2026-04-08T15:41:00.998Z</time></trkpt><trkpt lat="50.951204208307416" lon="4.961752458825324"><ele>47.0</ele><time>2026-04-08T15:41:01.998Z</time></trkpt><trkpt lat="50.95117033200273" lon="4.961865493948718"><ele>47.0</ele><time>2026-04-08T15:41:02.998Z</time></trkpt><trkpt lat="50.951142445775425" lon="4.961962198597705"><ele>47.0</ele><time>2026-04-08T15:41:03.998Z</time></trkpt><trkpt lat="50.951120495527825" lon="4.962119753428129"><ele>47.0</ele><time>2026-04-08T15:41:05.998Z</time></trkpt><trkpt lat="50.951075533589446" lon="4.962224950677919"><ele>47.0</ele><time>2026-04-08T15:41:07.998Z</time></trkpt><trkpt lat="50.95097643868107" lon="4.962344933832792"><ele>47.0</ele><time>2026-04-08T15:41:09.998Z</time></trkpt><trkpt lat="50.95091358568561" lon="4.962394552919355"><ele>47.0</ele><time>2026-04-08T15:41:10.998Z</time></trkpt><trkpt lat="50.95085064310903" lon="4.962455533960615"><ele>47.0</ele><time>2026-04-08T15:41:11.998Z</time></trkpt><trkpt lat="50.95078305739377" lon="4.962526064879175"><ele>47.0</ele><time>2026-04-08T15:41:12.998Z</time></trkpt><trkpt lat="50.950712575982664" lon="4.962609677470066"><ele>47.0</ele><time>2026-04-08T15:41:13.998Z</time></trkpt><trkpt lat="50.95063819354539" lon="4.962696078758606"><ele>46.6</ele><time>2026-04-08T15:41:14.998Z</time></trkpt><trkpt lat="50.95056186539559" lon="4.962785679349992"><ele>46.2</ele><time>2026-04-08T15:41:15.999Z</time></trkpt><trkpt lat="50.950489017308946" lon="4.962870145453411"><ele>45.8</ele><time>2026-04-08T15:41:16.999Z</time></trkpt><trkpt lat="50.950417723850926" lon="4.962943515032599"><ele>45.4</ele><time>2026-04-08T15:41:17.999Z</time></trkpt><trkpt lat="50.95033920231686" lon="4.96303482232613"><ele>45.0</ele><time>2026-04-08T15:41:18.999Z</time></trkpt><trkpt lat="50.95027026336397" lon="4.963108298268483"><ele>45.0</ele><time>2026-04-08T15:41:19.999Z</time></trkpt><trkpt lat="50.95019927582833" lon="4.963180145415331"><ele>45.0</ele><time>2026-04-08T15:41:20.999Z</time></trkpt><trkpt lat="50.95012419040519" lon="4.963255242426981"><ele>45.0</ele><time>2026-04-08T15:41:21.999Z</time></trkpt><trkpt lat="50.95004579462168" lon="4.963331248097416"><ele>45.0</ele><time>2026-04-08T15:41:22.999Z</time></trkpt><trkpt lat="50.949969648087034" lon="4.963407122855399"><ele>45.0</ele><time>2026-04-08T15:41:23.999Z</time></trkpt><trkpt lat="50.94990085789012" lon="4.963473503783993"><ele>45.0</ele><time>2026-04-08T15:41:24.999Z</time></trkpt><trkpt lat="50.949824546654895" lon="4.963537634885682"><ele>44.833333333333336</ele><time>2026-04-08T15:41:25.999Z</time></trkpt><trkpt lat="50.94975541663302" lon="4.9635841795176905"><ele>44.666666666666664</ele><time>2026-04-08T15:41:26.999Z</time></trkpt><trkpt lat="50.949695629926076" lon="4.963621404243842"><ele>44.5</ele><time>2026-04-08T15:41:27.999Z</time></trkpt><trkpt lat="50.9496350113538" lon="4.963654123192909"><ele>44.33333333333333</ele><time>2026-04-08T15:41:28.999Z</time></trkpt><trkpt lat="50.94957263612224" lon="4.963689006314161"><ele>44.166666666666664</ele><time>2026-04-08T15:41:29.999Z</time></trkpt><trkpt lat="50.949504716514674" lon="4.963705130113491"><ele>44.0</ele><time>2026-04-08T15:41:30.999Z</time></trkpt><trkpt lat="50.949403446105634" lon="4.963933213723054"><ele>44.0</ele><time>2026-04-08T15:41:32.999Z</time></trkpt><trkpt lat="50.94935221143304" lon="4.96401006583164"><ele>44.0</ele><time>2026-04-08T15:41:33.999Z</time></trkpt><trkpt lat="50.949297876048746" lon="4.964091568803213"><ele>44.0</ele><time>2026-04-08T15:41:34.999Z</time></trkpt><trkpt lat="50.94923867464516" lon="4.9641766692859175"><ele>44.0</ele><time>2026-04-08T15:41:35.999Z</time></trkpt><trkpt lat="50.94917914901181" lon="4.964255242966544"><ele>44.0</ele><time>2026-04-08T15:41:36.999Z</time></trkpt><trkpt lat="50.94912740519758" lon="4.964333095213702"><ele>44.0</ele><time>2026-04-08T15:41:37.999Z</time></trkpt><trkpt lat="50.94908639969116" lon="4.964428583922335"><ele>44.0</ele><time>2026-04-08T15:41:38.999Z</time></trkpt><trkpt lat="50.949058812983054" lon="4.9645393306916725"><ele>44.400000000000006</ele><time>2026-04-08T15:41:39.999Z</time></trkpt><trkpt lat="50.94907166086424" lon="4.964703845652766"><ele>44.8</ele><time>2026-04-08T15:41:40.999Z</time></trkpt><trkpt lat="50.9491095838564" lon="4.964847720989944"><ele>45.2</ele><time>2026-04-08T15:41:41.999Z</time></trkpt><trkpt lat="50.949121780547344" lon="4.96499810795088"><ele>45.599999999999994</ele><time>2026-04-08T15:41:42.999Z</time></trkpt><trkpt lat="50.94914628892445" lon="4.965144880957134"><ele>46.0</ele><time>2026-04-08T15:41:43.999Z</time></trkpt><trkpt lat="50.949173422296425" lon="4.9653069796146125"><ele>45.199999999999996</ele><time>2026-04-08T15:41:44.999Z</time></trkpt><trkpt lat="50.94919912899975" lon="4.965458758410436"><ele>44.4</ele><time>2026-04-08T15:41:45.999Z</time></trkpt><trkpt lat="50.94922643611561" lon="4.965618687383854"><ele>43.6</ele><time>2026-04-08T15:41:46.999Z</time></trkpt><trkpt lat="50.94925183518684" lon="4.96576797415744"><ele>42.8</ele><time>2026-04-08T15:41:47.999Z</time></trkpt><trkpt lat="50.94927546546751" lon="4.965919160932422"><ele>42.0</ele><time>2026-04-08T15:41:48.999Z</time></trkpt><trkpt lat="50.94930107304034" lon="4.966076025203757"><ele>40.6</ele><time>2026-04-08T15:41:49.999Z</time></trkpt><trkpt lat="50.94933419415397" lon="4.966238698912722"><ele>39.2</ele><time>2026-04-08T15:41:50.999Z</time></trkpt><trkpt lat="50.9493669854469" lon="4.966383295172898"><ele>37.8</ele><time>2026-04-08T15:41:51.999Z</time></trkpt><trkpt lat="50.94940351521532" lon="4.966539684250797"><ele>36.4</ele><time>2026-04-08T15:41:52.999Z</time></trkpt><trkpt lat="50.94943780521728" lon="4.966693104302245"><ele>35.0</ele><time>2026-04-08T15:41:53.999Z</time></trkpt><trkpt lat="50.949474379278925" lon="4.966860336925681"><ele>34.5</ele><time>2026-04-08T15:41:54.999Z</time></trkpt><trkpt lat="50.949523028084116" lon="4.9670190447658475"><ele>34.0</ele><time>2026-04-08T15:41:55.999Z</time></trkpt><trkpt lat="50.94955749153979" lon="4.967196221136132"><ele>33.5</ele><time>2026-04-08T15:41:56.999Z</time></trkpt><trkpt lat="50.94958822354235" lon="4.967370473985376"><ele>33.0</ele><time>2026-04-08T15:41:57.999Z</time></trkpt><trkpt lat="50.9496244691486" lon="4.967544712527875"><ele>33.0</ele><time>2026-04-08T15:41:58.999Z</time></trkpt><trkpt lat="50.949645266829336" lon="4.9677294255139115"><ele>33.0</ele><time>2026-04-08T15:41:59.999Z</time></trkpt><trkpt lat="50.94967747289077" lon="4.967885724143602"><ele>33.0</ele><time>2026-04-08T15:42:00.999Z</time></trkpt><trkpt lat="50.94970709855779" lon="4.968029747129778"><ele>33.0</ele><time>2026-04-08T15:42:01.999Z</time></trkpt><trkpt lat="50.94973485289806" lon="4.968165032923889"><ele>33.0</ele><time>2026-04-08T15:42:02.999Z</time></trkpt><trkpt lat="50.94976083636043" lon="4.968291686712147"><ele>33.333333333333336</ele><time>2026-04-08T15:42:03.999Z</time></trkpt><trkpt lat="50.949784168389506" lon="4.968405543502344"><ele>33.666666666666664</ele><time>2026-04-08T15:42:04.999Z</time></trkpt><trkpt lat="50.94980996173882" lon="4.9685317629387225"><ele>34.0</ele><time>2026-04-08T15:42:05.999Z</time></trkpt><trkpt lat="50.949847020429765" lon="4.9687070320214"><ele>34.33333333333333</ele><time>2026-04-08T15:42:07.999Z</time></trkpt><trkpt lat="50.94984688161565" lon="4.96885891175387"><ele>34.666666666666664</ele><time>2026-04-08T15:42:09.999Z</time></trkpt><trkpt lat="50.9497755010348" lon="4.968900247283133"><ele>35.0</ele><time>2026-04-08T15:42:10.999Z</time></trkpt><trkpt lat="50.94972009281727" lon="4.968980786061528"><ele>35.0</ele><time>2026-04-08T15:42:11.999Z</time></trkpt><trkpt lat="50.94965609687229" lon="4.9690741809332915"><ele>35.0</ele><time>2026-04-08T15:42:12.999Z</time></trkpt><trkpt lat="50.94959231654676" lon="4.969169456501389"><ele>35.0</ele><time>2026-04-08T15:42:13.999Z</time></trkpt><trkpt lat="50.94951749959532" lon="4.969282021931075"><ele>35.0</ele><time>2026-04-08T15:42:14.999Z</time></trkpt><trkpt lat="50.94943555212223" lon="4.969405312849592"><ele>35.0</ele><time>2026-04-08T15:42:15.999Z</time></trkpt><trkpt lat="50.94934748284363" lon="4.969537116503026"><ele>36.0</ele><time>2026-04-08T15:42:16.999Z</time></trkpt><trkpt lat="50.94923663259138" lon="4.969740959958117"><ele>37.0</ele><time>2026-04-08T15:42:17.999Z</time></trkpt><trkpt lat="50.94912803530845" lon="4.969890225488277"><ele>38.0</ele><time>2026-04-08T15:42:18.999Z</time></trkpt><trkpt lat="50.949049029332635" lon="4.9700149422437665"><ele>39.0</ele><time>2026-04-08T15:42:19.999Z</time></trkpt><trkpt lat="50.94897961581502" lon="4.970121627427857"><ele>39.2</ele><time>2026-04-08T15:42:20.999Z</time></trkpt><trkpt lat="50.948909959209736" lon="4.9702227644671835"><ele>39.4</ele><time>2026-04-08T15:42:21.999Z</time></trkpt><trkpt lat="50.94883387621595" lon="4.970337845394559"><ele>39.6</ele><time>2026-04-08T15:42:22.999Z</time></trkpt><trkpt lat="50.948742421495886" lon="4.97044382280948"><ele>39.8</ele><time>2026-04-08T15:42:23.999Z</time></trkpt><trkpt lat="50.94866060322352" lon="4.970565861862192"><ele>40.0</ele><time>2026-04-08T15:42:24.999Z</time></trkpt><trkpt lat="50.94858364025332" lon="4.970682695857612"><ele>40.0</ele><time>2026-04-08T15:42:25.999Z</time></trkpt><trkpt lat="50.948506583131" lon="4.970801655613145"><ele>40.0</ele><time>2026-04-08T15:42:26.999Z</time></trkpt><trkpt lat="50.948431563564064" lon="4.970919353727815"><ele>40.0</ele><time>2026-04-08T15:42:27.999Z</time></trkpt><trkpt lat="50.94835654758231" lon="4.971031030766722"><ele>40.0</ele><time>2026-04-08T15:42:28.999Z</time></trkpt><trkpt lat="50.94827609762547" lon="4.971149761879731"><ele>40.0</ele><time>2026-04-08T15:42:29.999Z</time></trkpt><trkpt lat="50.948194165319514" lon="4.971270195796898"><ele>38.8</ele><time>2026-04-08T15:42:30.999Z</time></trkpt><trkpt lat="50.948116008508954" lon="4.971385834638882"><ele>37.6</ele><time>2026-04-08T15:42:31.999Z</time></trkpt><trkpt lat="50.94804114056208" lon="4.971496833345094"><ele>36.4</ele><time>2026-04-08T15:42:32.999Z</time></trkpt><trkpt lat="50.947965549665525" lon="4.9716089039685345"><ele>35.2</ele><time>2026-04-08T15:42:33.999Z</time></trkpt><trkpt lat="50.94789341925084" lon="4.971718922952908"><ele>34.0</ele><time>2026-04-08T15:42:34.999Z</time></trkpt><trkpt lat="50.94782333680778" lon="4.971826960783189"><ele>34.0</ele><time>2026-04-08T15:42:35.999Z</time></trkpt><trkpt lat="50.947762402492415" lon="4.97194383628067"><ele>34.0</ele><time>2026-04-08T15:42:36.999Z</time></trkpt><trkpt lat="50.947693950893395" lon="4.972059261731266"><ele>34.0</ele><time>2026-04-08T15:42:37.999Z</time></trkpt><trkpt lat="50.9476117428542" lon="4.972153792401238"><ele>34.0</ele><time>2026-04-08T15:42:38.998Z</time></trkpt><trkpt lat="50.94754726091324" lon="4.972271975418802"><ele>34.0</ele><time>2026-04-08T15:42:39.998Z</time></trkpt><trkpt lat="50.94748530604645" lon="4.972357642800781"><ele>34.0</ele><time>2026-04-08T15:42:40.998Z</time></trkpt><trkpt lat="50.94742342639725" lon="4.972442699993441"><ele>34.0</ele><time>2026-04-08T15:42:41.998Z</time></trkpt><trkpt lat="50.94736850432536" lon="4.972524568829334"><ele>34.0</ele><time>2026-04-08T15:42:42.998Z</time></trkpt><trkpt lat="50.94727079440101" lon="4.972649134710725"><ele>34.0</ele><time>2026-04-08T15:42:44.998Z</time></trkpt><trkpt lat="50.94721814050461" lon="4.97271989539082"><ele>34.0</ele><time>2026-04-08T15:42:45.998Z</time></trkpt><trkpt lat="50.94716359060781" lon="4.972796164382158"><ele>34.0</ele><time>2026-04-08T15:42:46.998Z</time></trkpt><trkpt lat="50.947094986779256" lon="4.972865718798293"><ele>34.0</ele><time>2026-04-08T15:42:47.998Z</time></trkpt><trkpt lat="50.947033169261765" lon="4.972952147274837"><ele>34.0</ele><time>2026-04-08T15:42:48.998Z</time></trkpt><trkpt lat="50.946975952651165" lon="4.973032142771929"><ele>34.0</ele><time>2026-04-08T15:42:49.998Z</time></trkpt><trkpt lat="50.94692527663131" lon="4.973099428540139"><ele>34.0</ele><time>2026-04-08T15:42:50.998Z</time></trkpt><trkpt lat="50.94685394226497" lon="4.973222829123618"><ele>34.0</ele><time>2026-04-08T15:42:52.998Z</time></trkpt><trkpt lat="50.94677708705399" lon="4.973311879052957"><ele>34.0</ele><time>2026-04-08T15:42:54.998Z</time></trkpt><trkpt lat="50.94671240716184" lon="4.973375047183741"><ele>34.333333333333336</ele><time>2026-04-08T15:42:56.998Z</time></trkpt><trkpt lat="50.94663514187161" lon="4.973433731071941"><ele>34.66666666666667</ele><time>2026-04-08T15:42:59.998Z</time></trkpt><trkpt lat="50.94659744437902" lon="4.973577594679791"><ele>35.0</ele><time>2026-04-08T15:43:01.998Z</time></trkpt><trkpt lat="50.946613804650106" lon="4.973694049889027"><ele>35.333333333333336</ele><time>2026-04-08T15:43:02.998Z</time></trkpt><trkpt lat="50.94663817974169" lon="4.973813521578609"><ele>35.666666666666664</ele><time>2026-04-08T15:43:03.998Z</time></trkpt><trkpt lat="50.9466589032207" lon="4.973930563805135"><ele>36.0</ele><time>2026-04-08T15:43:04.998Z</time></trkpt><trkpt lat="50.94666067813273" lon="4.974071323434465"><ele>35.8</ele><time>2026-04-08T15:43:05.998Z</time></trkpt><trkpt lat="50.94667475900886" lon="4.97421795344148"><ele>35.6</ele><time>2026-04-08T15:43:06.998Z</time></trkpt><trkpt lat="50.946684537885936" lon="4.974384129121199"><ele>35.4</ele><time>2026-04-08T15:43:07.998Z</time></trkpt><trkpt lat="50.94670866289276" lon="4.9745460695604855"><ele>35.2</ele><time>2026-04-08T15:43:08.998Z</time></trkpt><trkpt lat="50.9467048245894" lon="4.974707572032142"><ele>35.0</ele><time>2026-04-08T15:43:09.998Z</time></trkpt><trkpt lat="50.94670397391521" lon="4.974842348232871"><ele>35.0</ele><time>2026-04-08T15:43:10.998Z</time></trkpt><trkpt lat="50.9467058731762" lon="4.974967090404615"><ele>35.0</ele><time>2026-04-08T15:43:11.998Z</time></trkpt><trkpt lat="50.94670715610717" lon="4.975076291287635"><ele>35.0</ele><time>2026-04-08T15:43:12.998Z</time></trkpt><trkpt lat="50.94670859133823" lon="4.975193576881677"><ele>35.0</ele><time>2026-04-08T15:43:13.998Z</time></trkpt><trkpt lat="50.94670937160645" lon="4.975331352822688"><ele>35.0</ele><time>2026-04-08T15:43:14.998Z</time></trkpt><trkpt lat="50.946715983604975" lon="4.975482727693714"><ele>35.0</ele><time>2026-04-08T15:43:15.998Z</time></trkpt><trkpt lat="50.94670480885621" lon="4.975638716399542"><ele>34.8</ele><time>2026-04-08T15:43:16.998Z</time></trkpt><trkpt lat="50.9467071821527" lon="4.975817330888754"><ele>34.6</ele><time>2026-04-08T15:43:17.998Z</time></trkpt><trkpt lat="50.9467220883108" lon="4.975985681041678"><ele>34.4</ele><time>2026-04-08T15:43:18.998Z</time></trkpt><trkpt lat="50.94672067292137" lon="4.976162479363453"><ele>34.2</ele><time>2026-04-08T15:43:19.998Z</time></trkpt><trkpt lat="50.94671435660647" lon="4.976338191185714"><ele>34.0</ele><time>2026-04-08T15:43:20.998Z</time></trkpt><trkpt lat="50.94671226046406" lon="4.976506947945274"><ele>34.2</ele><time>2026-04-08T15:43:21.999Z</time></trkpt><trkpt lat="50.94670111977855" lon="4.976650494538441"><ele>34.4</ele><time>2026-04-08T15:43:22.999Z</time></trkpt><trkpt lat="50.94667870329028" lon="4.976806101653108"><ele>34.6</ele><time>2026-04-08T15:43:23.999Z</time></trkpt><trkpt lat="50.94668103075697" lon="4.976964006033844"><ele>34.8</ele><time>2026-04-08T15:43:24.999Z</time></trkpt><trkpt lat="50.94666874881892" lon="4.977115300310621"><ele>35.0</ele><time>2026-04-08T15:43:25.999Z</time></trkpt><trkpt lat="50.94665100079756" lon="4.977262295466913"><ele>35.0</ele><time>2026-04-08T15:43:26.999Z</time></trkpt><trkpt lat="50.94663834849195" lon="4.977399366713399"><ele>35.0</ele><time>2026-04-08T15:43:27.999Z</time></trkpt><trkpt lat="50.94662201984167" lon="4.977544274929731"><ele>35.0</ele><time>2026-04-08T15:43:28.999Z</time></trkpt><trkpt lat="50.94661374052656" lon="4.9776879020681175"><ele>35.0</ele><time>2026-04-08T15:43:29.999Z</time></trkpt><trkpt lat="50.9465993704736" lon="4.977836241771674"><ele>35.0</ele><time>2026-04-08T15:43:30.999Z</time></trkpt><trkpt lat="50.94661501036178" lon="4.977974237809324"><ele>35.0</ele><time>2026-04-08T15:43:31.999Z</time></trkpt><trkpt lat="50.94660630285094" lon="4.978113344526124"><ele>35.0</ele><time>2026-04-08T15:43:32.999Z</time></trkpt><trkpt lat="50.94660777030284" lon="4.978257311913323"><ele>35.0</ele><time>2026-04-08T15:43:33.999Z</time></trkpt><trkpt lat="50.946621203625064" lon="4.978405680977795"><ele>35.0</ele><time>2026-04-08T15:43:34.999Z</time></trkpt><trkpt lat="50.94661850974036" lon="4.978571902920623"><ele>35.0</ele><time>2026-04-08T15:43:35.999Z</time></trkpt><trkpt lat="50.94663394921414" lon="4.9786933734808905"><ele>35.2</ele><time>2026-04-08T15:43:36.999Z</time></trkpt><trkpt lat="50.94663980279631" lon="4.978851585558778"><ele>35.4</ele><time>2026-04-08T15:43:37.999Z</time></trkpt><trkpt lat="50.94664769557066" lon="4.979007256853418"><ele>35.6</ele><time>2026-04-08T15:43:38.999Z</time></trkpt><trkpt lat="50.94665567274637" lon="4.979167214734865"><ele>35.8</ele><time>2026-04-08T15:43:39.999Z</time></trkpt><trkpt lat="50.94666190430224" lon="4.979323605855265"><ele>36.0</ele><time>2026-04-08T15:43:40.999Z</time></trkpt><trkpt lat="50.946674546377565" lon="4.979470977958465"><ele>36.0</ele><time>2026-04-08T15:43:41.999Z</time></trkpt><trkpt lat="50.94668172677331" lon="4.9796094683992855"><ele>36.0</ele><time>2026-04-08T15:43:42.999Z</time></trkpt><trkpt lat="50.946686715723885" lon="4.9797682475939"><ele>36.0</ele><time>2026-04-08T15:43:43.999Z</time></trkpt><trkpt lat="50.946689448550785" lon="4.979901855463383"><ele>36.0</ele><time>2026-04-08T15:43:44.999Z</time></trkpt><trkpt lat="50.94669937356684" lon="4.980039304718263"><ele>36.0</ele><time>2026-04-08T15:43:45.999Z</time></trkpt><trkpt lat="50.9467157462157" lon="4.980173661552951"><ele>36.0</ele><time>2026-04-08T15:43:46.999Z</time></trkpt><trkpt lat="50.94673239628146" lon="4.980279746537296"><ele>36.0</ele><time>2026-04-08T15:43:47.999Z</time></trkpt><trkpt lat="50.946757087169836" lon="4.980416082303753"><ele>36.0</ele><time>2026-04-08T15:43:49.999Z</time></trkpt><trkpt lat="50.9467106924259" lon="4.980550173597363"><ele>36.0</ele><time>2026-04-08T15:43:53.999Z</time></trkpt><trkpt lat="50.94660528699922" lon="4.980606541389755"><ele>36.0</ele><time>2026-04-08T15:43:55.999Z</time></trkpt><trkpt lat="50.946510792365" lon="4.9806784167163025"><ele>36.0</ele><time>2026-04-08T15:43:57.999Z</time></trkpt><trkpt lat="50.94644105959209" lon="4.98073983010094"><ele>36.0</ele><time>2026-04-08T15:44:00.999Z</time></trkpt><trkpt lat="50.946388886050165" lon="4.980803685492083"><ele>36.0</ele><time>2026-04-08T15:44:03.999Z</time></trkpt><trkpt lat="50.94638497000667" lon="4.981019091784812"><ele>36.0</ele><time>2026-04-08T15:44:05.999Z</time></trkpt><trkpt lat="50.94641950332622" lon="4.98113828171519"><ele>36.0</ele><time>2026-04-08T15:44:06.999Z</time></trkpt><trkpt lat="50.946463097488596" lon="4.981275008944482"><ele>36.0</ele><time>2026-04-08T15:44:07.999Z</time></trkpt><trkpt lat="50.94650635618864" lon="4.98142643548443"><ele>36.25</ele><time>2026-04-08T15:44:08.999Z</time></trkpt><trkpt lat="50.94655197728377" lon="4.981590317656869"><ele>36.5</ele><time>2026-04-08T15:44:09.999Z</time></trkpt><trkpt lat="50.94660194414362" lon="4.981758132621663"><ele>36.75</ele><time>2026-04-08T15:44:10.999Z</time></trkpt><trkpt lat="50.94665721832869" lon="4.981931520793682"><ele>37.0</ele><time>2026-04-08T15:44:11.999Z</time></trkpt><trkpt lat="50.94671370028949" lon="4.982109784973127"><ele>36.66666666666667</ele><time>2026-04-08T15:44:12.999Z</time></trkpt><trkpt lat="50.946764174740885" lon="4.982262192887748"><ele>36.333333333333336</ele><time>2026-04-08T15:44:13.999Z</time></trkpt><trkpt lat="50.94680890374015" lon="4.982392088655913"><ele>36.0</ele><time>2026-04-08T15:44:14.999Z</time></trkpt><trkpt lat="50.94684902402418" lon="4.98251234452744"><ele>35.666666666666664</ele><time>2026-04-08T15:44:15.999Z</time></trkpt><trkpt lat="50.94688216831431" lon="4.982615112345971"><ele>35.33333333333333</ele><time>2026-04-08T15:44:16.999Z</time></trkpt><trkpt lat="50.94691492942444" lon="4.982724564136937"><ele>35.0</ele><time>2026-04-08T15:44:17.999Z</time></trkpt><trkpt lat="50.94690380143811" lon="4.982854668068009"><ele>35.0</ele><time>2026-04-08T15:44:19.999Z</time></trkpt><trkpt lat="50.94678665718291" lon="4.982864165122542"><ele>35.0</ele><time>2026-04-08T15:44:20.999Z</time></trkpt><trkpt lat="50.94664800896421" lon="4.982926686999055"><ele>35.0</ele><time>2026-04-08T15:44:22.999Z</time></trkpt><trkpt lat="50.94655468869541" lon="4.982953281095034"><ele>35.0</ele><time>2026-04-08T15:44:23.999Z</time></trkpt><trkpt lat="50.94645608729843" lon="4.982955487866011"><ele>35.4</ele><time>2026-04-08T15:44:24.999Z</time></trkpt><trkpt lat="50.946355406172145" lon="4.982982473434194"><ele>35.8</ele><time>2026-04-08T15:44:25.999Z</time></trkpt><trkpt lat="50.94625109258337" lon="4.983011404525045"><ele>36.2</ele><time>2026-04-08T15:44:26.999Z</time></trkpt><trkpt lat="50.946140893796915" lon="4.9830480592126305"><ele>36.6</ele><time>2026-04-08T15:44:27.999Z</time></trkpt><trkpt lat="50.946029838213406" lon="4.983105972053028"><ele>37.0</ele><time>2026-04-08T15:44:28.999Z</time></trkpt><trkpt lat="50.945918715390505" lon="4.983143481562238"><ele>37.4</ele><time>2026-04-08T15:44:29.999Z</time></trkpt><trkpt lat="50.945810630497675" lon="4.983150382528845"><ele>37.800000000000004</ele><time>2026-04-08T15:44:30.999Z</time></trkpt><trkpt lat="50.945695176821935" lon="4.9831849961830565"><ele>38.2</ele><time>2026-04-08T15:44:31.999Z</time></trkpt><trkpt lat="50.94558403840626" lon="4.983219584445622"><ele>38.6</ele><time>2026-04-08T15:44:32.999Z</time></trkpt><trkpt lat="50.9454819534616" lon="4.983252687497154"><ele>39.0</ele><time>2026-04-08T15:44:33.999Z</time></trkpt><trkpt lat="50.94537510018456" lon="4.983285772018975"><ele>39.0</ele><time>2026-04-08T15:44:34.999Z</time></trkpt><trkpt lat="50.94527642898651" lon="4.983319542206952"><ele>39.0</ele><time>2026-04-08T15:44:35.999Z</time></trkpt><trkpt lat="50.94517331092411" lon="4.983353401328785"><ele>39.0</ele><time>2026-04-08T15:44:36.999Z</time></trkpt><trkpt lat="50.94506719177534" lon="4.9834090999715634"><ele>39.0</ele><time>2026-04-08T15:44:37.999Z</time></trkpt><trkpt lat="50.94495899644881" lon="4.983461119478246"><ele>39.0</ele><time>2026-04-08T15:44:38.999Z</time></trkpt><trkpt lat="50.944854314156906" lon="4.983508174406774"><ele>39.6</ele><time>2026-04-08T15:44:39.999Z</time></trkpt><trkpt lat="50.94474797562989" lon="4.983575740992936"><ele>40.2</ele><time>2026-04-08T15:44:40.999Z</time></trkpt><trkpt lat="50.94463233974041" lon="4.98359196498263"><ele>40.800000000000004</ele><time>2026-04-08T15:44:41.999Z</time></trkpt><trkpt lat="50.94452891322552" lon="4.983650549997903"><ele>41.4</ele><time>2026-04-08T15:44:42.999Z</time></trkpt><trkpt lat="50.944422909286835" lon="4.983663318556584"><ele>42.0</ele><time>2026-04-08T15:44:43.999Z</time></trkpt><trkpt lat="50.9443201593628" lon="4.983699317729415"><ele>42.0</ele><time>2026-04-08T15:44:44.999Z</time></trkpt><trkpt lat="50.9442221447009" lon="4.983759524233946"><ele>42.0</ele><time>2026-04-08T15:44:45.999Z</time></trkpt><trkpt lat="50.94412724304744" lon="4.983766910231243"><ele>42.0</ele><time>2026-04-08T15:44:46.999Z</time></trkpt><trkpt lat="50.94404330388283" lon="4.983796320177102"><ele>42.0</ele><time>2026-04-08T15:44:47.999Z</time></trkpt><trkpt lat="50.94396776916384" lon="4.983858621347165"><ele>42.0</ele><time>2026-04-08T15:44:48.999Z</time></trkpt><trkpt lat="50.94388279391502" lon="4.983884818656975"><ele>42.333333333333336</ele><time>2026-04-08T15:44:49.999Z</time></trkpt><trkpt lat="50.943804950769945" lon="4.983914560399456"><ele>42.666666666666664</ele><time>2026-04-08T15:44:50.999Z</time></trkpt><trkpt lat="50.94374195606512" lon="4.984003013508179"><ele>43.0</ele><time>2026-04-08T15:44:51.999Z</time></trkpt><trkpt lat="50.943677277371975" lon="4.98402503265959"><ele>43.33333333333333</ele><time>2026-04-08T15:44:52.999Z</time></trkpt><trkpt lat="50.94354965346899" lon="4.984088282673462"><ele>43.666666666666664</ele><time>2026-04-08T15:44:54.998Z</time></trkpt><trkpt lat="50.94347628274984" lon="4.984151322666818"><ele>44.0</ele><time>2026-04-08T15:44:55.998Z</time></trkpt><trkpt lat="50.94340524123545" lon="4.984206606615351"><ele>45.0</ele><time>2026-04-08T15:44:56.998Z</time></trkpt><trkpt lat="50.94333379901691" lon="4.984266902699538"><ele>46.0</ele><time>2026-04-08T15:44:57.998Z</time></trkpt><trkpt lat="50.94326852625098" lon="4.984318852583633"><ele>47.0</ele><time>2026-04-08T15:44:58.998Z</time></trkpt><trkpt lat="50.94319712473927" lon="4.984345945720573"><ele>48.0</ele><time>2026-04-08T15:44:59.998Z</time></trkpt><trkpt lat="50.94311954909089" lon="4.984383155840407"><ele>49.00000000000001</ele><time>2026-04-08T15:45:00.998Z</time></trkpt><trkpt lat="50.94303521377349" lon="4.984427100253547"><ele>50.0</ele><time>2026-04-08T15:45:01.998Z</time></trkpt><trkpt lat="50.94295194335705" lon="4.984496593348296"><ele>50.0</ele><time>2026-04-08T15:45:02.998Z</time></trkpt><trkpt lat="50.942874432699256" lon="4.984588664741657"><ele>50.0</ele><time>2026-04-08T15:45:03.998Z</time></trkpt><trkpt lat="50.94280497852159" lon="4.984694523728485"><ele>50.0</ele><time>2026-04-08T15:45:04.998Z</time></trkpt><trkpt lat="50.942726286271146" lon="4.984785514009603"><ele>50.0</ele><time>2026-04-08T15:45:05.998Z</time></trkpt><trkpt lat="50.942646156252906" lon="4.98484607075288"><ele>50.0</ele><time>2026-04-08T15:45:06.998Z</time></trkpt><trkpt lat="50.942579028131554" lon="4.9848988558196226"><ele>51.2</ele><time>2026-04-08T15:45:07.998Z</time></trkpt><trkpt lat="50.942471333206576" lon="4.985025504010157"><ele>52.4</ele><time>2026-04-08T15:45:09.998Z</time></trkpt><trkpt lat="50.94241024642632" lon="4.985098449281477"><ele>53.599999999999994</ele><time>2026-04-08T15:45:10.998Z</time></trkpt><trkpt lat="50.942347912904204" lon="4.9851586229239695"><ele>54.8</ele><time>2026-04-08T15:45:11.998Z</time></trkpt><trkpt lat="50.94227409735693" lon="4.985235467780282"><ele>56.0</ele><time>2026-04-08T15:45:12.998Z</time></trkpt><trkpt lat="50.94220731105183" lon="4.98530708565247"><ele>56.00000000000001</ele><time>2026-04-08T15:45:13.998Z</time></trkpt><trkpt lat="50.94212866161098" lon="4.985380558345683"><ele>56.0</ele><time>2026-04-08T15:45:14.998Z</time></trkpt><trkpt lat="50.94204926690611" lon="4.985453724877292"><ele>56.0</ele><time>2026-04-08T15:45:15.998Z</time></trkpt><trkpt lat="50.94198846984511" lon="4.985488863652526"><ele>56.0</ele><time>2026-04-08T15:45:16.998Z</time></trkpt><trkpt lat="50.941916475757786" lon="4.985541774640001"><ele>56.00000000000001</ele><time>2026-04-08T15:45:17.998Z</time></trkpt><trkpt lat="50.941840688517786" lon="4.985581614829184"><ele>56.0</ele><time>2026-04-08T15:45:18.998Z</time></trkpt><trkpt lat="50.94177642980644" lon="4.985619908013817"><ele>57.00000000000001</ele><time>2026-04-08T15:45:19.998Z</time></trkpt><trkpt lat="50.941711696432655" lon="4.98567533003129"><ele>58.0</ele><time>2026-04-08T15:45:20.998Z</time></trkpt><trkpt lat="50.94164415110426" lon="4.985721947583734"><ele>59.0</ele><time>2026-04-08T15:45:21.998Z</time></trkpt><trkpt lat="50.941583320580555" lon="4.985768721962121"><ele>60.0</ele><time>2026-04-08T15:45:22.998Z</time></trkpt><trkpt lat="50.94151664034503" lon="4.985812352219841"><ele>61.00000000000001</ele><time>2026-04-08T15:45:23.998Z</time></trkpt><trkpt lat="50.941456870398" lon="4.9858465092409885"><ele>62.0</ele><time>2026-04-08T15:45:24.998Z</time></trkpt><trkpt lat="50.941344222136564" lon="4.9859481814772035"><ele>62.333333333333336</ele><time>2026-04-08T15:45:26.998Z</time></trkpt><trkpt lat="50.94128609886251" lon="4.985993329531205"><ele>62.66666666666667</ele><time>2026-04-08T15:45:28Z</time></trkpt><trkpt lat="50.94122214923856" lon="4.9860561942586665"><ele>63.0</ele><time>2026-04-08T15:45:29Z</time></trkpt><trkpt lat="50.94116189686136" lon="4.986127521402678"><ele>63.33333333333333</ele><time>2026-04-08T15:45:30Z</time></trkpt><trkpt lat="50.94108765070031" lon="4.986220763283797"><ele>63.666666666666664</ele><time>2026-04-08T15:45:31Z</time></trkpt><trkpt lat="50.941031253070676" lon="4.986306338042836"><ele>64.0</ele><time>2026-04-08T15:45:32Z</time></trkpt><trkpt lat="50.94097410751898" lon="4.986398275157368"><ele>63.99999999999999</ele><time>2026-04-08T15:45:33Z</time></trkpt><trkpt lat="50.9409231949634" lon="4.986491276086517"><ele>64.0</ele><time>2026-04-08T15:45:34Z</time></trkpt><trkpt lat="50.94086632665683" lon="4.986592776437423"><ele>64.0</ele><time>2026-04-08T15:45:35Z</time></trkpt><trkpt lat="50.94080781701914" lon="4.986699091635131"><ele>64.0</ele><time>2026-04-08T15:45:36Z</time></trkpt><trkpt lat="50.940758448170776" lon="4.986810779438378"><ele>63.99999999999999</ele><time>2026-04-08T15:45:37Z</time></trkpt><trkpt lat="50.940710609719446" lon="4.986935826792482"><ele>64.0</ele><time>2026-04-08T15:45:38Z</time></trkpt><trkpt lat="50.94067307413766" lon="4.987056495843214"><ele>64.8</ele><time>2026-04-08T15:45:39Z</time></trkpt><trkpt lat="50.940630439222666" lon="4.987194348770913"><ele>65.60000000000001</ele><time>2026-04-08T15:45:40Z</time></trkpt><trkpt lat="50.94059326142543" lon="4.98731619373271"><ele>66.4</ele><time>2026-04-08T15:45:41Z</time></trkpt><trkpt lat="50.94055422077077" lon="4.987440169322558"><ele>67.2</ele><time>2026-04-08T15:45:42Z</time></trkpt><trkpt lat="50.940518457757506" lon="4.987556106318355"><ele>68.0</ele><time>2026-04-08T15:45:43Z</time></trkpt><trkpt lat="50.94047593855879" lon="4.987700781461944"><ele>68.0</ele><time>2026-04-08T15:45:44Z</time></trkpt><trkpt lat="50.940429443171645" lon="4.987844582846366"><ele>68.0</ele><time>2026-04-08T15:45:45Z</time></trkpt><trkpt lat="50.940391829547806" lon="4.9879700366670585"><ele>68.0</ele><time>2026-04-08T15:45:46Z</time></trkpt><trkpt lat="50.94036393364736" lon="4.9880827336984765"><ele>68.0</ele><time>2026-04-08T15:45:47Z</time></trkpt><trkpt lat="50.94032840949308" lon="4.988199249910727"><ele>68.0</ele><time>2026-04-08T15:45:48Z</time></trkpt><trkpt lat="50.9402842942455" lon="4.988327702676948"><ele>68.0</ele><time>2026-04-08T15:45:49Z</time></trkpt><trkpt lat="50.94024136322804" lon="4.9884501704667885"><ele>67.66666666666667</ele><time>2026-04-08T15:45:50Z</time></trkpt><trkpt lat="50.94020317408458" lon="4.988563626589188"><ele>67.33333333333334</ele><time>2026-04-08T15:45:51Z</time></trkpt><trkpt lat="50.94016123782656" lon="4.98868189097364"><ele>67.0</ele><time>2026-04-08T15:45:52Z</time></trkpt><trkpt lat="50.940124729941026" lon="4.988781375239447"><ele>66.66666666666667</ele><time>2026-04-08T15:45:53Z</time></trkpt><trkpt lat="50.94008610722543" lon="4.988899264882537"><ele>66.33333333333333</ele><time>2026-04-08T15:45:54Z</time></trkpt><trkpt lat="50.94003759261387" lon="4.989015683673837"><ele>66.0</ele><time>2026-04-08T15:45:55Z</time></trkpt><trkpt lat="50.93998868869654" lon="4.989122504892025"><ele>65.66666666666667</ele><time>2026-04-08T15:45:56Z</time></trkpt><trkpt lat="50.939947401635436" lon="4.989236314802082"><ele>65.33333333333333</ele><time>2026-04-08T15:45:57Z</time></trkpt><trkpt lat="50.93991278290214" lon="4.9893511708791545"><ele>65.0</ele><time>2026-04-08T15:45:58Z</time></trkpt><trkpt lat="50.939867927786494" lon="4.989483024993779"><ele>64.66666666666666</ele><time>2026-04-08T15:45:59Z</time></trkpt><trkpt lat="50.939822073631376" lon="4.989610559854383"><ele>64.33333333333333</ele><time>2026-04-08T15:46:00Z</time></trkpt><trkpt lat="50.93978147374775" lon="4.989724424196345"><ele>64.0</ele><time>2026-04-08T15:46:01Z</time></trkpt><trkpt lat="50.939742588495186" lon="4.989849469727247"><ele>64.0</ele><time>2026-04-08T15:46:02Z</time></trkpt><trkpt lat="50.93970346211317" lon="4.989979015876555"><ele>64.0</ele><time>2026-04-08T15:46:03Z</time></trkpt><trkpt lat="50.93966309250661" lon="4.990110690350313"><ele>64.0</ele><time>2026-04-08T15:46:04Z</time></trkpt><trkpt lat="50.93962587024645" lon="4.990237976392867"><ele>64.0</ele><time>2026-04-08T15:46:05Z</time></trkpt><trkpt lat="50.93959709534658" lon="4.990384357707106"><ele>64.0</ele><time>2026-04-08T15:46:06Z</time></trkpt><trkpt lat="50.93956512709047" lon="4.990509860356746"><ele>63.400000000000006</ele><time>2026-04-08T15:46:07Z</time></trkpt><trkpt lat="50.93952661939523" lon="4.990623809805809"><ele>62.800000000000004</ele><time>2026-04-08T15:46:07.999Z</time></trkpt><trkpt lat="50.93948711236446" lon="4.990746331817504"><ele>62.199999999999996</ele><time>2026-04-08T15:46:08.999Z</time></trkpt><trkpt lat="50.93944711186417" lon="4.990857867999162"><ele>61.599999999999994</ele><time>2026-04-08T15:46:09.999Z</time></trkpt><trkpt lat="50.93939087139438" lon="4.991015651985426"><ele>61.0</ele><time>2026-04-08T15:46:11.999Z</time></trkpt><trkpt lat="50.939373916770144" lon="4.991184741762982"><ele>60.666666666666664</ele><time>2026-04-08T15:46:13.999Z</time></trkpt><trkpt lat="50.939462946516684" lon="4.991314577102973"><ele>60.33333333333333</ele><time>2026-04-08T15:46:15.999Z</time></trkpt><trkpt lat="50.939529292060975" lon="4.9913651532177985"><ele>60.0</ele><time>2026-04-08T15:46:16.999Z</time></trkpt><trkpt lat="50.93960727758851" lon="4.991452291863925"><ele>59.66666666666667</ele><time>2026-04-08T15:46:18.999Z</time></trkpt><trkpt lat="50.939650712456746" lon="4.9915595982970915"><ele>59.333333333333336</ele><time>2026-04-08T15:46:20.999Z</time></trkpt><trkpt lat="50.93963988471257" lon="4.991662164841868"><ele>59.0</ele><time>2026-04-08T15:47:01.999Z</time></trkpt><trkpt lat="50.939717902729704" lon="4.991723903212639"><ele>58.333333333333336</ele><time>2026-04-08T15:47:05.999Z</time></trkpt><trkpt lat="50.93982535307377" lon="4.991716223856224"><ele>57.66666666666667</ele><time>2026-04-08T15:47:07.999Z</time></trkpt><trkpt lat="50.939889773447725" lon="4.991746757593134"><ele>57.0</ele><time>2026-04-08T15:47:08.999Z</time></trkpt><trkpt lat="50.93997199980458" lon="4.991802014734934"><ele>56.33333333333333</ele><time>2026-04-08T15:47:10.999Z</time></trkpt><trkpt lat="50.94001332212491" lon="4.991887232062102"><ele>55.666666666666664</ele><time>2026-04-08T15:47:12.999Z</time></trkpt><trkpt lat="50.940042337870594" lon="4.991981354805023"><ele>55.0</ele><time>2026-04-08T15:47:14.999Z</time></trkpt><trkpt lat="50.94010038496275" lon="4.991925874111144"><ele>54.83333333333333</ele><time>2026-04-08T15:47:17.999Z</time></trkpt><trkpt lat="50.940046540602864" lon="4.991831563527667"><ele>54.666666666666664</ele><time>2026-04-08T15:47:19.999Z</time></trkpt><trkpt lat="50.9399769503587" lon="4.991797276464707"><ele>54.5</ele><time>2026-04-08T15:47:20.999Z</time></trkpt><trkpt lat="50.9399126226345" lon="4.991749470177184"><ele>54.33333333333333</ele><time>2026-04-08T15:47:21.999Z</time></trkpt><trkpt lat="50.939795549030755" lon="4.9919216719780275"><ele>54.166666666666664</ele><time>2026-04-08T15:47:22.999Z</time></trkpt><trkpt lat="50.93973414882922" lon="4.9918918145357765"><ele>54.0</ele><time>2026-04-08T15:47:23.999Z</time></trkpt><trkpt lat="50.93964532886937" lon="4.991849276176558"><ele>54.0</ele><time>2026-04-08T15:47:25.998Z</time></trkpt><trkpt lat="50.93988760229191" lon="4.991708903212394"><ele>54.0</ele><time>2026-04-08T15:47:42Z</time></trkpt><trkpt lat="50.93976128830469" lon="4.992281809473767"><ele>54.0</ele><time>2026-04-08T15:47:44Z</time></trkpt><trkpt lat="50.93972016834753" lon="4.99240524673991"><ele>54.00000000000001</ele><time>2026-04-08T15:47:45Z</time></trkpt><trkpt lat="50.93967813303203" lon="4.992529282887575"><ele>54.00000000000001</ele><time>2026-04-08T15:47:46Z</time></trkpt><trkpt lat="50.939630712795804" lon="4.992698003824986"><ele>54.0</ele><time>2026-04-08T15:47:47Z</time></trkpt><trkpt lat="50.93958172076099" lon="4.992881562071674"><ele>54.0</ele><time>2026-04-08T15:47:48Z</time></trkpt><trkpt lat="50.93951982614576" lon="4.993080927702437"><ele>52.33333333333333</ele><time>2026-04-08T15:47:49Z</time></trkpt><trkpt lat="50.93945594778046" lon="4.993297043000388"><ele>50.666666666666664</ele><time>2026-04-08T15:47:50Z</time></trkpt><trkpt lat="50.93938893943864" lon="4.993517923620948"><ele>49.0</ele><time>2026-04-08T15:47:51Z</time></trkpt><trkpt lat="50.939326696826974" lon="4.99374594395973"><ele>48.0</ele><time>2026-04-08T15:47:52Z</time></trkpt><trkpt lat="50.939271295972524" lon="4.993959898278399"><ele>47.0</ele><time>2026-04-08T15:47:53Z</time></trkpt><trkpt lat="50.93921149118544" lon="4.994166090082572"><ele>46.0</ele><time>2026-04-08T15:47:54Z</time></trkpt><trkpt lat="50.93915391350835" lon="4.994382226913061"><ele>45.0</ele><time>2026-04-08T15:47:55Z</time></trkpt><trkpt lat="50.93908196882856" lon="4.994587211913503"><ele>44.333333333333336</ele><time>2026-04-08T15:47:56Z</time></trkpt><trkpt lat="50.93901884479953" lon="4.994807378082502"><ele>43.66666666666667</ele><time>2026-04-08T15:47:57Z</time></trkpt><trkpt lat="50.938969551680565" lon="4.99503986426417"><ele>43.0</ele><time>2026-04-08T15:47:58Z</time></trkpt><trkpt lat="50.93890616406671" lon="4.995263625637984"><ele>41.66666666666667</ele><time>2026-04-08T15:47:59Z</time></trkpt><trkpt lat="50.93882804251248" lon="4.9954728648553814"><ele>40.333333333333336</ele><time>2026-04-08T15:48:00Z</time></trkpt><trkpt lat="50.938764266334275" lon="4.995696010746211"><ele>39.0</ele><time>2026-04-08T15:48:01Z</time></trkpt><trkpt lat="50.93870219579342" lon="4.995914175514436"><ele>38.75</ele><time>2026-04-08T15:48:02Z</time></trkpt><trkpt lat="50.93864085295432" lon="4.996128382852579"><ele>38.5</ele><time>2026-04-08T15:48:03Z</time></trkpt><trkpt lat="50.938578849734284" lon="4.996345078540293"><ele>38.25</ele><time>2026-04-08T15:48:04Z</time></trkpt><trkpt lat="50.938517277187586" lon="4.9965600640229315"><ele>38.0</ele><time>2026-04-08T15:48:05Z</time></trkpt><trkpt lat="50.93847318309391" lon="4.99677559092475"><ele>37.75</ele><time>2026-04-08T15:48:06Z</time></trkpt><trkpt lat="50.93841242878595" lon="4.996988250533211"><ele>37.5</ele><time>2026-04-08T15:48:07Z</time></trkpt><trkpt lat="50.93833573117045" lon="4.997195094793352"><ele>37.25</ele><time>2026-04-08T15:48:08Z</time></trkpt><trkpt lat="50.938273407808786" lon="4.997413051311747"><ele>37.0</ele><time>2026-04-08T15:48:09Z</time></trkpt><trkpt lat="50.93821099796837" lon="4.997631506849134"><ele>36.333333333333336</ele><time>2026-04-08T15:48:10Z</time></trkpt><trkpt lat="50.938148053662474" lon="4.99785183319947"><ele>35.666666666666664</ele><time>2026-04-08T15:48:11Z</time></trkpt><trkpt lat="50.9380850876269" lon="4.998072235603424"><ele>35.0</ele><time>2026-04-08T15:48:12Z</time></trkpt><trkpt lat="50.93802268175401" lon="4.998290677288549"><ele>34.666666666666664</ele><time>2026-04-08T15:48:13Z</time></trkpt><trkpt lat="50.93796083767084" lon="4.998506326939362"><ele>34.333333333333336</ele><time>2026-04-08T15:48:14Z</time></trkpt><trkpt lat="50.937897913425545" lon="4.998725482355944"><ele>34.0</ele><time>2026-04-08T15:48:15Z</time></trkpt><trkpt lat="50.93783342916512" lon="4.998940785067879"><ele>34.0</ele><time>2026-04-08T15:48:16Z</time></trkpt><trkpt lat="50.93776784366944" lon="4.999156721409109"><ele>34.0</ele><time>2026-04-08T15:48:17Z</time></trkpt><trkpt lat="50.93770338018524" lon="4.999374199860532"><ele>34.0</ele><time>2026-04-08T15:48:18Z</time></trkpt><trkpt lat="50.93765884265358" lon="4.999592488934048"><ele>34.0</ele><time>2026-04-08T15:48:19Z</time></trkpt><trkpt lat="50.937605918359516" lon="4.999776932884537"><ele>33.6</ele><time>2026-04-08T15:48:20Z</time></trkpt><trkpt lat="50.93756344029244" lon="4.999925898948833"><ele>33.2</ele><time>2026-04-08T15:48:21Z</time></trkpt><trkpt lat="50.93752317994762" lon="5.000051576224032"><ele>32.800000000000004</ele><time>2026-04-08T15:48:22Z</time></trkpt><trkpt lat="50.937477267257464" lon="5.000214620939459"><ele>32.4</ele><time>2026-04-08T15:48:23.999Z</time></trkpt><trkpt lat="50.937426168182064" lon="5.000339270219293"><ele>32.0</ele><time>2026-04-08T15:48:24.999Z</time></trkpt><trkpt lat="50.93738035872288" lon="5.000495880111062"><ele>32.0</ele><time>2026-04-08T15:48:25.999Z</time></trkpt><trkpt lat="50.93734817615744" lon="5.000606117393535"><ele>32.0</ele><time>2026-04-08T15:48:27.999Z</time></trkpt><trkpt lat="50.937315193996746" lon="5.000719099463861"><ele>32.0</ele><time>2026-04-08T15:48:29.999Z</time></trkpt><trkpt lat="50.93744941839317" lon="5.000885305312655"><ele>32.0</ele><time>2026-04-08T15:48:31.999Z</time></trkpt><trkpt lat="50.93750310125255" lon="5.00093898104557"><ele>32.0</ele><time>2026-04-08T15:48:32.999Z</time></trkpt><trkpt lat="50.937580300417366" lon="5.001023991555372"><ele>32.166666666666664</ele><time>2026-04-08T15:48:34.999Z</time></trkpt><trkpt lat="50.93765235994962" lon="5.001104562561409"><ele>32.33333333333333</ele><time>2026-04-08T15:48:36.999Z</time></trkpt><trkpt lat="50.93770843631819" lon="5.001209395527029"><ele>32.5</ele><time>2026-04-08T15:48:38.999Z</time></trkpt><trkpt lat="50.9376630014259" lon="5.0012963609873955"><ele>32.666666666666664</ele><time>2026-04-08T15:48:40.999Z</time></trkpt><trkpt lat="50.93758375329396" lon="5.001443675003023"><ele>32.833333333333336</ele><time>2026-04-08T15:48:42.999Z</time></trkpt><trkpt lat="50.937546991009725" lon="5.001536427463811"><ele>33.0</ele><time>2026-04-08T15:48:43.999Z</time></trkpt><trkpt lat="50.937490416626154" lon="5.001620853399309"><ele>33.8</ele><time>2026-04-08T15:48:44.999Z</time></trkpt><trkpt lat="50.93745183543283" lon="5.001738336534919"><ele>34.599999999999994</ele><time>2026-04-08T15:48:45.999Z</time></trkpt><trkpt lat="50.93739644772281" lon="5.00184403895883"><ele>35.400000000000006</ele><time>2026-04-08T15:48:46.999Z</time></trkpt><trkpt lat="50.937337575519074" lon="5.0019151385294895"><ele>36.2</ele><time>2026-04-08T15:48:47.999Z</time></trkpt><trkpt lat="50.93724510338814" lon="5.0020312339489035"><ele>37.0</ele><time>2026-04-08T15:48:49.999Z</time></trkpt><trkpt lat="50.937132049806024" lon="5.0020906316909395"><ele>37.0</ele><time>2026-04-08T15:48:51.999Z</time></trkpt><trkpt lat="50.93707843287249" lon="5.00215923469144"><ele>37.0</ele><time>2026-04-08T15:48:52.999Z</time></trkpt><trkpt lat="50.93703997698356" lon="5.002276020270737"><ele>37.0</ele><time>2026-04-08T15:48:53.999Z</time></trkpt><trkpt lat="50.937002907724114" lon="5.002369946322499"><ele>37.0</ele><time>2026-04-08T15:48:54.999Z</time></trkpt><trkpt lat="50.936930846397104" lon="5.0025155302481785"><ele>37.0</ele><time>2026-04-08T15:48:56.999Z</time></trkpt><trkpt lat="50.93686252983392" lon="5.00257256978705"><ele>37.0</ele><time>2026-04-08T15:48:58.999Z</time></trkpt><trkpt lat="50.936780041572746" lon="5.002564448330972"><ele>36.833333333333336</ele><time>2026-04-08T15:49:01.999Z</time></trkpt><trkpt lat="50.93671133828871" lon="5.0025402664516525"><ele>36.66666666666667</ele><time>2026-04-08T15:49:02.999Z</time></trkpt><trkpt lat="50.93663744273733" lon="5.0025400148454855"><ele>36.5</ele><time>2026-04-08T15:49:03.999Z</time></trkpt><trkpt lat="50.93655049111834" lon="5.002524845964378"><ele>36.333333333333336</ele><time>2026-04-08T15:49:04.999Z</time></trkpt><trkpt lat="50.936452606351956" lon="5.00253871156163"><ele>36.166666666666664</ele><time>2026-04-08T15:49:05.999Z</time></trkpt><trkpt lat="50.93635082410607" lon="5.002554914511667"><ele>36.0</ele><time>2026-04-08T15:49:06.999Z</time></trkpt><trkpt lat="50.93623941846929" lon="5.002564852446696"><ele>36.0</ele><time>2026-04-08T15:49:07.999Z</time></trkpt><trkpt lat="50.93612075367937" lon="5.0025693107721105"><ele>36.0</ele><time>2026-04-08T15:49:08.999Z</time></trkpt><trkpt lat="50.936001638713236" lon="5.00257283602548"><ele>36.0</ele><time>2026-04-08T15:49:09.999Z</time></trkpt><trkpt lat="50.93588260850766" lon="5.0025780802667645"><ele>36.0</ele><time>2026-04-08T15:49:10.999Z</time></trkpt><trkpt lat="50.9357558351263" lon="5.002577624581599"><ele>36.0</ele><time>2026-04-08T15:49:11.999Z</time></trkpt><trkpt lat="50.935637161035835" lon="5.002586045864976"><ele>36.0</ele><time>2026-04-08T15:49:12.999Z</time></trkpt><trkpt lat="50.935522965422635" lon="5.002589894606679"><ele>36.0</ele><time>2026-04-08T15:49:13.999Z</time></trkpt><trkpt lat="50.93542555413621" lon="5.002593152995454"><ele>36.0</ele><time>2026-04-08T15:49:14.999Z</time></trkpt><trkpt lat="50.93534617344538" lon="5.002557458740412"><ele>36.0</ele><time>2026-04-08T15:49:15.999Z</time></trkpt><trkpt lat="50.935261653350956" lon="5.002584958491558"><ele>36.0</ele><time>2026-04-08T15:49:16.999Z</time></trkpt><trkpt lat="50.93519064477301" lon="5.002584817231324"><ele>36.0</ele><time>2026-04-08T15:49:17.999Z</time></trkpt><trkpt lat="50.935123420287375" lon="5.002583024239862"><ele>36.0</ele><time>2026-04-08T15:49:18.999Z</time></trkpt><trkpt lat="50.93501752877378" lon="5.002592129263873"><ele>36.0</ele><time>2026-04-08T15:49:20.999Z</time></trkpt><trkpt lat="50.93493977143487" lon="5.002579854514129"><ele>36.0</ele><time>2026-04-08T15:49:22.999Z</time></trkpt><trkpt lat="50.93487332296839" lon="5.0025531074926715"><ele>36.0</ele><time>2026-04-08T15:49:25.999Z</time></trkpt><trkpt lat="50.93494837030863" lon="5.002589475934459"><ele>36.0</ele><time>2026-04-08T15:49:29.999Z</time></trkpt><trkpt lat="50.93501456031768" lon="5.002636761926408"><ele>36.0</ele><time>2026-04-08T15:49:30.999Z</time></trkpt><trkpt lat="50.93508668841828" lon="5.002606798326148"><ele>36.0</ele><time>2026-04-08T15:49:31.999Z</time></trkpt><trkpt lat="50.9351570518187" lon="5.002589075331879"><ele>36.0</ele><time>2026-04-08T15:49:32.999Z</time></trkpt><trkpt lat="50.93522594560013" lon="5.002585784921812"><ele>36.0</ele><time>2026-04-08T15:49:33.999Z</time></trkpt><trkpt lat="50.935292210506105" lon="5.0025799984968105"><ele>36.0</ele><time>2026-04-08T15:49:34.998Z</time></trkpt><trkpt lat="50.935395387528565" lon="5.002632263136706"><ele>36.0</ele><time>2026-04-08T15:49:36.998Z</time></trkpt><trkpt lat="50.93539067140538" lon="5.002836619490209"><ele>36.0</ele><time>2026-04-08T15:49:38.998Z</time></trkpt><trkpt lat="50.9353657522543" lon="5.00295977930963"><ele>36.0</ele><time>2026-04-08T15:49:40Z</time></trkpt><trkpt lat="50.93534086545446" lon="5.003098001237048"><ele>36.0</ele><time>2026-04-08T15:49:41Z</time></trkpt><trkpt lat="50.935314638239625" lon="5.003240608617091"><ele>36.0</ele><time>2026-04-08T15:49:42Z</time></trkpt><trkpt lat="50.93528374878105" lon="5.0033954823523255"><ele>36.75</ele><time>2026-04-08T15:49:43Z</time></trkpt><trkpt lat="50.93525031556933" lon="5.003552392744381"><ele>37.5</ele><time>2026-04-08T15:49:44Z</time></trkpt><trkpt lat="50.93521184609539" lon="5.003724731379112"><ele>38.25</ele><time>2026-04-08T15:49:45Z</time></trkpt><trkpt lat="50.935150078699394" lon="5.003882057918784"><ele>39.0</ele><time>2026-04-08T15:49:46Z</time></trkpt><trkpt lat="50.93510577476938" lon="5.004052983770537"><ele>39.25</ele><time>2026-04-08T15:49:47Z</time></trkpt><trkpt lat="50.93505834762042" lon="5.004227808381491"><ele>39.5</ele><time>2026-04-08T15:49:48Z</time></trkpt><trkpt lat="50.935004680881626" lon="5.0044034430141675"><ele>39.75</ele><time>2026-04-08T15:49:49Z</time></trkpt><trkpt lat="50.93494771195451" lon="5.004570741943405"><ele>40.0</ele><time>2026-04-08T15:49:50Z</time></trkpt><trkpt lat="50.93488931567592" lon="5.004734670595287"><ele>40.5</ele><time>2026-04-08T15:49:51Z</time></trkpt><trkpt lat="50.934830867045605" lon="5.004892977831084"><ele>41.0</ele><time>2026-04-08T15:49:52Z</time></trkpt><trkpt lat="50.934768154919084" lon="5.005056922907471"><ele>41.5</ele><time>2026-04-08T15:49:53Z</time></trkpt><trkpt lat="50.93470474826826" lon="5.005214744018195"><ele>42.0</ele><time>2026-04-08T15:49:54Z</time></trkpt><trkpt lat="50.93464062803753" lon="5.00536634544869"><ele>42.0</ele><time>2026-04-08T15:49:55Z</time></trkpt><trkpt lat="50.93457435885677" lon="5.005516574614329"><ele>42.0</ele><time>2026-04-08T15:49:56Z</time></trkpt><trkpt lat="50.93450618641558" lon="5.005659949608699"><ele>42.0</ele><time>2026-04-08T15:49:57Z</time></trkpt><trkpt lat="50.93443474347661" lon="5.005797822053547"><ele>42.0</ele><time>2026-04-08T15:49:58Z</time></trkpt><trkpt lat="50.93435634962936" lon="5.005930782364141"><ele>42.2</ele><time>2026-04-08T15:49:59Z</time></trkpt><trkpt lat="50.93428315222718" lon="5.006035329190521"><ele>42.400000000000006</ele><time>2026-04-08T15:50:00Z</time></trkpt><trkpt lat="50.93420387814537" lon="5.006149211525842"><ele>42.599999999999994</ele><time>2026-04-08T15:50:01Z</time></trkpt><trkpt lat="50.93412554453808" lon="5.006264514791075"><ele>42.8</ele><time>2026-04-08T15:50:02Z</time></trkpt><trkpt lat="50.9340420722309" lon="5.006390453233615"><ele>43.0</ele><time>2026-04-08T15:50:03Z</time></trkpt><trkpt lat="50.93396214588974" lon="5.006525791950592"><ele>44.0</ele><time>2026-04-08T15:50:04Z</time></trkpt><trkpt lat="50.93388227224392" lon="5.0066610415667965"><ele>45.0</ele><time>2026-04-08T15:50:05Z</time></trkpt><trkpt lat="50.93380316186283" lon="5.006818487087718"><ele>46.0</ele><time>2026-04-08T15:50:06Z</time></trkpt><trkpt lat="50.93372599283385" lon="5.0069695943485"><ele>47.0</ele><time>2026-04-08T15:50:07Z</time></trkpt><trkpt lat="50.93364622133413" lon="5.007125370950638"><ele>47.75</ele><time>2026-04-08T15:50:08Z</time></trkpt><trkpt lat="50.933568895935295" lon="5.007286486383309"><ele>48.5</ele><time>2026-04-08T15:50:09Z</time></trkpt><trkpt lat="50.93350389416922" lon="5.00746842827049"><ele>49.25</ele><time>2026-04-08T15:50:10Z</time></trkpt><trkpt lat="50.93342832418878" lon="5.0076191535569485"><ele>50.0</ele><time>2026-04-08T15:50:11Z</time></trkpt><trkpt lat="50.93335277974726" lon="5.007769588599959"><ele>51.0</ele><time>2026-04-08T15:50:12Z</time></trkpt><trkpt lat="50.933268303357" lon="5.007896870274757"><ele>52.0</ele><time>2026-04-08T15:50:13Z</time></trkpt><trkpt lat="50.9331923675714" lon="5.0080400610946"><ele>53.0</ele><time>2026-04-08T15:50:14Z</time></trkpt><trkpt lat="50.93312918121609" lon="5.008198060633358"><ele>54.0</ele><time>2026-04-08T15:50:15Z</time></trkpt><trkpt lat="50.93304484685747" lon="5.0083473299776164"><ele>54.0</ele><time>2026-04-08T15:50:16Z</time></trkpt><trkpt lat="50.93296017719796" lon="5.008469290207799"><ele>54.0</ele><time>2026-04-08T15:50:17Z</time></trkpt><trkpt lat="50.9328927674263" lon="5.008619744827375"><ele>54.0</ele><time>2026-04-08T15:50:18Z</time></trkpt><trkpt lat="50.93280873568521" lon="5.008767356372923"><ele>54.0</ele><time>2026-04-08T15:50:19Z</time></trkpt><trkpt lat="50.932714023569226" lon="5.008880618618727"><ele>54.0</ele><time>2026-04-08T15:50:20Z</time></trkpt><trkpt lat="50.93263804946246" lon="5.009027709994474"><ele>54.0</ele><time>2026-04-08T15:50:21Z</time></trkpt><trkpt lat="50.932554050783224" lon="5.009149125024199"><ele>54.0</ele><time>2026-04-08T15:50:22Z</time></trkpt><trkpt lat="50.93246670662645" lon="5.009279842068998"><ele>54.0</ele><time>2026-04-08T15:50:23Z</time></trkpt><trkpt lat="50.93238288779639" lon="5.009392381833594"><ele>54.800000000000004</ele><time>2026-04-08T15:50:24Z</time></trkpt><trkpt lat="50.932291367064856" lon="5.00951269613204"><ele>55.60000000000001</ele><time>2026-04-08T15:50:25Z</time></trkpt><trkpt lat="50.932210155552525" lon="5.009629392989622"><ele>56.4</ele><time>2026-04-08T15:50:26Z</time></trkpt><trkpt lat="50.93212680373607" lon="5.009740362830254"><ele>57.2</ele><time>2026-04-08T15:50:27Z</time></trkpt><trkpt lat="50.93204346403717" lon="5.009835759993249"><ele>58.0</ele><time>2026-04-08T15:50:27.999Z</time></trkpt><trkpt lat="50.931979383778774" lon="5.00991960879138"><ele>58.00000000000001</ele><time>2026-04-08T15:50:28.999Z</time></trkpt><trkpt lat="50.93193017847331" lon="5.009988977085811"><ele>58.0</ele><time>2026-04-08T15:50:29.999Z</time></trkpt><trkpt lat="50.931874658835476" lon="5.010063253113997"><ele>58.00000000000001</ele><time>2026-04-08T15:50:30.999Z</time></trkpt><trkpt lat="50.93182507423595" lon="5.0101435527902565"><ele>58.00000000000001</ele><time>2026-04-08T15:50:31.999Z</time></trkpt><trkpt lat="50.93176822632703" lon="5.010220279688113"><ele>58.0</ele><time>2026-04-08T15:50:32.999Z</time></trkpt><trkpt lat="50.931706935979925" lon="5.010296393997596"><ele>58.00000000000001</ele><time>2026-04-08T15:50:33.999Z</time></trkpt><trkpt lat="50.931647452037396" lon="5.010375198290947"><ele>58.00000000000001</ele><time>2026-04-08T15:50:34.999Z</time></trkpt><trkpt lat="50.93159206163478" lon="5.010458224146149"><ele>59.166666666666664</ele><time>2026-04-08T15:50:35.999Z</time></trkpt><trkpt lat="50.93153911558613" lon="5.010524284316979"><ele>60.33333333333333</ele><time>2026-04-08T15:50:36.999Z</time></trkpt><trkpt lat="50.931485650299116" lon="5.010603448621312"><ele>61.5</ele><time>2026-04-08T15:50:37.999Z</time></trkpt><trkpt lat="50.93142633003222" lon="5.010690278848548"><ele>62.66666666666667</ele><time>2026-04-08T15:50:38.999Z</time></trkpt><trkpt lat="50.93136576373952" lon="5.010783835383424"><ele>63.833333333333336</ele><time>2026-04-08T15:50:39.999Z</time></trkpt><trkpt lat="50.93128077271262" lon="5.010871335466493"><ele>65.0</ele><time>2026-04-08T15:50:40.999Z</time></trkpt><trkpt lat="50.931207054608315" lon="5.010970159436106"><ele>65.4</ele><time>2026-04-08T15:50:41.999Z</time></trkpt><trkpt lat="50.931127047037634" lon="5.011077390695769"><ele>65.8</ele><time>2026-04-08T15:50:42.999Z</time></trkpt><trkpt lat="50.93103707584207" lon="5.011197831238097"><ele>66.2</ele><time>2026-04-08T15:50:43.999Z</time></trkpt><trkpt lat="50.93096016258875" lon="5.011299937487322"><ele>66.6</ele><time>2026-04-08T15:50:44.999Z</time></trkpt><trkpt lat="50.930869268502846" lon="5.011413057047469"><ele>67.0</ele><time>2026-04-08T15:50:45.999Z</time></trkpt><trkpt lat="50.93078379147839" lon="5.011517802085892"><ele>68.0</ele><time>2026-04-08T15:50:46.999Z</time></trkpt><trkpt lat="50.930697397455816" lon="5.011623262070921"><ele>69.0</ele><time>2026-04-08T15:50:47.999Z</time></trkpt><trkpt lat="50.930624750527045" lon="5.0117423587776315"><ele>70.0</ele><time>2026-04-08T15:50:48.999Z</time></trkpt><trkpt lat="50.930523398979815" lon="5.01185814111557"><ele>71.0</ele><time>2026-04-08T15:50:49.999Z</time></trkpt><trkpt lat="50.9304397060832" lon="5.011968362860064"><ele>72.0</ele><time>2026-04-08T15:50:50.999Z</time></trkpt><trkpt lat="50.930362092638795" lon="5.012072546529582"><ele>72.0</ele><time>2026-04-08T15:50:51.999Z</time></trkpt><trkpt lat="50.93027596447918" lon="5.012158026195307"><ele>72.0</ele><time>2026-04-08T15:50:52.999Z</time></trkpt><trkpt lat="50.93020348240017" lon="5.012230550104729"><ele>72.0</ele><time>2026-04-08T15:50:53.999Z</time></trkpt><trkpt lat="50.93013433136865" lon="5.012294377083664"><ele>72.0</ele><time>2026-04-08T15:50:54.999Z</time></trkpt><trkpt lat="50.93004948566416" lon="5.012367506069527"><ele>72.0</ele><time>2026-04-08T15:50:55.999Z</time></trkpt><trkpt lat="50.92995512243352" lon="5.012442715484122"><ele>72.2</ele><time>2026-04-08T15:50:56.999Z</time></trkpt><trkpt lat="50.929859634520874" lon="5.012524931078875"><ele>72.4</ele><time>2026-04-08T15:50:57.999Z</time></trkpt><trkpt lat="50.929782196272456" lon="5.012591606044983"><ele>72.6</ele><time>2026-04-08T15:50:58.999Z</time></trkpt><trkpt lat="50.92970237637226" lon="5.012637176508015"><ele>72.8</ele><time>2026-04-08T15:50:59.999Z</time></trkpt><trkpt lat="50.92961388310085" lon="5.01268541480153"><ele>73.0</ele><time>2026-04-08T15:51:00.999Z</time></trkpt><trkpt lat="50.92951743920259" lon="5.012731647571262"><ele>73.0</ele><time>2026-04-08T15:51:01.999Z</time></trkpt><trkpt lat="50.929423083549935" lon="5.01276314871207"><ele>73.0</ele><time>2026-04-08T15:51:02.999Z</time></trkpt><trkpt lat="50.92933003868068" lon="5.01278624368524"><ele>73.0</ele><time>2026-04-08T15:51:03.999Z</time></trkpt><trkpt lat="50.929243653047145" lon="5.012811354479567"><ele>73.0</ele><time>2026-04-08T15:51:04.999Z</time></trkpt><trkpt lat="50.92916761515196" lon="5.012848191424469"><ele>73.0</ele><time>2026-04-08T15:51:05.999Z</time></trkpt><trkpt lat="50.92910305918057" lon="5.012913492756531"><ele>73.0</ele><time>2026-04-08T15:51:06.999Z</time></trkpt><trkpt lat="50.92902107843958" lon="5.012969741813479"><ele>72.33333333333333</ele><time>2026-04-08T15:51:07.999Z</time></trkpt><trkpt lat="50.92893557847852" lon="5.012963039931951"><ele>71.66666666666666</ele><time>2026-04-08T15:51:08.999Z</time></trkpt><trkpt lat="50.92887077072101" lon="5.012926700798741"><ele>71.0</ele><time>2026-04-08T15:51:09.999Z</time></trkpt><trkpt lat="50.92879911727854" lon="5.012879314474693"><ele>70.33333333333333</ele><time>2026-04-08T15:51:10.999Z</time></trkpt><trkpt lat="50.92871220198652" lon="5.012840016055292"><ele>69.66666666666667</ele><time>2026-04-08T15:51:11.999Z</time></trkpt><trkpt lat="50.92861793104552" lon="5.012797391799561"><ele>69.0</ele><time>2026-04-08T15:51:12.999Z</time></trkpt><trkpt lat="50.92852784842994" lon="5.012782255766062"><ele>69.0</ele><time>2026-04-08T15:51:13.999Z</time></trkpt><trkpt lat="50.92843186043527" lon="5.012730600763574"><ele>69.0</ele><time>2026-04-08T15:51:14.999Z</time></trkpt><trkpt lat="50.928329812942785" lon="5.012677225549918"><ele>69.0</ele><time>2026-04-08T15:51:15.999Z</time></trkpt><trkpt lat="50.92821390674938" lon="5.012616038181197"><ele>69.0</ele><time>2026-04-08T15:51:16.999Z</time></trkpt><trkpt lat="50.92810751279699" lon="5.01255942048621"><ele>69.0</ele><time>2026-04-08T15:51:17.999Z</time></trkpt><trkpt lat="50.92799883141459" lon="5.012503871105463"><ele>67.8</ele><time>2026-04-08T15:51:18.999Z</time></trkpt><trkpt lat="50.92789079650579" lon="5.012440497406832"><ele>66.60000000000001</ele><time>2026-04-08T15:51:19.999Z</time></trkpt><trkpt lat="50.927782555003986" lon="5.012379211159669"><ele>65.4</ele><time>2026-04-08T15:51:20.999Z</time></trkpt><trkpt lat="50.92767904481615" lon="5.012318972890375"><ele>64.2</ele><time>2026-04-08T15:51:21.999Z</time></trkpt><trkpt lat="50.92758777099706" lon="5.012257092589071"><ele>63.0</ele><time>2026-04-08T15:51:22.999Z</time></trkpt><trkpt lat="50.92750527320795" lon="5.012203204630128"><ele>62.5</ele><time>2026-04-08T15:51:23.999Z</time></trkpt><trkpt lat="50.927430713076305" lon="5.012137383026273"><ele>62.0</ele><time>2026-04-08T15:51:24.999Z</time></trkpt><trkpt lat="50.927365891725806" lon="5.012083027348554"><ele>61.5</ele><time>2026-04-08T15:51:25.999Z</time></trkpt><trkpt lat="50.92729618846119" lon="5.0120234749183945"><ele>61.0</ele><time>2026-04-08T15:51:26.999Z</time></trkpt><trkpt lat="50.9272188756275" lon="5.011961598340772"><ele>60.5</ele><time>2026-04-08T15:51:27.999Z</time></trkpt><trkpt lat="50.927133803978975" lon="5.011891237716219"><ele>60.0</ele><time>2026-04-08T15:51:28.999Z</time></trkpt><trkpt lat="50.92704329114268" lon="5.011820341982505"><ele>60.0</ele><time>2026-04-08T15:51:29.999Z</time></trkpt><trkpt lat="50.92695423613663" lon="5.011741244202445"><ele>60.0</ele><time>2026-04-08T15:51:30.999Z</time></trkpt><trkpt lat="50.92686272449054" lon="5.011662664469866"><ele>60.0</ele><time>2026-04-08T15:51:31.998Z</time></trkpt><trkpt lat="50.9267743067525" lon="5.011567752901933"><ele>60.0</ele><time>2026-04-08T15:51:32.998Z</time></trkpt><trkpt lat="50.92670102689222" lon="5.011494652953688"><ele>60.0</ele><time>2026-04-08T15:51:33.998Z</time></trkpt><trkpt lat="50.9266419500843" lon="5.01142982826333"><ele>60.166666666666664</ele><time>2026-04-08T15:51:34.998Z</time></trkpt><trkpt lat="50.9265753430164" lon="5.011358382765149"><ele>60.33333333333333</ele><time>2026-04-08T15:51:36.998Z</time></trkpt><trkpt lat="50.92653819402776" lon="5.011267464059346"><ele>60.5</ele><time>2026-04-08T15:51:39.998Z</time></trkpt><trkpt lat="50.926597176724414" lon="5.0113754192929365"><ele>60.666666666666664</ele><time>2026-04-08T15:52:03Z</time></trkpt><trkpt lat="50.92666530224492" lon="5.0114498811900985"><ele>60.83333333333333</ele><time>2026-04-08T15:52:04Z</time></trkpt><trkpt lat="50.92671450329571" lon="5.011529015116769"><ele>61.0</ele><time>2026-04-08T15:52:05Z</time></trkpt><trkpt lat="50.926777436717956" lon="5.011597513188416"><ele>60.99999999999999</ele><time>2026-04-08T15:52:06Z</time></trkpt><trkpt lat="50.92683577673532" lon="5.0116533384775455"><ele>61.0</ele><time>2026-04-08T15:52:07Z</time></trkpt><trkpt lat="50.92693287682302" lon="5.011743010969277"><ele>61.0</ele><time>2026-04-08T15:52:09Z</time></trkpt><trkpt lat="50.92699880848073" lon="5.011807233847167"><ele>61.0</ele><time>2026-04-08T15:52:10Z</time></trkpt><trkpt lat="50.92706226874178" lon="5.011864614806002"><ele>60.99999999999999</ele><time>2026-04-08T15:52:11Z</time></trkpt><trkpt lat="50.92712139709503" lon="5.011910293251512"><ele>61.0</ele><time>2026-04-08T15:52:12Z</time></trkpt><trkpt lat="50.927183625350786" lon="5.011956976211007"><ele>60.83333333333333</ele><time>2026-04-08T15:52:13Z</time></trkpt><trkpt lat="50.92724262296423" lon="5.012000665740565"><ele>60.666666666666664</ele><time>2026-04-08T15:52:14Z</time></trkpt><trkpt lat="50.92730317714402" lon="5.012053461201478"><ele>60.5</ele><time>2026-04-08T15:52:15Z</time></trkpt><trkpt lat="50.92735741641374" lon="5.0121098106831194"><ele>60.33333333333333</ele><time>2026-04-08T15:52:16Z</time></trkpt><trkpt lat="50.927424286905435" lon="5.012235744818974"><ele>60.166666666666664</ele><time>2026-04-08T15:52:18Z</time></trkpt><trkpt lat="50.9274945556537" lon="5.012299148977342"><ele>60.0</ele><time>2026-04-08T15:52:20Z</time></trkpt><trkpt lat="50.92758459910049" lon="5.012382117799942"><ele>59.33333333333333</ele><time>2026-04-08T15:52:22Z</time></trkpt><trkpt lat="50.92748956483418" lon="5.01282755847562"><ele>58.666666666666664</ele><time>2026-04-08T15:52:23Z</time></trkpt><trkpt lat="50.92750498022419" lon="5.012953114159188"><ele>58.0</ele><time>2026-04-08T15:52:24Z</time></trkpt><trkpt lat="50.927525476104904" lon="5.013085637744501"><ele>57.99999999999999</ele><time>2026-04-08T15:52:25Z</time></trkpt><trkpt lat="50.92754694887278" lon="5.013223175809896"><ele>58.0</ele><time>2026-04-08T15:52:26Z</time></trkpt><trkpt lat="50.9275701601494" lon="5.013344747875608"><ele>58.0</ele><time>2026-04-08T15:52:27Z</time></trkpt><trkpt lat="50.92759476272406" lon="5.013478204057078"><ele>58.0</ele><time>2026-04-08T15:52:28Z</time></trkpt><trkpt lat="50.927616026524966" lon="5.0136066492671745"><ele>57.99999999999999</ele><time>2026-04-08T15:52:28.999Z</time></trkpt><trkpt lat="50.92764461336304" lon="5.013749255342911"><ele>58.0</ele><time>2026-04-08T15:52:29.999Z</time></trkpt><trkpt lat="50.9276722971626" lon="5.013862694897438"><ele>58.666666666666664</ele><time>2026-04-08T15:52:30.999Z</time></trkpt><trkpt lat="50.92770093497078" lon="5.0139920818918675"><ele>59.33333333333333</ele><time>2026-04-08T15:52:31.999Z</time></trkpt><trkpt lat="50.92772928704714" lon="5.014127323234052"><ele>60.0</ele><time>2026-04-08T15:52:32.999Z</time></trkpt><trkpt lat="50.9277625100199" lon="5.014268172529915"><ele>60.66666666666667</ele><time>2026-04-08T15:52:33.999Z</time></trkpt><trkpt lat="50.92779581307556" lon="5.014388314492774"><ele>61.333333333333336</ele><time>2026-04-08T15:52:34.999Z</time></trkpt><trkpt lat="50.92782427683935" lon="5.014504461885098"><ele>62.0</ele><time>2026-04-08T15:52:35.999Z</time></trkpt><trkpt lat="50.927851197850465" lon="5.014629743842169"><ele>62.333333333333336</ele><time>2026-04-08T15:52:36.999Z</time></trkpt><trkpt lat="50.92787972855329" lon="5.014733391451142"><ele>62.66666666666667</ele><time>2026-04-08T15:52:37.999Z</time></trkpt><trkpt lat="50.927913236389514" lon="5.014870013283783"><ele>63.0</ele><time>2026-04-08T15:52:38.999Z</time></trkpt><trkpt lat="50.927942837326235" lon="5.014991342883057"><ele>63.33333333333333</ele><time>2026-04-08T15:52:39.999Z</time></trkpt><trkpt lat="50.92797093044135" lon="5.015107189758509"><ele>63.666666666666664</ele><time>2026-04-08T15:52:40.999Z</time></trkpt><trkpt lat="50.927998954977745" lon="5.015246443922088"><ele>64.0</ele><time>2026-04-08T15:52:41.999Z</time></trkpt><trkpt lat="50.92802158621632" lon="5.015362892616431"><ele>64.16666666666666</ele><time>2026-04-08T15:52:42.999Z</time></trkpt><trkpt lat="50.9280445742421" lon="5.015507075838291"><ele>64.33333333333333</ele><time>2026-04-08T15:52:43.999Z</time></trkpt><trkpt lat="50.92807122869117" lon="5.015624947217227"><ele>64.5</ele><time>2026-04-08T15:52:44.999Z</time></trkpt><trkpt lat="50.92809685091139" lon="5.015755508073653"><ele>64.66666666666667</ele><time>2026-04-08T15:52:45.999Z</time></trkpt><trkpt lat="50.92812188476532" lon="5.015900759464715"><ele>64.83333333333334</ele><time>2026-04-08T15:52:46.999Z</time></trkpt><trkpt lat="50.92814375819958" lon="5.0160217756172045"><ele>65.0</ele><time>2026-04-08T15:52:47.999Z</time></trkpt><trkpt lat="50.92815864520055" lon="5.016121076186257"><ele>65.16666666666667</ele><time>2026-04-08T15:52:48.999Z</time></trkpt><trkpt lat="50.92817203755085" lon="5.016235856626314"><ele>65.33333333333334</ele><time>2026-04-08T15:52:49.999Z</time></trkpt><trkpt lat="50.92818463043012" lon="5.016357290493261"><ele>65.5</ele><time>2026-04-08T15:52:50.999Z</time></trkpt><trkpt lat="50.92819408891663" lon="5.016497872714898"><ele>65.66666666666667</ele><time>2026-04-08T15:52:51.999Z</time></trkpt><trkpt lat="50.928204996966976" lon="5.016634177100695"><ele>65.83333333333333</ele><time>2026-04-08T15:52:52.999Z</time></trkpt><trkpt lat="50.92821594097778" lon="5.016768356703055"><ele>66.0</ele><time>2026-04-08T15:52:53.999Z</time></trkpt><trkpt lat="50.92822845053628" lon="5.016904980798292"><ele>66.16666666666667</ele><time>2026-04-08T15:52:54.999Z</time></trkpt><trkpt lat="50.92824129328033" lon="5.0170372670022525"><ele>66.33333333333333</ele><time>2026-04-08T15:52:55.999Z</time></trkpt><trkpt lat="50.92825544660375" lon="5.017168421156519"><ele>66.5</ele><time>2026-04-08T15:52:56.999Z</time></trkpt><trkpt lat="50.928263487236386" lon="5.0172924919544295"><ele>66.66666666666666</ele><time>2026-04-08T15:52:57.999Z</time></trkpt><trkpt lat="50.92827132267933" lon="5.017418968498579"><ele>66.83333333333333</ele><time>2026-04-08T15:52:58.999Z</time></trkpt><trkpt lat="50.92828258039385" lon="5.017539865542971"><ele>67.0</ele><time>2026-04-08T15:52:59.999Z</time></trkpt><trkpt lat="50.92829268668078" lon="5.017654532649304"><ele>67.16666666666666</ele><time>2026-04-08T15:53:00.999Z</time></trkpt><trkpt lat="50.928303686910645" lon="5.01777308493849"><ele>67.33333333333333</ele><time>2026-04-08T15:53:01.999Z</time></trkpt><trkpt lat="50.9283048962083" lon="5.0179080378974055"><ele>67.5</ele><time>2026-04-08T15:53:02.999Z</time></trkpt><trkpt lat="50.92830705502439" lon="5.018033443129514"><ele>67.66666666666667</ele><time>2026-04-08T15:53:03.999Z</time></trkpt><trkpt lat="50.92831006018796" lon="5.01814849950186"><ele>67.83333333333334</ele><time>2026-04-08T15:53:04.999Z</time></trkpt><trkpt lat="50.92831116363402" lon="5.018265439175462"><ele>68.0</ele><time>2026-04-08T15:53:05.999Z</time></trkpt><trkpt lat="50.928316907375816" lon="5.018468436227523"><ele>68.0</ele><time>2026-04-08T15:53:07.999Z</time></trkpt><trkpt lat="50.92831939800423" lon="5.018577534601906"><ele>68.0</ele><time>2026-04-08T15:53:08.999Z</time></trkpt><trkpt lat="50.92832068509553" lon="5.018677806757228"><ele>68.0</ele><time>2026-04-08T15:53:09.999Z</time></trkpt><trkpt lat="50.92832162994903" lon="5.018783797348583"><ele>68.0</ele><time>2026-04-08T15:53:10.999Z</time></trkpt><trkpt lat="50.92832367375876" lon="5.018890002108565"><ele>68.0</ele><time>2026-04-08T15:53:11.999Z</time></trkpt><trkpt lat="50.92832768171795" lon="5.019073339907093"><ele>68.0</ele><time>2026-04-08T15:53:13.999Z</time></trkpt><trkpt lat="50.928331373464914" lon="5.019247617753179"><ele>67.8</ele><time>2026-04-08T15:53:15.999Z</time></trkpt><trkpt lat="50.92833512183997" lon="5.01944789715487"><ele>67.6</ele><time>2026-04-08T15:53:17.999Z</time></trkpt><trkpt lat="50.92833852184032" lon="5.019592657513968"><ele>67.4</ele><time>2026-04-08T15:53:19.999Z</time></trkpt><trkpt lat="50.92834281384042" lon="5.019692402524024"><ele>67.2</ele><time>2026-04-08T15:53:21.999Z</time></trkpt><trkpt lat="50.92841225726254" lon="5.019786983172356"><ele>67.0</ele><time>2026-04-08T15:53:24.999Z</time></trkpt><trkpt lat="50.92851841316192" lon="5.019832698226891"><ele>68.33333333333333</ele><time>2026-04-08T15:53:26.999Z</time></trkpt><trkpt lat="50.92858735659719" lon="5.019875701125536"><ele>69.66666666666666</ele><time>2026-04-08T15:53:27.999Z</time></trkpt><trkpt lat="50.928653538188364" lon="5.0199225119564845"><ele>71.0</ele><time>2026-04-08T15:53:28.999Z</time></trkpt><trkpt lat="50.928735783161656" lon="5.019995251905762"><ele>72.33333333333333</ele><time>2026-04-08T15:53:30.998Z</time></trkpt><trkpt lat="50.92879336788994" lon="5.019933359555021"><ele>73.66666666666667</ele><time>2026-04-08T15:53:32.998Z</time></trkpt><trkpt lat="50.9287840888295" lon="5.019797993102927"><ele>75.0</ele><time>2026-04-08T15:53:34.998Z</time></trkpt><trkpt lat="50.92877510824505" lon="5.019696563656418"><ele>74.99999999999999</ele><time>2026-04-08T15:53:35.998Z</time></trkpt><trkpt lat="50.92876945438867" lon="5.019569537746506"><ele>75.0</ele><time>2026-04-08T15:53:36.998Z</time></trkpt><trkpt lat="50.92877088648158" lon="5.019450535955385"><ele>75.0</ele><time>2026-04-08T15:53:37.998Z</time></trkpt><trkpt lat="50.92876865297029" lon="5.0193262565692836"><ele>75.0</ele><time>2026-04-08T15:53:38.998Z</time></trkpt><trkpt lat="50.9287651660639" lon="5.019207900741711"><ele>75.0</ele><time>2026-04-08T15:53:39.998Z</time></trkpt><trkpt lat="50.92876050289205" lon="5.0190937650602"><ele>74.99999999999999</ele><time>2026-04-08T15:53:40.998Z</time></trkpt><trkpt lat="50.92875861184701" lon="5.018993127401356"><ele>75.0</ele><time>2026-04-08T15:53:41.998Z</time></trkpt><trkpt lat="50.92876155828012" lon="5.018886115158088"><ele>75.2</ele><time>2026-04-08T15:53:42.998Z</time></trkpt><trkpt lat="50.92876076650388" lon="5.018778772633226"><ele>75.4</ele><time>2026-04-08T15:53:43.998Z</time></trkpt><trkpt lat="50.928752739934374" lon="5.018589032517105"><ele>75.6</ele><time>2026-04-08T15:53:45.998Z</time></trkpt><trkpt lat="50.928754323247134" lon="5.018415047170382"><ele>75.8</ele><time>2026-04-08T15:53:47.998Z</time></trkpt><trkpt lat="50.928745688934185" lon="5.018237608257209"><ele>76.0</ele><time>2026-04-08T15:53:49.998Z</time></trkpt><trkpt lat="50.928759953088566" lon="5.018139912321051"><ele>76.0</ele><time>2026-04-08T15:53:52Z</time></trkpt><trkpt lat="50.92884867668842" lon="5.018157946940037"><ele>76.0</ele><time>2026-04-08T15:54:12Z</time></trkpt><trkpt lat="50.92897303615675" lon="5.018254421160126"><ele>76.0</ele><time>2026-04-08T15:54:14Z</time></trkpt><trkpt lat="50.929048118583566" lon="5.018305198923208"><ele>76.0</ele><time>2026-04-08T15:54:15Z</time></trkpt><trkpt lat="50.929194696267054" lon="5.01839236616332"><ele>76.39999999999999</ele><time>2026-04-08T15:54:17Z</time></trkpt><trkpt lat="50.92928444596717" lon="5.018450209005243"><ele>76.8</ele><time>2026-04-08T15:54:18Z</time></trkpt><trkpt lat="50.92937877707941" lon="5.018507999335578"><ele>77.19999999999999</ele><time>2026-04-08T15:54:19Z</time></trkpt><trkpt lat="50.92947219532054" lon="5.0185642885597"><ele>77.6</ele><time>2026-04-08T15:54:20Z</time></trkpt><trkpt lat="50.92956347117423" lon="5.018623507661541"><ele>78.0</ele><time>2026-04-08T15:54:21Z</time></trkpt><trkpt lat="50.929649107170164" lon="5.018679136795068"><ele>78.0</ele><time>2026-04-08T15:54:22Z</time></trkpt><trkpt lat="50.929736458150934" lon="5.018731744649646"><ele>78.0</ele><time>2026-04-08T15:54:23Z</time></trkpt><trkpt lat="50.92982316259469" lon="5.0187867004913755"><ele>78.0</ele><time>2026-04-08T15:54:24Z</time></trkpt><trkpt lat="50.929911106389746" lon="5.018841785242652"><ele>78.0</ele><time>2026-04-08T15:54:25Z</time></trkpt><trkpt lat="50.929984228156265" lon="5.018889485043936"><ele>78.0</ele><time>2026-04-08T15:54:25.999Z</time></trkpt><trkpt lat="50.93004669378293" lon="5.018931080685374"><ele>78.0</ele><time>2026-04-08T15:54:26.999Z</time></trkpt><trkpt lat="50.930121233147105" lon="5.018979911053573"><ele>77.8</ele><time>2026-04-08T15:54:27.999Z</time></trkpt><trkpt lat="50.93020215420905" lon="5.019029487582821"><ele>77.6</ele><time>2026-04-08T15:54:28.999Z</time></trkpt><trkpt lat="50.930291140673624" lon="5.019082117273536"><ele>77.4</ele><time>2026-04-08T15:54:29.999Z</time></trkpt><trkpt lat="50.930380998835574" lon="5.019133630219355"><ele>77.2</ele><time>2026-04-08T15:54:30.999Z</time></trkpt><trkpt lat="50.930470796996694" lon="5.019189671595743"><ele>77.0</ele><time>2026-04-08T15:54:31.999Z</time></trkpt><trkpt lat="50.93056477384332" lon="5.019249729513494"><ele>76.83333333333334</ele><time>2026-04-08T15:54:32.999Z</time></trkpt><trkpt lat="50.93064175081522" lon="5.01930207111926"><ele>76.66666666666667</ele><time>2026-04-08T15:54:33.999Z</time></trkpt><trkpt lat="50.93072133338721" lon="5.0193508718937965"><ele>76.5</ele><time>2026-04-08T15:54:34.999Z</time></trkpt><trkpt lat="50.930803688906494" lon="5.019398441019568"><ele>76.33333333333333</ele><time>2026-04-08T15:54:35.999Z</time></trkpt><trkpt lat="50.930883844385264" lon="5.019446590952606"><ele>76.16666666666666</ele><time>2026-04-08T15:54:36.999Z</time></trkpt><trkpt lat="50.930951457151295" lon="5.019491396883248"><ele>76.0</ele><time>2026-04-08T15:54:37.999Z</time></trkpt><trkpt lat="50.9310201651068" lon="5.01952219318871"><ele>76.0</ele><time>2026-04-08T15:54:38.999Z</time></trkpt><trkpt lat="50.93110806883444" lon="5.0195783014887825"><ele>76.0</ele><time>2026-04-08T15:54:40.999Z</time></trkpt><trkpt lat="50.93119281836579" lon="5.0196455681527645"><ele>76.0</ele><time>2026-04-08T15:54:42.999Z</time></trkpt><trkpt lat="50.93124572504057" lon="5.019821408688953"><ele>76.0</ele><time>2026-04-08T15:54:44.999Z</time></trkpt><trkpt lat="50.931187052220665" lon="5.019953784654944"><ele>76.0</ele><time>2026-04-08T15:54:45.999Z</time></trkpt><trkpt lat="50.93119570309543" lon="5.02008206948273"><ele>76.0</ele><time>2026-04-08T15:54:46.999Z</time></trkpt><trkpt lat="50.93120404978989" lon="5.020205843546162"><ele>76.0</ele><time>2026-04-08T15:54:47.999Z</time></trkpt><trkpt lat="50.93121269918945" lon="5.020334106400315"><ele>76.0</ele><time>2026-04-08T15:54:48.999Z</time></trkpt><trkpt lat="50.931225917103596" lon="5.020505378485099"><ele>76.0</ele><time>2026-04-08T15:54:49.999Z</time></trkpt><trkpt lat="50.9312427989991" lon="5.020681326597849"><ele>76.0</ele><time>2026-04-08T15:54:50.999Z</time></trkpt><trkpt lat="50.9312644776742" lon="5.020874512355697"><ele>76.39999999999999</ele><time>2026-04-08T15:54:51.999Z</time></trkpt><trkpt lat="50.93128973814057" lon="5.021062624363493"><ele>76.8</ele><time>2026-04-08T15:54:52.999Z</time></trkpt><trkpt lat="50.93131448352659" lon="5.021247487221856"><ele>77.19999999999999</ele><time>2026-04-08T15:54:53.999Z</time></trkpt><trkpt lat="50.931335949096805" lon="5.021408468142122"><ele>77.6</ele><time>2026-04-08T15:54:54.999Z</time></trkpt><trkpt lat="50.931370011628765" lon="5.021552951941399"><ele>78.0</ele><time>2026-04-08T15:54:55.999Z</time></trkpt><trkpt lat="50.93138970944813" lon="5.021716380224876"><ele>78.4</ele><time>2026-04-08T15:54:56.999Z</time></trkpt><trkpt lat="50.93141215873305" lon="5.021885071383516"><ele>78.8</ele><time>2026-04-08T15:54:57.999Z</time></trkpt><trkpt lat="50.93143679154556" lon="5.0220627844215056"><ele>79.2</ele><time>2026-04-08T15:54:58.999Z</time></trkpt><trkpt lat="50.93146050951177" lon="5.022232087923994"><ele>79.6</ele><time>2026-04-08T15:54:59.999Z</time></trkpt><trkpt lat="50.93147997900004" lon="5.022394633228185"><ele>80.0</ele><time>2026-04-08T15:55:00.999Z</time></trkpt><trkpt lat="50.93150797860194" lon="5.022581095328652"><ele>80.0</ele><time>2026-04-08T15:55:01.999Z</time></trkpt><trkpt lat="50.93153557664121" lon="5.022777931104843"><ele>80.0</ele><time>2026-04-08T15:55:02.999Z</time></trkpt><trkpt lat="50.9315664705616" lon="5.0229849227728405"><ele>80.0</ele><time>2026-04-08T15:55:03.999Z</time></trkpt><trkpt lat="50.931598866650376" lon="5.023185371110465"><ele>80.0</ele><time>2026-04-08T15:55:04.999Z</time></trkpt><trkpt lat="50.93162311564851" lon="5.023378676255908"><ele>79.5</ele><time>2026-04-08T15:55:05.999Z</time></trkpt><trkpt lat="50.93165250920497" lon="5.023569749942012"><ele>79.0</ele><time>2026-04-08T15:55:06.999Z</time></trkpt><trkpt lat="50.93168503922898" lon="5.023769171949741"><ele>78.5</ele><time>2026-04-08T15:55:07.999Z</time></trkpt><trkpt lat="50.93171984829577" lon="5.023969559796628"><ele>78.0</ele><time>2026-04-08T15:55:08.999Z</time></trkpt><trkpt lat="50.93175172209182" lon="5.024160347984638"><ele>77.75</ele><time>2026-04-08T15:55:09.999Z</time></trkpt><trkpt lat="50.93177848154549" lon="5.024356146979528"><ele>77.5</ele><time>2026-04-08T15:55:10.999Z</time></trkpt><trkpt lat="50.93180447308042" lon="5.024555316075181"><ele>77.25</ele><time>2026-04-08T15:55:11.999Z</time></trkpt><trkpt lat="50.93181091116611" lon="5.024769837670341"><ele>77.0</ele><time>2026-04-08T15:55:12.999Z</time></trkpt><trkpt lat="50.93183228511552" lon="5.02497437175914"><ele>77.0</ele><time>2026-04-08T15:55:13.999Z</time></trkpt><trkpt lat="50.93185320710389" lon="5.025174585088108"><ele>77.0</ele><time>2026-04-08T15:55:14.999Z</time></trkpt><trkpt lat="50.931889003797856" lon="5.0253713069343835"><ele>77.0</ele><time>2026-04-08T15:55:15.999Z</time></trkpt><trkpt lat="50.93191240131713" lon="5.025563675397836"><ele>77.0</ele><time>2026-04-08T15:55:16.999Z</time></trkpt><trkpt lat="50.931936386186905" lon="5.025760242828701"><ele>77.0</ele><time>2026-04-08T15:55:17.999Z</time></trkpt><trkpt lat="50.93195881533517" lon="5.025943462806638"><ele>77.0</ele><time>2026-04-08T15:55:18.999Z</time></trkpt><trkpt lat="50.931980551109035" lon="5.026134418972781"><ele>77.0</ele><time>2026-04-08T15:55:19.999Z</time></trkpt><trkpt lat="50.93198864945879" lon="5.026335043993269"><ele>77.0</ele><time>2026-04-08T15:55:20.999Z</time></trkpt><trkpt lat="50.93201331751656" lon="5.026520146648015"><ele>77.0</ele><time>2026-04-08T15:55:21.999Z</time></trkpt><trkpt lat="50.93205844880247" lon="5.0267087077550485"><ele>77.0</ele><time>2026-04-08T15:55:22.999Z</time></trkpt><trkpt lat="50.93206577288166" lon="5.0268709663288"><ele>77.0</ele><time>2026-04-08T15:55:23.999Z</time></trkpt><trkpt lat="50.93208808678699" lon="5.027020995311435"><ele>77.0</ele><time>2026-04-08T15:55:24.998Z</time></trkpt><trkpt lat="50.932111225226734" lon="5.0271765680806855"><ele>77.0</ele><time>2026-04-08T15:55:25.998Z</time></trkpt><trkpt lat="50.932148275361925" lon="5.027324841903938"><ele>77.2</ele><time>2026-04-08T15:55:26.998Z</time></trkpt><trkpt lat="50.93217026511933" lon="5.027495026410439"><ele>77.4</ele><time>2026-04-08T15:55:27.998Z</time></trkpt><trkpt lat="50.93219287708949" lon="5.027654650822185"><ele>77.6</ele><time>2026-04-08T15:55:28.998Z</time></trkpt><trkpt lat="50.93222444687654" lon="5.027801329216443"><ele>77.8</ele><time>2026-04-08T15:55:29.998Z</time></trkpt><trkpt lat="50.93224845407015" lon="5.027948013877065"><ele>78.0</ele><time>2026-04-08T15:55:30.998Z</time></trkpt><trkpt lat="50.932279193775436" lon="5.028095694655901"><ele>78.0</ele><time>2026-04-08T15:55:31.998Z</time></trkpt><trkpt lat="50.9323046910956" lon="5.028240717792276"><ele>78.0</ele><time>2026-04-08T15:55:32.998Z</time></trkpt><trkpt lat="50.93233748525983" lon="5.028379338470942"><ele>78.0</ele><time>2026-04-08T15:55:33.998Z</time></trkpt><trkpt lat="50.932370069078004" lon="5.028525213110765"><ele>78.0</ele><time>2026-04-08T15:55:34.998Z</time></trkpt><trkpt lat="50.93238688395186" lon="5.028678395676706"><ele>78.0</ele><time>2026-04-08T15:55:35.998Z</time></trkpt><trkpt lat="50.93241762370026" lon="5.028811508576377"><ele>77.83333333333333</ele><time>2026-04-08T15:55:36.998Z</time></trkpt><trkpt lat="50.932426496313546" lon="5.028925091750108"><ele>77.66666666666667</ele><time>2026-04-08T15:55:37.998Z</time></trkpt><trkpt lat="50.93244725414719" lon="5.029054307904472"><ele>77.5</ele><time>2026-04-08T15:55:38.998Z</time></trkpt><trkpt lat="50.932459191467316" lon="5.029200743258067"><ele>77.33333333333334</ele><time>2026-04-08T15:55:39.998Z</time></trkpt><trkpt lat="50.93247989528287" lon="5.02932909521422"><ele>77.16666666666667</ele><time>2026-04-08T15:55:40.998Z</time></trkpt><trkpt lat="50.93250720154703" lon="5.029466044738452"><ele>77.0</ele><time>2026-04-08T15:55:41.998Z</time></trkpt><trkpt lat="50.93253685055583" lon="5.029604131593062"><ele>77.0</ele><time>2026-04-08T15:55:42.998Z</time></trkpt><trkpt lat="50.932570975660944" lon="5.02973332817416"><ele>77.0</ele><time>2026-04-08T15:55:43.998Z</time></trkpt><trkpt lat="50.93259841087474" lon="5.029851323015188"><ele>77.0</ele><time>2026-04-08T15:55:44.998Z</time></trkpt><trkpt lat="50.93263102902855" lon="5.029983153309566"><ele>77.0</ele><time>2026-04-08T15:55:45.998Z</time></trkpt><trkpt lat="50.93266594940181" lon="5.03012135831427"><ele>77.0</ele><time>2026-04-08T15:55:46.998Z</time></trkpt><trkpt lat="50.932698199153776" lon="5.0302217368982065"><ele>77.0</ele><time>2026-04-08T15:55:47.998Z</time></trkpt><trkpt lat="50.93273160777684" lon="5.030340187163215"><ele>76.66666666666667</ele><time>2026-04-08T15:55:48.998Z</time></trkpt><trkpt lat="50.9327700763437" lon="5.030473463891713"><ele>76.33333333333334</ele><time>2026-04-08T15:55:49.998Z</time></trkpt><trkpt lat="50.93281010867071" lon="5.0306111912978295"><ele>76.0</ele><time>2026-04-08T15:55:50.998Z</time></trkpt><trkpt lat="50.93284921415221" lon="5.030747459215914"><ele>75.66666666666667</ele><time>2026-04-08T15:55:51.998Z</time></trkpt><trkpt lat="50.932885102151566" lon="5.030869895102475"><ele>75.33333333333333</ele><time>2026-04-08T15:55:52.998Z</time></trkpt><trkpt lat="50.93291598068771" lon="5.030980447363568"><ele>75.0</ele><time>2026-04-08T15:55:53.998Z</time></trkpt><trkpt lat="50.93294610700967" lon="5.031081455548904"><ele>74.5</ele><time>2026-04-08T15:55:54.998Z</time></trkpt><trkpt lat="50.93298280079412" lon="5.031198396971536"><ele>74.0</ele><time>2026-04-08T15:55:55.998Z</time></trkpt><trkpt lat="50.932991407480415" lon="5.031301915701686"><ele>73.5</ele><time>2026-04-08T15:55:57Z</time></trkpt><trkpt lat="50.93301309737412" lon="5.031408771813651"><ele>73.0</ele><time>2026-04-08T15:55:58Z</time></trkpt><trkpt lat="50.93304156086223" lon="5.0316052360217"><ele>72.5</ele><time>2026-04-08T15:56:00Z</time></trkpt><trkpt lat="50.93311879700939" lon="5.031651317618299"><ele>72.0</ele><time>2026-04-08T15:56:01Z</time></trkpt><trkpt lat="50.93318314192387" lon="5.031690078776445"><ele>71.6</ele><time>2026-04-08T15:56:02Z</time></trkpt><trkpt lat="50.93325161700442" lon="5.031757120731524"><ele>71.2</ele><time>2026-04-08T15:56:03Z</time></trkpt><trkpt lat="50.93332862766646" lon="5.031813548955302"><ele>70.8</ele><time>2026-04-08T15:56:04Z</time></trkpt><trkpt lat="50.93340888383197" lon="5.031883517316921"><ele>70.4</ele><time>2026-04-08T15:56:05Z</time></trkpt><trkpt lat="50.93349584978362" lon="5.03195890984736"><ele>70.0</ele><time>2026-04-08T15:56:06Z</time></trkpt><trkpt lat="50.933587280517514" lon="5.032045455139851"><ele>71.2</ele><time>2026-04-08T15:56:07Z</time></trkpt><trkpt lat="50.93368359128832" lon="5.032113999463271"><ele>72.4</ele><time>2026-04-08T15:56:08Z</time></trkpt><trkpt lat="50.93377331710402" lon="5.032209202639848"><ele>73.6</ele><time>2026-04-08T15:56:09Z</time></trkpt><trkpt lat="50.933854233820284" lon="5.032301139449388"><ele>74.8</ele><time>2026-04-08T15:56:10Z</time></trkpt><trkpt lat="50.933941691393144" lon="5.032391412411324"><ele>76.0</ele><time>2026-04-08T15:56:11Z</time></trkpt><trkpt lat="50.93402419442538" lon="5.0325090696685955"><ele>76.2</ele><time>2026-04-08T15:56:12Z</time></trkpt><trkpt lat="50.934112971711336" lon="5.0325780858037055"><ele>76.39999999999999</ele><time>2026-04-08T15:56:13Z</time></trkpt><trkpt lat="50.93419968250215" lon="5.032668613276592"><ele>76.6</ele><time>2026-04-08T15:56:14Z</time></trkpt><trkpt lat="50.93429029092965" lon="5.032758580044781"><ele>76.8</ele><time>2026-04-08T15:56:15Z</time></trkpt><trkpt lat="50.93438447955783" lon="5.032831997433749"><ele>77.0</ele><time>2026-04-08T15:56:16Z</time></trkpt><trkpt lat="50.9344664041712" lon="5.032903445199807"><ele>78.4</ele><time>2026-04-08T15:56:17Z</time></trkpt><trkpt lat="50.93454749574625" lon="5.032979959402941"><ele>79.80000000000001</ele><time>2026-04-08T15:56:18Z</time></trkpt><trkpt lat="50.934635066963324" lon="5.03303898065768"><ele>81.2</ele><time>2026-04-08T15:56:19Z</time></trkpt><trkpt lat="50.93472556556914" lon="5.033110249696668"><ele>82.60000000000001</ele><time>2026-04-08T15:56:20Z</time></trkpt><trkpt lat="50.934814756886055" lon="5.033180355644264"><ele>84.0</ele><time>2026-04-08T15:56:21Z</time></trkpt><trkpt lat="50.93491708202817" lon="5.033248044055526"><ele>83.6</ele><time>2026-04-08T15:56:22Z</time></trkpt><trkpt lat="50.93501035715601" lon="5.033313972748672"><ele>83.2</ele><time>2026-04-08T15:56:23Z</time></trkpt><trkpt lat="50.93509403993301" lon="5.0333870416788296"><ele>82.8</ele><time>2026-04-08T15:56:23.999Z</time></trkpt><trkpt lat="50.935174278721355" lon="5.033434325580026"><ele>82.39999999999999</ele><time>2026-04-08T15:56:24.999Z</time></trkpt><trkpt lat="50.935274305457426" lon="5.0334684571599535"><ele>82.0</ele><time>2026-04-08T15:56:25.999Z</time></trkpt><trkpt lat="50.93537308100346" lon="5.033513925444687"><ele>82.0</ele><time>2026-04-08T15:56:26.999Z</time></trkpt><trkpt lat="50.93547004706359" lon="5.0335551062771975"><ele>82.0</ele><time>2026-04-08T15:56:27.999Z</time></trkpt><trkpt lat="50.93555750270959" lon="5.033600863513356"><ele>82.0</ele><time>2026-04-08T15:56:28.999Z</time></trkpt><trkpt lat="50.935653742586105" lon="5.0336585337066815"><ele>82.0</ele><time>2026-04-08T15:56:29.999Z</time></trkpt><trkpt lat="50.93574207163325" lon="5.033710726830559"><ele>82.0</ele><time>2026-04-08T15:56:30.999Z</time></trkpt><trkpt lat="50.93584341782117" lon="5.033770659182379"><ele>80.19999999999999</ele><time>2026-04-08T15:56:31.999Z</time></trkpt><trkpt lat="50.93594653528024" lon="5.033831639002091"><ele>78.39999999999999</ele><time>2026-04-08T15:56:32.999Z</time></trkpt><trkpt lat="50.93603960581422" lon="5.033886677460153"><ele>76.6</ele><time>2026-04-08T15:56:33.999Z</time></trkpt><trkpt lat="50.93614082988807" lon="5.033946537598778"><ele>74.8</ele><time>2026-04-08T15:56:34.999Z</time></trkpt><trkpt lat="50.936248551873675" lon="5.033990310632938"><ele>73.0</ele><time>2026-04-08T15:56:35.999Z</time></trkpt><trkpt lat="50.936346814372385" lon="5.034081275610398"><ele>72.6</ele><time>2026-04-08T15:56:36.999Z</time></trkpt><trkpt lat="50.93645383940015" lon="5.03413967144169"><ele>72.19999999999999</ele><time>2026-04-08T15:56:37.999Z</time></trkpt><trkpt lat="50.93654188507358" lon="5.03422351411454"><ele>71.8</ele><time>2026-04-08T15:56:38.999Z</time></trkpt><trkpt lat="50.936622078661706" lon="5.034277822991133"><ele>71.39999999999999</ele><time>2026-04-08T15:56:39.999Z</time></trkpt><trkpt lat="50.93670341608115" lon="5.034347341640286"><ele>71.0</ele><time>2026-04-08T15:56:40.999Z</time></trkpt><trkpt lat="50.936778718052416" lon="5.034432996732165"><ele>70.33333333333334</ele><time>2026-04-08T15:56:41.999Z</time></trkpt><trkpt lat="50.936852339534404" lon="5.03448850821775"><ele>69.66666666666667</ele><time>2026-04-08T15:56:42.999Z</time></trkpt><trkpt lat="50.93692469737002" lon="5.034520119468271"><ele>69.0</ele><time>2026-04-08T15:56:43.999Z</time></trkpt><trkpt lat="50.937009754643135" lon="5.034527096485673"><ele>68.33333333333333</ele><time>2026-04-08T15:56:44.999Z</time></trkpt><trkpt lat="50.93709849742648" lon="5.03450085236837"><ele>67.66666666666666</ele><time>2026-04-08T15:56:45.999Z</time></trkpt><trkpt lat="50.93718871837869" lon="5.034486788986186"><ele>67.0</ele><time>2026-04-08T15:56:46.999Z</time></trkpt><trkpt lat="50.93728179532939" lon="5.0344571791154245"><ele>67.0</ele><time>2026-04-08T15:56:47.999Z</time></trkpt><trkpt lat="50.93738191346412" lon="5.03444628209528"><ele>67.0</ele><time>2026-04-08T15:56:48.999Z</time></trkpt><trkpt lat="50.93748052994069" lon="5.0344276303259505"><ele>67.0</ele><time>2026-04-08T15:56:49.999Z</time></trkpt><trkpt lat="50.93756416140042" lon="5.034413091574338"><ele>67.0</ele><time>2026-04-08T15:56:50.999Z</time></trkpt><trkpt lat="50.93764704794822" lon="5.034397561781302"><ele>67.0</ele><time>2026-04-08T15:56:51.999Z</time></trkpt><trkpt lat="50.93772797630158" lon="5.034373835813363"><ele>66.5</ele><time>2026-04-08T15:56:52.999Z</time></trkpt><trkpt lat="50.93780632199131" lon="5.034347077166384"><ele>66.0</ele><time>2026-04-08T15:56:53.999Z</time></trkpt><trkpt lat="50.937896776530444" lon="5.034336922110185"><ele>65.5</ele><time>2026-04-08T15:56:54.999Z</time></trkpt><trkpt lat="50.93796579101614" lon="5.034317629911608"><ele>65.0</ele><time>2026-04-08T15:56:55.999Z</time></trkpt><trkpt lat="50.93802937253015" lon="5.034333463486126"><ele>64.5</ele><time>2026-04-08T15:56:56.999Z</time></trkpt><trkpt lat="50.93809518845775" lon="5.03441636417723"><ele>64.0</ele><time>2026-04-08T15:56:57.999Z</time></trkpt><trkpt lat="50.93815212985968" lon="5.034514019006407"><ele>64.0</ele><time>2026-04-08T15:56:58.999Z</time></trkpt><trkpt lat="50.938212183116605" lon="5.034621024410553"><ele>64.0</ele><time>2026-04-08T15:56:59.999Z</time></trkpt><trkpt lat="50.93827032778738" lon="5.034747998540847"><ele>64.0</ele><time>2026-04-08T15:57:00.999Z</time></trkpt><trkpt lat="50.938344498169926" lon="5.034870808197826"><ele>64.0</ele><time>2026-04-08T15:57:01.999Z</time></trkpt><trkpt lat="50.93842854924329" lon="5.0349703581608205"><ele>64.0</ele><time>2026-04-08T15:57:02.999Z</time></trkpt><trkpt lat="50.938531376582716" lon="5.035045253045963"><ele>63.0</ele><time>2026-04-08T15:57:03.999Z</time></trkpt><trkpt lat="50.93861008730179" lon="5.035161848990258"><ele>62.0</ele><time>2026-04-08T15:57:04.999Z</time></trkpt><trkpt lat="50.938691081952214" lon="5.035288163667737"><ele>61.0</ele><time>2026-04-08T15:57:05.999Z</time></trkpt><trkpt lat="50.93877423557401" lon="5.035420053064685"><ele>60.0</ele><time>2026-04-08T15:57:06.999Z</time></trkpt><trkpt lat="50.93885011893711" lon="5.035552460812781"><ele>60.0</ele><time>2026-04-08T15:57:07.999Z</time></trkpt><trkpt lat="50.938928373839886" lon="5.035675373369765"><ele>60.0</ele><time>2026-04-08T15:57:08.999Z</time></trkpt><trkpt lat="50.93900624399152" lon="5.0357748673050935"><ele>60.0</ele><time>2026-04-08T15:57:09.999Z</time></trkpt><trkpt lat="50.93909531173008" lon="5.035852740763419"><ele>60.0</ele><time>2026-04-08T15:57:10.999Z</time></trkpt><trkpt lat="50.93918077097104" lon="5.0359514731403685"><ele>60.0</ele><time>2026-04-08T15:57:11.999Z</time></trkpt><trkpt lat="50.93926447052549" lon="5.036037612189456"><ele>61.0</ele><time>2026-04-08T15:57:12.999Z</time></trkpt><trkpt lat="50.93935577452691" lon="5.036103952169549"><ele>62.0</ele><time>2026-04-08T15:57:13.999Z</time></trkpt><trkpt lat="50.93946017921133" lon="5.036131322218994"><ele>63.0</ele><time>2026-04-08T15:57:14.999Z</time></trkpt><trkpt lat="50.93957558735657" lon="5.036109675398986"><ele>64.0</ele><time>2026-04-08T15:57:15.999Z</time></trkpt><trkpt lat="50.93967869380058" lon="5.0360523645557445"><ele>65.0</ele><time>2026-04-08T15:57:16.999Z</time></trkpt><trkpt lat="50.93978248916316" lon="5.035986529657727"><ele>65.0</ele><time>2026-04-08T15:57:17.999Z</time></trkpt><trkpt lat="50.93989626010409" lon="5.035946231910754"><ele>65.0</ele><time>2026-04-08T15:57:18.999Z</time></trkpt><trkpt lat="50.93999651132867" lon="5.035895375114843"><ele>65.0</ele><time>2026-04-08T15:57:19.999Z</time></trkpt><trkpt lat="50.94009728470643" lon="5.035822342632921"><ele>65.0</ele><time>2026-04-08T15:57:20.999Z</time></trkpt><trkpt lat="50.94019574724213" lon="5.035768984090662"><ele>65.0</ele><time>2026-04-08T15:57:21.999Z</time></trkpt><trkpt lat="50.94030459713521" lon="5.035745396659991"><ele>64.0</ele><time>2026-04-08T15:57:22.999Z</time></trkpt><trkpt lat="50.94040803666989" lon="5.035676171669441"><ele>63.0</ele><time>2026-04-08T15:57:23.998Z</time></trkpt><trkpt lat="50.940516697241705" lon="5.035629969452562"><ele>62.0</ele><time>2026-04-08T15:57:24.998Z</time></trkpt><trkpt lat="50.940622118486374" lon="5.035609632018968"><ele>61.0</ele><time>2026-04-08T15:57:25.998Z</time></trkpt><trkpt lat="50.9407217952196" lon="5.035564787241573"><ele>60.0</ele><time>2026-04-08T15:57:26.998Z</time></trkpt><trkpt lat="50.9408168375339" lon="5.035527208474781"><ele>60.333333333333336</ele><time>2026-04-08T15:57:27.998Z</time></trkpt><trkpt lat="50.94089727304122" lon="5.035474966873291"><ele>60.66666666666667</ele><time>2026-04-08T15:57:28.998Z</time></trkpt><trkpt lat="50.94096822110554" lon="5.035461839642408"><ele>61.0</ele><time>2026-04-08T15:57:29.998Z</time></trkpt><trkpt lat="50.94107181669061" lon="5.0354139084887874"><ele>61.333333333333336</ele><time>2026-04-08T15:57:31.998Z</time></trkpt><trkpt lat="50.9411449003214" lon="5.035380069662452"><ele>61.66666666666667</ele><time>2026-04-08T15:57:33.998Z</time></trkpt><trkpt lat="50.94122390352554" lon="5.035362271879346"><ele>62.0</ele><time>2026-04-08T15:57:36.998Z</time></trkpt><trkpt lat="50.94123712827839" lon="5.035587753808859"><ele>62.0</ele><time>2026-04-08T15:57:37.998Z</time></trkpt><trkpt lat="50.941281573233205" lon="5.035721327377707"><ele>62.0</ele><time>2026-04-08T15:57:38.998Z</time></trkpt><trkpt lat="50.9413175962938" lon="5.035873151489293"><ele>62.0</ele><time>2026-04-08T15:57:39.998Z</time></trkpt><trkpt lat="50.94135981570835" lon="5.03604261054425"><ele>62.0</ele><time>2026-04-08T15:57:40.998Z</time></trkpt><trkpt lat="50.94140700670353" lon="5.03622931742818"><ele>62.0</ele><time>2026-04-08T15:57:41.998Z</time></trkpt><trkpt lat="50.941452782634556" lon="5.036429491885364"><ele>62.5</ele><time>2026-04-08T15:57:42.998Z</time></trkpt><trkpt lat="50.94150574817619" lon="5.03663889070702"><ele>63.0</ele><time>2026-04-08T15:57:43.998Z</time></trkpt><trkpt lat="50.94156050273023" lon="5.036861508507353"><ele>63.5</ele><time>2026-04-08T15:57:44.998Z</time></trkpt><trkpt lat="50.941581194883646" lon="5.037091028447981"><ele>64.0</ele><time>2026-04-08T15:57:45.998Z</time></trkpt><trkpt lat="50.94161010771745" lon="5.037327721683998"><ele>63.666666666666664</ele><time>2026-04-08T15:57:46.998Z</time></trkpt><trkpt lat="50.94158877592958" lon="5.037585049444406"><ele>63.33333333333333</ele><time>2026-04-08T15:57:47.998Z</time></trkpt><trkpt lat="50.941548798953576" lon="5.03783833058943"><ele>63.0</ele><time>2026-04-08T15:57:48.998Z</time></trkpt><trkpt lat="50.94148070600324" lon="5.038080444385956"><ele>63.0</ele><time>2026-04-08T15:57:49.998Z</time></trkpt><trkpt lat="50.9413714653332" lon="5.03828789272187"><ele>63.0</ele><time>2026-04-08T15:57:50.998Z</time></trkpt><trkpt lat="50.941247601855245" lon="5.038469604175349"><ele>63.0</ele><time>2026-04-08T15:57:51.998Z</time></trkpt><trkpt lat="50.94111571006098" lon="5.038646864395457"><ele>63.0</ele><time>2026-04-08T15:57:52.998Z</time></trkpt><trkpt lat="50.94095326307737" lon="5.0387353671599735"><ele>63.0</ele><time>2026-04-08T15:57:53.998Z</time></trkpt><trkpt lat="50.94078973498545" lon="5.038836805102057"><ele>63.0</ele><time>2026-04-08T15:57:54.998Z</time></trkpt><trkpt lat="50.94064646575229" lon="5.038895453827792"><ele>63.0</ele><time>2026-04-08T15:57:55.998Z</time></trkpt><trkpt lat="50.94052581950714" lon="5.038946748295846"><ele>63.0</ele><time>2026-04-08T15:57:56.998Z</time></trkpt><trkpt lat="50.94042202195825" lon="5.038998305469321"><ele>63.0</ele><time>2026-04-08T15:57:57.998Z</time></trkpt><trkpt lat="50.94032748242779" lon="5.039049688109764"><ele>63.0</ele><time>2026-04-08T15:57:58.998Z</time></trkpt><trkpt lat="50.94024497336914" lon="5.0390910984572015"><ele>63.0</ele><time>2026-04-08T15:57:59.998Z</time></trkpt><trkpt lat="50.940145960775034" lon="5.039139606137302"><ele>63.25</ele><time>2026-04-08T15:58:00.998Z</time></trkpt><trkpt lat="50.940041587392535" lon="5.039202367232288"><ele>63.5</ele><time>2026-04-08T15:58:02Z</time></trkpt><trkpt lat="50.93992329345629" lon="5.039277202819822"><ele>63.75</ele><time>2026-04-08T15:58:03Z</time></trkpt><trkpt lat="50.93978818414849" lon="5.039349138570128"><ele>64.0</ele><time>2026-04-08T15:58:04Z</time></trkpt><trkpt lat="50.939648652957025" lon="5.039416111251648"><ele>64.0</ele><time>2026-04-08T15:58:05Z</time></trkpt><trkpt lat="50.93950579390842" lon="5.039485438491092"><ele>64.0</ele><time>2026-04-08T15:58:06Z</time></trkpt><trkpt lat="50.93935754822206" lon="5.039561847801607"><ele>64.0</ele><time>2026-04-08T15:58:07Z</time></trkpt><trkpt lat="50.93920235847328" lon="5.0396423357471125"><ele>64.0</ele><time>2026-04-08T15:58:08Z</time></trkpt><trkpt lat="50.93903750617382" lon="5.039728034222162"><ele>64.0</ele><time>2026-04-08T15:58:09Z</time></trkpt><trkpt lat="50.9388731948735" lon="5.039818271662557"><ele>64.0</ele><time>2026-04-08T15:58:10Z</time></trkpt><trkpt lat="50.93869893461276" lon="5.039908767767802"><ele>64.33333333333333</ele><time>2026-04-08T15:58:11Z</time></trkpt><trkpt lat="50.93852100315456" lon="5.039996589374054"><ele>64.66666666666667</ele><time>2026-04-08T15:58:12Z</time></trkpt><trkpt lat="50.93834711071574" lon="5.040068961587529"><ele>65.0</ele><time>2026-04-08T15:58:13Z</time></trkpt><trkpt lat="50.93816598407707" lon="5.0401323475937065"><ele>65.33333333333334</ele><time>2026-04-08T15:58:14Z</time></trkpt><trkpt lat="50.93800178395878" lon="5.04018373707334"><ele>65.66666666666667</ele><time>2026-04-08T15:58:15Z</time></trkpt><trkpt lat="50.93784611337501" lon="5.040232654895363"><ele>66.0</ele><time>2026-04-08T15:58:16Z</time></trkpt><trkpt lat="50.937691733036395" lon="5.040280941147924"><ele>65.33333333333333</ele><time>2026-04-08T15:58:17Z</time></trkpt><trkpt lat="50.9375320427005" lon="5.040333630676163"><ele>64.66666666666666</ele><time>2026-04-08T15:58:18Z</time></trkpt><trkpt lat="50.93737073205237" lon="5.040390301814967"><ele>64.0</ele><time>2026-04-08T15:58:19Z</time></trkpt><trkpt lat="50.93720738805172" lon="5.0404488342263365"><ele>64.0</ele><time>2026-04-08T15:58:20Z</time></trkpt><trkpt lat="50.93704339230149" lon="5.040505091329533"><ele>64.0</ele><time>2026-04-08T15:58:21Z</time></trkpt><trkpt lat="50.93688214120975" lon="5.040552046585978"><ele>64.0</ele><time>2026-04-08T15:58:22Z</time></trkpt><trkpt lat="50.93672567264923" lon="5.040601670433249"><ele>63.25</ele><time>2026-04-08T15:58:23Z</time></trkpt><trkpt lat="50.93657892878211" lon="5.040647876038422"><ele>62.5</ele><time>2026-04-08T15:58:24Z</time></trkpt><trkpt lat="50.93643419390609" lon="5.0407008628396985"><ele>61.75</ele><time>2026-04-08T15:58:25Z</time></trkpt><trkpt lat="50.936287702491086" lon="5.040749754859015"><ele>61.0</ele><time>2026-04-08T15:58:26Z</time></trkpt><trkpt lat="50.93614794420856" lon="5.040795082647219"><ele>60.5</ele><time>2026-04-08T15:58:27Z</time></trkpt><trkpt lat="50.93600952158627" lon="5.040840522117029"><ele>60.0</ele><time>2026-04-08T15:58:27.999Z</time></trkpt><trkpt lat="50.93586986998262" lon="5.040888024504117"><ele>59.5</ele><time>2026-04-08T15:58:28.999Z</time></trkpt><trkpt lat="50.93572752363177" lon="5.040917895955012"><ele>59.0</ele><time>2026-04-08T15:58:29.999Z</time></trkpt><trkpt lat="50.93559166896783" lon="5.040962393725495"><ele>58.5</ele><time>2026-04-08T15:58:30.999Z</time></trkpt><trkpt lat="50.93545192702252" lon="5.041008141455896"><ele>58.0</ele><time>2026-04-08T15:58:31.999Z</time></trkpt><trkpt lat="50.935314761264294" lon="5.041053045789304"><ele>57.5</ele><time>2026-04-08T15:58:32.999Z</time></trkpt><trkpt lat="50.93517453745176" lon="5.041098951277987"><ele>57.0</ele><time>2026-04-08T15:58:33.999Z</time></trkpt><trkpt lat="50.93503565805537" lon="5.041144416613874"><ele>56.25</ele><time>2026-04-08T15:58:34.999Z</time></trkpt><trkpt lat="50.93489890217715" lon="5.041209985079159"><ele>55.5</ele><time>2026-04-08T15:58:35.999Z</time></trkpt><trkpt lat="50.934754333430824" lon="5.041247832517461"><ele>54.75</ele><time>2026-04-08T15:58:36.999Z</time></trkpt><trkpt lat="50.934615368425455" lon="5.041299436279555"><ele>54.0</ele><time>2026-04-08T15:58:37.999Z</time></trkpt><trkpt lat="50.9344864091537" lon="5.041340094131899"><ele>54.0</ele><time>2026-04-08T15:58:38.999Z</time></trkpt><trkpt lat="50.934360638141335" lon="5.041378239222943"><ele>54.00000000000001</ele><time>2026-04-08T15:58:39.999Z</time></trkpt><trkpt lat="50.934243687748264" lon="5.041415233601215"><ele>54.00000000000001</ele><time>2026-04-08T15:58:40.999Z</time></trkpt><trkpt lat="50.93413977307582" lon="5.041442270638722"><ele>54.0</ele><time>2026-04-08T15:58:41.999Z</time></trkpt><trkpt lat="50.934049662889855" lon="5.0414671109902605"><ele>54.0</ele><time>2026-04-08T15:58:42.999Z</time></trkpt><trkpt lat="50.933984494189936" lon="5.041493001114564"><ele>53.400000000000006</ele><time>2026-04-08T15:58:43.999Z</time></trkpt><trkpt lat="50.9339099123582" lon="5.041529022663293"><ele>52.800000000000004</ele><time>2026-04-08T15:58:45.999Z</time></trkpt><trkpt lat="50.93384049758885" lon="5.041600983134717"><ele>52.2</ele><time>2026-04-08T15:58:53.999Z</time></trkpt><trkpt lat="50.933882616985414" lon="5.041782979835739"><ele>51.599999999999994</ele><time>2026-04-08T15:58:54.999Z</time></trkpt><trkpt lat="50.93392539232829" lon="5.041907529732787"><ele>51.0</ele><time>2026-04-08T15:58:55.999Z</time></trkpt><trkpt lat="50.933959921009546" lon="5.0420545793156135"><ele>51.0</ele><time>2026-04-08T15:58:56.999Z</time></trkpt><trkpt lat="50.93399857756495" lon="5.042220815808307"><ele>51.0</ele><time>2026-04-08T15:58:57.999Z</time></trkpt><trkpt lat="50.93403409754636" lon="5.042415362784212"><ele>51.0</ele><time>2026-04-08T15:58:58.999Z</time></trkpt><trkpt lat="50.93406961452734" lon="5.042622970409124"><ele>51.0</ele><time>2026-04-08T15:58:59.999Z</time></trkpt><trkpt lat="50.93410011357246" lon="5.042839524335848"><ele>50.66666666666667</ele><time>2026-04-08T15:59:00.999Z</time></trkpt><trkpt lat="50.934125653339464" lon="5.043074408586136"><ele>50.333333333333336</ele><time>2026-04-08T15:59:01.999Z</time></trkpt><trkpt lat="50.934145516188266" lon="5.043315114735975"><ele>50.0</ele><time>2026-04-08T15:59:02.999Z</time></trkpt><trkpt lat="50.93415864510741" lon="5.043563551212777"><ele>49.66666666666667</ele><time>2026-04-08T15:59:03.999Z</time></trkpt><trkpt lat="50.934164228232646" lon="5.043814250515447"><ele>49.33333333333333</ele><time>2026-04-08T15:59:04.999Z</time></trkpt><trkpt lat="50.93416076144228" lon="5.04405053867009"><ele>49.0</ele><time>2026-04-08T15:59:05.999Z</time></trkpt><trkpt lat="50.934165061233486" lon="5.044294601271557"><ele>49.0</ele><time>2026-04-08T15:59:06.999Z</time></trkpt><trkpt lat="50.934132405868304" lon="5.044529508781464"><ele>49.0</ele><time>2026-04-08T15:59:07.999Z</time></trkpt><trkpt lat="50.934104722534805" lon="5.044773477365109"><ele>49.0</ele><time>2026-04-08T15:59:08.999Z</time></trkpt><trkpt lat="50.934069620824744" lon="5.045020572371286"><ele>49.0</ele><time>2026-04-08T15:59:09.999Z</time></trkpt><trkpt lat="50.934033710393614" lon="5.045270152730291"><ele>49.0</ele><time>2026-04-08T15:59:10.999Z</time></trkpt><trkpt lat="50.93400274845084" lon="5.0455190350933785"><ele>49.0</ele><time>2026-04-08T15:59:11.999Z</time></trkpt><trkpt lat="50.933980000430154" lon="5.045763548588805"><ele>49.33333333333333</ele><time>2026-04-08T15:59:12.999Z</time></trkpt><trkpt lat="50.93397785186546" lon="5.04601387315523"><ele>49.66666666666667</ele><time>2026-04-08T15:59:13.999Z</time></trkpt><trkpt lat="50.93400194199071" lon="5.046271220370344"><ele>50.0</ele><time>2026-04-08T15:59:14.999Z</time></trkpt><trkpt lat="50.93402881613381" lon="5.0465183637111455"><ele>49.66666666666667</ele><time>2026-04-08T15:59:15.999Z</time></trkpt><trkpt lat="50.934053180695805" lon="5.046762850952082"><ele>49.33333333333333</ele><time>2026-04-08T15:59:16.999Z</time></trkpt><trkpt lat="50.93407581625108" lon="5.0469974114969824"><ele>49.0</ele><time>2026-04-08T15:59:17.999Z</time></trkpt><trkpt lat="50.93408268126035" lon="5.047235718368426"><ele>49.0</ele><time>2026-04-08T15:59:18.999Z</time></trkpt><trkpt lat="50.934097075550724" lon="5.047474956458932"><ele>49.0</ele><time>2026-04-08T15:59:19.999Z</time></trkpt><trkpt lat="50.93410483758097" lon="5.0477057948644575"><ele>49.0</ele><time>2026-04-08T15:59:20.999Z</time></trkpt><trkpt lat="50.93410728291348" lon="5.047940870717286"><ele>49.0</ele><time>2026-04-08T15:59:21.999Z</time></trkpt><trkpt lat="50.93410870488279" lon="5.048176498110573"><ele>48.75</ele><time>2026-04-08T15:59:22.999Z</time></trkpt><trkpt lat="50.93410283534908" lon="5.048407804908251"><ele>48.5</ele><time>2026-04-08T15:59:23.999Z</time></trkpt><trkpt lat="50.934100223547816" lon="5.048632627667685"><ele>48.25</ele><time>2026-04-08T15:59:24.998Z</time></trkpt><trkpt lat="50.93408215919245" lon="5.048864511885885"><ele>48.0</ele><time>2026-04-08T15:59:25.998Z</time></trkpt><trkpt lat="50.93405969547509" lon="5.049086308375872"><ele>47.75</ele><time>2026-04-08T15:59:26.998Z</time></trkpt><trkpt lat="50.934055399039195" lon="5.049310719789002"><ele>47.5</ele><time>2026-04-08T15:59:27.998Z</time></trkpt><trkpt lat="50.9340634000468" lon="5.049546140911415"><ele>47.25</ele><time>2026-04-08T15:59:28.998Z</time></trkpt><trkpt lat="50.93408803692586" lon="5.049784981481419"><ele>47.0</ele><time>2026-04-08T15:59:29.998Z</time></trkpt><trkpt lat="50.934105033589326" lon="5.050026826864359"><ele>47.0</ele><time>2026-04-08T15:59:30.998Z</time></trkpt><trkpt lat="50.93408423427674" lon="5.050273079300729"><ele>47.0</ele><time>2026-04-08T15:59:31.998Z</time></trkpt><trkpt lat="50.934019271224436" lon="5.0505028343847185"><ele>47.0</ele><time>2026-04-08T15:59:32.998Z</time></trkpt><trkpt lat="50.933963852272846" lon="5.050731550169347"><ele>47.0</ele><time>2026-04-08T15:59:33.998Z</time></trkpt><trkpt lat="50.93390792340966" lon="5.0509652047951175"><ele>47.0</ele><time>2026-04-08T15:59:34.998Z</time></trkpt><trkpt lat="50.93385253474167" lon="5.0511966023079715"><ele>47.0</ele><time>2026-04-08T15:59:35.998Z</time></trkpt><trkpt lat="50.93379814612255" lon="5.05143171736022"><ele>46.666666666666664</ele><time>2026-04-08T15:59:36.998Z</time></trkpt><trkpt lat="50.93374719359572" lon="5.05167489846187"><ele>46.333333333333336</ele><time>2026-04-08T15:59:37.998Z</time></trkpt><trkpt lat="50.93368373464663" lon="5.051920228621519"><ele>46.0</ele><time>2026-04-08T15:59:38.998Z</time></trkpt><trkpt lat="50.933625556332906" lon="5.052175743576098"><ele>46.0</ele><time>2026-04-08T15:59:39.998Z</time></trkpt><trkpt lat="50.933566869927375" lon="5.052430159379417"><ele>46.0</ele><time>2026-04-08T15:59:40.998Z</time></trkpt><trkpt lat="50.933505807492104" lon="5.052685941979595"><ele>46.0</ele><time>2026-04-08T15:59:41.998Z</time></trkpt><trkpt lat="50.93344463311709" lon="5.052945232204907"><ele>44.0</ele><time>2026-04-08T15:59:42.998Z</time></trkpt><trkpt lat="50.933382453850236" lon="5.053211348563817"><ele>42.0</ele><time>2026-04-08T15:59:43.998Z</time></trkpt><trkpt lat="50.93332031910389" lon="5.053485644692407"><ele>40.0</ele><time>2026-04-08T15:59:44.998Z</time></trkpt><trkpt lat="50.9332564401105" lon="5.053755648932618"><ele>40.0</ele><time>2026-04-08T15:59:45.998Z</time></trkpt><trkpt lat="50.93320426378426" lon="5.0540292658917725"><ele>40.0</ele><time>2026-04-08T15:59:46.998Z</time></trkpt><trkpt lat="50.93317281867934" lon="5.054296639989399"><ele>40.0</ele><time>2026-04-08T15:59:47.998Z</time></trkpt><trkpt lat="50.933144515053264" lon="5.054574047922347"><ele>39.66666666666667</ele><time>2026-04-08T15:59:48.998Z</time></trkpt><trkpt lat="50.933118206908276" lon="5.0548490739554355"><ele>39.333333333333336</ele><time>2026-04-08T15:59:49.998Z</time></trkpt><trkpt lat="50.93309277801699" lon="5.055124439629503"><ele>39.0</ele><time>2026-04-08T15:59:50.998Z</time></trkpt><trkpt lat="50.933068654566604" lon="5.055396673744942"><ele>38.333333333333336</ele><time>2026-04-08T15:59:51.998Z</time></trkpt><trkpt lat="50.93304299584779" lon="5.055673202379119"><ele>37.66666666666667</ele><time>2026-04-08T15:59:52.998Z</time></trkpt><trkpt lat="50.93301940271629" lon="5.05595431306884"><ele>37.0</ele><time>2026-04-08T15:59:53.998Z</time></trkpt><trkpt lat="50.93299683504142" lon="5.056208815843355"><ele>37.0</ele><time>2026-04-08T15:59:54.998Z</time></trkpt><trkpt lat="50.9329727479031" lon="5.056456637258837"><ele>37.0</ele><time>2026-04-08T15:59:55.998Z</time></trkpt><trkpt lat="50.93294948224595" lon="5.056719396942308"><ele>37.0</ele><time>2026-04-08T15:59:56.998Z</time></trkpt><trkpt lat="50.93292590759651" lon="5.056977032150362"><ele>37.0</ele><time>2026-04-08T15:59:57.998Z</time></trkpt><trkpt lat="50.932902746306205" lon="5.057235153505483"><ele>37.0</ele><time>2026-04-08T15:59:58.998Z</time></trkpt><trkpt lat="50.932880454877065" lon="5.057491574135699"><ele>37.0</ele><time>2026-04-08T15:59:59.998Z</time></trkpt><trkpt lat="50.93284776217011" lon="5.0577422348209"><ele>37.333333333333336</ele><time>2026-04-08T16:00:00.998Z</time></trkpt><trkpt lat="50.93282390471288" lon="5.058003378078219"><ele>37.666666666666664</ele><time>2026-04-08T16:00:01.998Z</time></trkpt><trkpt lat="50.93280071317659" lon="5.058259085127717"><ele>38.0</ele><time>2026-04-08T16:00:02.998Z</time></trkpt><trkpt lat="50.93277672139175" lon="5.0585238535479355"><ele>38.0</ele><time>2026-04-08T16:00:03.998Z</time></trkpt><trkpt lat="50.932757155225886" lon="5.058783372705367"><ele>38.0</ele><time>2026-04-08T16:00:04.998Z</time></trkpt><trkpt lat="50.93272775269776" lon="5.05903804357523"><ele>38.0</ele><time>2026-04-08T16:00:05.998Z</time></trkpt><trkpt lat="50.93270394669786" lon="5.059300481505039"><ele>38.33333333333333</ele><time>2026-04-08T16:00:06.998Z</time></trkpt><trkpt lat="50.93268368059702" lon="5.059536129442535"><ele>38.666666666666664</ele><time>2026-04-08T16:00:08Z</time></trkpt><trkpt lat="50.932660574936605" lon="5.059775091980293"><ele>39.0</ele><time>2026-04-08T16:00:09Z</time></trkpt><trkpt lat="50.93264002087797" lon="5.0600091548963935"><ele>39.0</ele><time>2026-04-08T16:00:10Z</time></trkpt><trkpt lat="50.9326301591218" lon="5.0602475577054475"><ele>39.0</ele><time>2026-04-08T16:00:11Z</time></trkpt><trkpt lat="50.932633981547234" lon="5.060490307084748"><ele>39.0</ele><time>2026-04-08T16:00:12Z</time></trkpt><trkpt lat="50.932651650345626" lon="5.060733696485773"><ele>38.666666666666664</ele><time>2026-04-08T16:00:13Z</time></trkpt><trkpt lat="50.93267417401884" lon="5.060974965908274"><ele>38.33333333333333</ele><time>2026-04-08T16:00:14Z</time></trkpt><trkpt lat="50.93269569363378" lon="5.061229332792758"><ele>38.0</ele><time>2026-04-08T16:00:15Z</time></trkpt><trkpt lat="50.93271598442558" lon="5.061483510116917"><ele>38.0</ele><time>2026-04-08T16:00:16Z</time></trkpt><trkpt lat="50.93273807864198" lon="5.061731515140655"><ele>38.0</ele><time>2026-04-08T16:00:17Z</time></trkpt><trkpt lat="50.93275935426271" lon="5.061945541097701"><ele>38.0</ele><time>2026-04-08T16:00:18Z</time></trkpt><trkpt lat="50.93277870640266" lon="5.062145003600153"><ele>38.0</ele><time>2026-04-08T16:00:19Z</time></trkpt><trkpt lat="50.93279544819993" lon="5.062328294913839"><ele>38.166666666666664</ele><time>2026-04-08T16:00:20Z</time></trkpt><trkpt lat="50.93281294015256" lon="5.062493006973328"><ele>38.33333333333333</ele><time>2026-04-08T16:00:21Z</time></trkpt><trkpt lat="50.932828653260344" lon="5.0626416139888075"><ele>38.5</ele><time>2026-04-08T16:00:22Z</time></trkpt><trkpt lat="50.93284097319027" lon="5.062755001141941"><ele>38.666666666666664</ele><time>2026-04-08T16:00:23Z</time></trkpt><trkpt lat="50.93284930348393" lon="5.0628731556488225"><ele>38.833333333333336</ele><time>2026-04-08T16:00:24Z</time></trkpt><trkpt lat="50.93283125125272" lon="5.062989194152337"><ele>39.0</ele><time>2026-04-08T16:00:25Z</time></trkpt><trkpt lat="50.93276897244725" lon="5.06307624331488"><ele>39.0</ele><time>2026-04-08T16:00:26Z</time></trkpt><trkpt lat="50.93266814290735" lon="5.063132323170236"><ele>39.0</ele><time>2026-04-08T16:00:27Z</time></trkpt><trkpt lat="50.93255989575055" lon="5.063154720824467"><ele>39.0</ele><time>2026-04-08T16:00:28Z</time></trkpt><trkpt lat="50.93244968233826" lon="5.0631974515087546"><ele>39.0</ele><time>2026-04-08T16:00:29Z</time></trkpt><trkpt lat="50.93234303097084" lon="5.063247921335418"><ele>39.0</ele><time>2026-04-08T16:00:29.999Z</time></trkpt><trkpt lat="50.9322256073992" lon="5.063298150185208"><ele>39.2</ele><time>2026-04-08T16:00:30.999Z</time></trkpt><trkpt lat="50.932109229212834" lon="5.063339879105504"><ele>39.4</ele><time>2026-04-08T16:00:31.999Z</time></trkpt><trkpt lat="50.93201154894582" lon="5.063369080924678"><ele>39.6</ele><time>2026-04-08T16:00:32.999Z</time></trkpt><trkpt lat="50.931934129073625" lon="5.063395214638204"><ele>39.8</ele><time>2026-04-08T16:00:33.999Z</time></trkpt><trkpt lat="50.931857315852305" lon="5.063421751495504"><ele>40.0</ele><time>2026-04-08T16:00:35.999Z</time></trkpt><trkpt lat="50.93176783888157" lon="5.063450590307282"><ele>40.8</ele><time>2026-04-08T16:00:37.999Z</time></trkpt><trkpt lat="50.93168474951417" lon="5.0634637256809745"><ele>41.6</ele><time>2026-04-08T16:00:38.999Z</time></trkpt><trkpt lat="50.93158300115319" lon="5.063465387835465"><ele>42.400000000000006</ele><time>2026-04-08T16:00:39.999Z</time></trkpt><trkpt lat="50.93147505484429" lon="5.063463399706268"><ele>43.2</ele><time>2026-04-08T16:00:40.999Z</time></trkpt><trkpt lat="50.93136362409652" lon="5.063463264245338"><ele>44.0</ele><time>2026-04-08T16:00:41.999Z</time></trkpt><trkpt lat="50.931239933295394" lon="5.063467704386991"><ele>44.0</ele><time>2026-04-08T16:00:42.999Z</time></trkpt><trkpt lat="50.93111067860462" lon="5.0634736476815485"><ele>44.0</ele><time>2026-04-08T16:00:43.999Z</time></trkpt><trkpt lat="50.93097944474615" lon="5.063473117908786"><ele>44.0</ele><time>2026-04-08T16:00:44.999Z</time></trkpt><trkpt lat="50.930843183653934" lon="5.063458296077907"><ele>44.0</ele><time>2026-04-08T16:00:45.999Z</time></trkpt><trkpt lat="50.93070104540909" lon="5.063434186137368"><ele>44.75</ele><time>2026-04-08T16:00:46.999Z</time></trkpt><trkpt lat="50.93055748645327" lon="5.063394813585811"><ele>45.5</ele><time>2026-04-08T16:00:47.999Z</time></trkpt><trkpt lat="50.93041527856538" lon="5.063340673276415"><ele>46.25</ele><time>2026-04-08T16:00:48.999Z</time></trkpt><trkpt lat="50.93027709395375" lon="5.063273810898175"><ele>47.0</ele><time>2026-04-08T16:00:49.999Z</time></trkpt><trkpt lat="50.93013744927101" lon="5.063195414191416"><ele>48.25</ele><time>2026-04-08T16:00:50.999Z</time></trkpt><trkpt lat="50.92999476474541" lon="5.063112504142466"><ele>49.5</ele><time>2026-04-08T16:00:51.999Z</time></trkpt><trkpt lat="50.92985514191808" lon="5.063032857429173"><ele>50.75</ele><time>2026-04-08T16:00:52.999Z</time></trkpt><trkpt lat="50.9297174551891" lon="5.062953851727655"><ele>52.0</ele><time>2026-04-08T16:00:53.999Z</time></trkpt><trkpt lat="50.929577258309024" lon="5.062879050741053"><ele>52.0</ele><time>2026-04-08T16:00:54.999Z</time></trkpt><trkpt lat="50.929431389690286" lon="5.062826688674834"><ele>52.0</ele><time>2026-04-08T16:00:55.999Z</time></trkpt><trkpt lat="50.92927801340976" lon="5.062822561728423"><ele>52.0</ele><time>2026-04-08T16:00:56.999Z</time></trkpt><trkpt lat="50.92912715378493" lon="5.062876807130437"><ele>50.666666666666664</ele><time>2026-04-08T16:00:57.999Z</time></trkpt><trkpt lat="50.92898078894428" lon="5.062967501149329"><ele>49.33333333333333</ele><time>2026-04-08T16:00:58.999Z</time></trkpt><trkpt lat="50.92883871136413" lon="5.0630623235654415"><ele>48.0</ele><time>2026-04-08T16:00:59.999Z</time></trkpt><trkpt lat="50.928690559257916" lon="5.063149950226789"><ele>48.0</ele><time>2026-04-08T16:01:00.999Z</time></trkpt><trkpt lat="50.9285372380123" lon="5.063208551494819"><ele>48.0</ele><time>2026-04-08T16:01:01.999Z</time></trkpt><trkpt lat="50.92838940516108" lon="5.063291728021595"><ele>48.0</ele><time>2026-04-08T16:01:02.999Z</time></trkpt><trkpt lat="50.92824621061784" lon="5.06339489458155"><ele>48.0</ele><time>2026-04-08T16:01:03.999Z</time></trkpt><trkpt lat="50.92809732687972" lon="5.06347177615384"><ele>48.0</ele><time>2026-04-08T16:01:04.999Z</time></trkpt><trkpt lat="50.92794971066836" lon="5.06355811765606"><ele>48.0</ele><time>2026-04-08T16:01:05.999Z</time></trkpt><trkpt lat="50.927799678546045" lon="5.063646973820368"><ele>48.0</ele><time>2026-04-08T16:01:06.999Z</time></trkpt><trkpt lat="50.927647996479635" lon="5.063728327702362"><ele>48.0</ele><time>2026-04-08T16:01:07.999Z</time></trkpt><trkpt lat="50.9274932784589" lon="5.063812956030331"><ele>48.0</ele><time>2026-04-08T16:01:08.999Z</time></trkpt><trkpt lat="50.927338976348935" lon="5.063900052913558"><ele>48.66666666666667</ele><time>2026-04-08T16:01:09.999Z</time></trkpt><trkpt lat="50.92718374969257" lon="5.063989293720424"><ele>49.333333333333336</ele><time>2026-04-08T16:01:10.999Z</time></trkpt><trkpt lat="50.92704116433431" lon="5.064071097653703"><ele>50.0</ele><time>2026-04-08T16:01:11.999Z</time></trkpt><trkpt lat="50.92690202017386" lon="5.064154616261187"><ele>50.0</ele><time>2026-04-08T16:01:12.999Z</time></trkpt><trkpt lat="50.926771906082195" lon="5.064258344305362"><ele>50.0</ele><time>2026-04-08T16:01:13.999Z</time></trkpt><trkpt lat="50.92664560121258" lon="5.064383332685827"><ele>50.0</ele><time>2026-04-08T16:01:14.999Z</time></trkpt><trkpt lat="50.926527306464266" lon="5.064523291542931"><ele>50.0</ele><time>2026-04-08T16:01:15.999Z</time></trkpt><trkpt lat="50.926418066460556" lon="5.064674669562862"><ele>50.0</ele><time>2026-04-08T16:01:16.999Z</time></trkpt><trkpt lat="50.92630964044153" lon="5.064832636301364"><ele>50.0</ele><time>2026-04-08T16:01:17.999Z</time></trkpt><trkpt lat="50.92620629984292" lon="5.064997435628034"><ele>50.0</ele><time>2026-04-08T16:01:18.999Z</time></trkpt><trkpt lat="50.9261038420815" lon="5.065165008673434"><ele>50.0</ele><time>2026-04-08T16:01:19.999Z</time></trkpt><trkpt lat="50.92600052162201" lon="5.065334025977692"><ele>49.0</ele><time>2026-04-08T16:01:20.999Z</time></trkpt><trkpt lat="50.925884128020925" lon="5.065484503713445"><ele>48.0</ele><time>2026-04-08T16:01:21.999Z</time></trkpt><trkpt lat="50.9257863041551" lon="5.065673924405123"><ele>47.0</ele><time>2026-04-08T16:01:22.999Z</time></trkpt><trkpt lat="50.92567364333246" lon="5.065841360457258"><ele>46.666666666666664</ele><time>2026-04-08T16:01:23.999Z</time></trkpt><trkpt lat="50.92556655845199" lon="5.06600591228205"><ele>46.333333333333336</ele><time>2026-04-08T16:01:24.999Z</time></trkpt><trkpt lat="50.9254590437989" lon="5.066179598869443"><ele>46.0</ele><time>2026-04-08T16:01:25.998Z</time></trkpt><trkpt lat="50.925352013072924" lon="5.066353276152494"><ele>46.0</ele><time>2026-04-08T16:01:26.998Z</time></trkpt><trkpt lat="50.925245413811105" lon="5.06652153277156"><ele>46.0</ele><time>2026-04-08T16:01:27.998Z</time></trkpt><trkpt lat="50.92513235016159" lon="5.066698427875641"><ele>46.0</ele><time>2026-04-08T16:01:28.999Z</time></trkpt><trkpt lat="50.92501996959639" lon="5.0668735422746645"><ele>44.0</ele><time>2026-04-08T16:01:29.999Z</time></trkpt><trkpt lat="50.924906267252936" lon="5.067057741898077"><ele>42.0</ele><time>2026-04-08T16:01:30.999Z</time></trkpt><trkpt lat="50.9247910486541" lon="5.067242901814764"><ele>40.0</ele><time>2026-04-08T16:01:31.999Z</time></trkpt><trkpt lat="50.92467308652933" lon="5.067427568108529"><ele>39.66666666666667</ele><time>2026-04-08T16:01:32.999Z</time></trkpt><trkpt lat="50.92455568827501" lon="5.067608826240854"><ele>39.333333333333336</ele><time>2026-04-08T16:01:33.999Z</time></trkpt><trkpt lat="50.92443548725141" lon="5.067796185079233"><ele>39.0</ele><time>2026-04-08T16:01:34.999Z</time></trkpt><trkpt lat="50.9243226783327" lon="5.067976421410522"><ele>37.666666666666664</ele><time>2026-04-08T16:01:35.999Z</time></trkpt><trkpt lat="50.92420456928898" lon="5.068167889047309"><ele>36.33333333333333</ele><time>2026-04-08T16:01:36.999Z</time></trkpt><trkpt lat="50.924089768920396" lon="5.068345750797617"><ele>35.0</ele><time>2026-04-08T16:01:37.999Z</time></trkpt><trkpt lat="50.92396998625405" lon="5.068533273761298"><ele>34.666666666666664</ele><time>2026-04-08T16:01:38.999Z</time></trkpt><trkpt lat="50.9238499049183" lon="5.068717322013142"><ele>34.333333333333336</ele><time>2026-04-08T16:01:39.999Z</time></trkpt><trkpt lat="50.923738173608015" lon="5.068891920525024"><ele>34.0</ele><time>2026-04-08T16:01:40.999Z</time></trkpt><trkpt lat="50.92362305212892" lon="5.0690765221169825"><ele>33.66666666666667</ele><time>2026-04-08T16:01:41.999Z</time></trkpt><trkpt lat="50.92351359924767" lon="5.0692478833582495"><ele>33.333333333333336</ele><time>2026-04-08T16:01:42.999Z</time></trkpt><trkpt lat="50.9234061627889" lon="5.069420019925681"><ele>33.0</ele><time>2026-04-08T16:01:43.999Z</time></trkpt><trkpt lat="50.923301586352785" lon="5.069599850011562"><ele>32.0</ele><time>2026-04-08T16:01:44.999Z</time></trkpt><trkpt lat="50.92319291727635" lon="5.069781718671165"><ele>31.0</ele><time>2026-04-08T16:01:45.999Z</time></trkpt><trkpt lat="50.923080210016145" lon="5.069956863174324"><ele>30.0</ele><time>2026-04-08T16:01:46.999Z</time></trkpt><trkpt lat="50.922965684054354" lon="5.070142676078664"><ele>30.0</ele><time>2026-04-08T16:01:47.999Z</time></trkpt><trkpt lat="50.92286064459696" lon="5.0703347998942885"><ele>30.0</ele><time>2026-04-08T16:01:48.999Z</time></trkpt><trkpt lat="50.922761606975754" lon="5.070550378212431"><ele>30.0</ele><time>2026-04-08T16:01:49.999Z</time></trkpt><trkpt lat="50.922667637957126" lon="5.070756815161563"><ele>30.0</ele><time>2026-04-08T16:01:50.999Z</time></trkpt><trkpt lat="50.92256507788204" lon="5.070981618682756"><ele>30.0</ele><time>2026-04-08T16:01:51.999Z</time></trkpt><trkpt lat="50.92246691465626" lon="5.071191801245637"><ele>30.0</ele><time>2026-04-08T16:01:52.999Z</time></trkpt><trkpt lat="50.922363505071914" lon="5.071403073360407"><ele>29.333333333333336</ele><time>2026-04-08T16:01:53.999Z</time></trkpt><trkpt lat="50.922258290284475" lon="5.071624228800407"><ele>28.666666666666668</ele><time>2026-04-08T16:01:54.999Z</time></trkpt><trkpt lat="50.922155979257184" lon="5.071851247007876"><ele>28.0</ele><time>2026-04-08T16:01:55.999Z</time></trkpt><trkpt lat="50.9220524340133" lon="5.072074913257455"><ele>28.0</ele><time>2026-04-08T16:01:56.999Z</time></trkpt><trkpt lat="50.921950554160524" lon="5.072288189761663"><ele>28.0</ele><time>2026-04-08T16:01:57.999Z</time></trkpt><trkpt lat="50.9218538196492" lon="5.072499029321998"><ele>28.0</ele><time>2026-04-08T16:01:58.999Z</time></trkpt><trkpt lat="50.921755530459265" lon="5.072709908777809"><ele>28.0</ele><time>2026-04-08T16:01:59.999Z</time></trkpt><trkpt lat="50.92164222296958" lon="5.0728875945512355"><ele>28.0</ele><time>2026-04-08T16:02:00.999Z</time></trkpt><trkpt lat="50.92153613817299" lon="5.073083883281314"><ele>28.0</ele><time>2026-04-08T16:02:01.999Z</time></trkpt><trkpt lat="50.92143273273752" lon="5.07327529308826"><ele>28.0</ele><time>2026-04-08T16:02:02.999Z</time></trkpt><trkpt lat="50.921305011229464" lon="5.073440405498818"><ele>28.0</ele><time>2026-04-08T16:02:03.999Z</time></trkpt><trkpt lat="50.92117754902415" lon="5.073593490963024"><ele>28.0</ele><time>2026-04-08T16:02:04.999Z</time></trkpt><trkpt lat="50.92103795250653" lon="5.073740620804422"><ele>27.666666666666668</ele><time>2026-04-08T16:02:05.999Z</time></trkpt><trkpt lat="50.920896678698846" lon="5.073868770876837"><ele>27.333333333333336</ele><time>2026-04-08T16:02:06.999Z</time></trkpt><trkpt lat="50.92074978272341" lon="5.074004045206454"><ele>27.0</ele><time>2026-04-08T16:02:07.999Z</time></trkpt><trkpt lat="50.92060700359155" lon="5.0741390675729"><ele>28.0</ele><time>2026-04-08T16:02:08.999Z</time></trkpt><trkpt lat="50.920468253548876" lon="5.074286851892542"><ele>29.0</ele><time>2026-04-08T16:02:09.999Z</time></trkpt><trkpt lat="50.9203298644573" lon="5.074449129190098"><ele>30.0</ele><time>2026-04-08T16:02:10.999Z</time></trkpt><trkpt lat="50.920199145587404" lon="5.074610267816033"><ele>29.0</ele><time>2026-04-08T16:02:11.999Z</time></trkpt><trkpt lat="50.92006516131984" lon="5.07477250855732"><ele>28.0</ele><time>2026-04-08T16:02:12.999Z</time></trkpt><trkpt lat="50.919944585324075" lon="5.074920504150486"><ele>27.0</ele><time>2026-04-08T16:02:14.001Z</time></trkpt><trkpt lat="50.91984353885208" lon="5.075048691976442"><ele>26.833333333333332</ele><time>2026-04-08T16:02:15.001Z</time></trkpt><trkpt lat="50.91975213271459" lon="5.075130082354787"><ele>26.666666666666664</ele><time>2026-04-08T16:02:16.001Z</time></trkpt><trkpt lat="50.91969246052069" lon="5.075201641205504"><ele>26.5</ele><time>2026-04-08T16:02:17.001Z</time></trkpt><trkpt lat="50.919644738498405" lon="5.075287322346952"><ele>26.333333333333332</ele><time>2026-04-08T16:02:18.001Z</time></trkpt><trkpt lat="50.91958747272084" lon="5.07535421352787"><ele>26.166666666666664</ele><time>2026-04-08T16:02:19.001Z</time></trkpt><trkpt lat="50.91953615804147" lon="5.075419216778182"><ele>26.0</ele><time>2026-04-08T16:02:20.001Z</time></trkpt><trkpt lat="50.919426952048646" lon="5.075499512116028"><ele>26.0</ele><time>2026-04-08T16:02:22.001Z</time></trkpt><trkpt lat="50.919325280771886" lon="5.075512124728611"><ele>26.0</ele><time>2026-04-08T16:02:24.001Z</time></trkpt><trkpt lat="50.91926547506182" lon="5.075691244000397"><ele>26.0</ele><time>2026-04-08T16:02:26.001Z</time></trkpt><trkpt lat="50.919224828959365" lon="5.075809729280347"><ele>26.0</ele><time>2026-04-08T16:02:27.001Z</time></trkpt><trkpt lat="50.919139415956835" lon="5.07585906136759"><ele>26.0</ele><time>2026-04-08T16:02:28.001Z</time></trkpt><trkpt lat="50.9190532478951" lon="5.075911181618917"><ele>26.5</ele><time>2026-04-08T16:02:29.001Z</time></trkpt><trkpt lat="50.918949112541945" lon="5.07596711725257"><ele>27.0</ele><time>2026-04-08T16:02:30.001Z</time></trkpt><trkpt lat="50.91883955236368" lon="5.076041709725849"><ele>27.5</ele><time>2026-04-08T16:02:31Z</time></trkpt><trkpt lat="50.9187229452858" lon="5.076110075124147"><ele>28.0</ele><time>2026-04-08T16:02:32Z</time></trkpt><trkpt lat="50.91860133606257" lon="5.076172620250859"><ele>28.0</ele><time>2026-04-08T16:02:33Z</time></trkpt><trkpt lat="50.91847580681063" lon="5.076238712494524"><ele>28.0</ele><time>2026-04-08T16:02:34Z</time></trkpt><trkpt lat="50.9183560488912" lon="5.0763030937154054"><ele>28.0</ele><time>2026-04-08T16:02:35Z</time></trkpt><trkpt lat="50.91825570547089" lon="5.076359206753915"><ele>28.0</ele><time>2026-04-08T16:02:36Z</time></trkpt><trkpt lat="50.91814732501368" lon="5.076413597269011"><ele>28.25</ele><time>2026-04-08T16:02:37Z</time></trkpt><trkpt lat="50.918034130501724" lon="5.076474009500236"><ele>28.5</ele><time>2026-04-08T16:02:38Z</time></trkpt><trkpt lat="50.91792179911863" lon="5.076529740421206"><ele>28.75</ele><time>2026-04-08T16:02:39Z</time></trkpt><trkpt lat="50.91781352261665" lon="5.076587484119302"><ele>29.0</ele><time>2026-04-08T16:02:40Z</time></trkpt><trkpt lat="50.91769004980223" lon="5.076647073691102"><ele>30.666666666666664</ele><time>2026-04-08T16:02:41Z</time></trkpt><trkpt lat="50.91755085065392" lon="5.076717108872981"><ele>32.333333333333336</ele><time>2026-04-08T16:02:42Z</time></trkpt><trkpt lat="50.917402095051344" lon="5.076791591106669"><ele>34.0</ele><time>2026-04-08T16:02:43Z</time></trkpt><trkpt lat="50.917244861414574" lon="5.0768747950288216"><ele>34.0</ele><time>2026-04-08T16:02:44Z</time></trkpt><trkpt lat="50.917087909651485" lon="5.076965211522057"><ele>34.0</ele><time>2026-04-08T16:02:45Z</time></trkpt><trkpt lat="50.91691834425833" lon="5.077065030486959"><ele>34.0</ele><time>2026-04-08T16:02:46Z</time></trkpt><trkpt lat="50.916764313783034" lon="5.07720167082909"><ele>35.0</ele><time>2026-04-08T16:02:47Z</time></trkpt><trkpt lat="50.91660322411335" lon="5.077333896082789"><ele>36.0</ele><time>2026-04-08T16:02:48Z</time></trkpt><trkpt lat="50.91643921050623" lon="5.0774784353397395"><ele>37.0</ele><time>2026-04-08T16:02:49Z</time></trkpt><trkpt lat="50.916280415276425" lon="5.077637889897698"><ele>37.333333333333336</ele><time>2026-04-08T16:02:50Z</time></trkpt><trkpt lat="50.91612433521257" lon="5.077803922556796"><ele>37.666666666666664</ele><time>2026-04-08T16:02:51Z</time></trkpt><trkpt lat="50.915979209019056" lon="5.0779651107163355"><ele>38.0</ele><time>2026-04-08T16:02:52Z</time></trkpt><trkpt lat="50.91582742391221" lon="5.078123996729323"><ele>39.666666666666664</ele><time>2026-04-08T16:02:53Z</time></trkpt><trkpt lat="50.915687861952065" lon="5.078270979766175"><ele>41.333333333333336</ele><time>2026-04-08T16:02:54Z</time></trkpt><trkpt lat="50.91554720868728" lon="5.078420309174327"><ele>43.0</ele><time>2026-04-08T16:02:55Z</time></trkpt><trkpt lat="50.915406522882066" lon="5.078566266322914"><ele>43.0</ele><time>2026-04-08T16:02:56Z</time></trkpt><trkpt lat="50.91526613600071" lon="5.078710579620495"><ele>43.0</ele><time>2026-04-08T16:02:57Z</time></trkpt><trkpt lat="50.91512975127349" lon="5.0788579715809075"><ele>43.0</ele><time>2026-04-08T16:02:58Z</time></trkpt><trkpt lat="50.91499846971867" lon="5.079003650867241"><ele>43.66666666666667</ele><time>2026-04-08T16:02:59Z</time></trkpt><trkpt lat="50.91486234091541" lon="5.079135797581848"><ele>44.333333333333336</ele><time>2026-04-08T16:03:00Z</time></trkpt><trkpt lat="50.91473040814404" lon="5.079274711206886"><ele>45.0</ele><time>2026-04-08T16:03:01Z</time></trkpt><trkpt lat="50.91460056963757" lon="5.079413648046333"><ele>45.0</ele><time>2026-04-08T16:03:02Z</time></trkpt><trkpt lat="50.91446735764544" lon="5.079547040900411"><ele>45.0</ele><time>2026-04-08T16:03:03Z</time></trkpt><trkpt lat="50.91433272475419" lon="5.079684780184219"><ele>45.0</ele><time>2026-04-08T16:03:04Z</time></trkpt><trkpt lat="50.914199654567824" lon="5.079816143294565"><ele>45.333333333333336</ele><time>2026-04-08T16:03:05Z</time></trkpt><trkpt lat="50.91407089414964" lon="5.0799627590160625"><ele>45.66666666666667</ele><time>2026-04-08T16:03:06Z</time></trkpt><trkpt lat="50.9139355952024" lon="5.08010067748499"><ele>46.0</ele><time>2026-04-08T16:03:07Z</time></trkpt><trkpt lat="50.9138050758601" lon="5.080241166009554"><ele>46.0</ele><time>2026-04-08T16:03:08Z</time></trkpt><trkpt lat="50.913678689317386" lon="5.080386160807173"><ele>46.0</ele><time>2026-04-08T16:03:09Z</time></trkpt><trkpt lat="50.91354277406038" lon="5.080502328670283"><ele>46.0</ele><time>2026-04-08T16:03:10Z</time></trkpt><trkpt lat="50.913420965573955" lon="5.080630290257814"><ele>46.199999999999996</ele><time>2026-04-08T16:03:11Z</time></trkpt><trkpt lat="50.913314599842586" lon="5.080763349023302"><ele>46.4</ele><time>2026-04-08T16:03:12Z</time></trkpt><trkpt lat="50.91321760913129" lon="5.080862471198894"><ele>46.6</ele><time>2026-04-08T16:03:13Z</time></trkpt><trkpt lat="50.91313045385756" lon="5.080956745028081"><ele>46.8</ele><time>2026-04-08T16:03:14Z</time></trkpt><trkpt lat="50.91305323646375" lon="5.0810355205060755"><ele>47.0</ele><time>2026-04-08T16:03:15Z</time></trkpt><trkpt lat="50.91298189309966" lon="5.081107434344919"><ele>47.2</ele><time>2026-04-08T16:03:16Z</time></trkpt><trkpt lat="50.91290708265647" lon="5.081181071890627"><ele>47.400000000000006</ele><time>2026-04-08T16:03:17Z</time></trkpt><trkpt lat="50.91283692201838" lon="5.0812656895950195"><ele>47.599999999999994</ele><time>2026-04-08T16:03:18Z</time></trkpt><trkpt lat="50.9127491470252" lon="5.081332911751541"><ele>47.8</ele><time>2026-04-08T16:03:19Z</time></trkpt><trkpt lat="50.91267100304548" lon="5.081414638681049"><ele>48.0</ele><time>2026-04-08T16:03:19.999Z</time></trkpt><trkpt lat="50.91258175929635" lon="5.081508185038021"><ele>48.5</ele><time>2026-04-08T16:03:20.999Z</time></trkpt><trkpt lat="50.91249070674262" lon="5.081603855899353"><ele>49.0</ele><time>2026-04-08T16:03:21.999Z</time></trkpt><trkpt lat="50.91238164083224" lon="5.081718551490934"><ele>49.5</ele><time>2026-04-08T16:03:22.999Z</time></trkpt><trkpt lat="50.91226431693734" lon="5.081841931215112"><ele>50.0</ele><time>2026-04-08T16:03:23.999Z</time></trkpt><trkpt lat="50.912138646963776" lon="5.081974087803057"><ele>50.0</ele><time>2026-04-08T16:03:24.999Z</time></trkpt><trkpt lat="50.9120246782391" lon="5.082125146335152"><ele>50.0</ele><time>2026-04-08T16:03:25.999Z</time></trkpt><trkpt lat="50.91189147734475" lon="5.082253790060579"><ele>50.0</ele><time>2026-04-08T16:03:26.999Z</time></trkpt><trkpt lat="50.911758934328255" lon="5.082391970657618"><ele>50.0</ele><time>2026-04-08T16:03:27.999Z</time></trkpt><trkpt lat="50.911625495542665" lon="5.082536696851151"><ele>50.0</ele><time>2026-04-08T16:03:28.999Z</time></trkpt><trkpt lat="50.91149757176448" lon="5.082669463460211"><ele>50.0</ele><time>2026-04-08T16:03:29.999Z</time></trkpt><trkpt lat="50.91137683223918" lon="5.0827972473257015"><ele>50.0</ele><time>2026-04-08T16:03:30.999Z</time></trkpt><trkpt lat="50.91126010641203" lon="5.08291929398226"><ele>50.0</ele><time>2026-04-08T16:03:31.999Z</time></trkpt><trkpt lat="50.911145278532636" lon="5.083037295105596"><ele>50.0</ele><time>2026-04-08T16:03:32.999Z</time></trkpt><trkpt lat="50.91103553302994" lon="5.083152171863826"><ele>50.0</ele><time>2026-04-08T16:03:33.999Z</time></trkpt><trkpt lat="50.910924100072364" lon="5.083266227937425"><ele>50.0</ele><time>2026-04-08T16:03:34.999Z</time></trkpt><trkpt lat="50.91080901677564" lon="5.083388331478684"><ele>50.0</ele><time>2026-04-08T16:03:35.999Z</time></trkpt><trkpt lat="50.91069600981978" lon="5.083503636778025"><ele>50.0</ele><time>2026-04-08T16:03:36.999Z</time></trkpt><trkpt lat="50.910578992869254" lon="5.0836282223603275"><ele>50.0</ele><time>2026-04-08T16:03:37.999Z</time></trkpt><trkpt lat="50.91045517083303" lon="5.083755852296809"><ele>50.0</ele><time>2026-04-08T16:03:38.999Z</time></trkpt><trkpt lat="50.91032955314697" lon="5.083889046986868"><ele>50.0</ele><time>2026-04-08T16:03:39.999Z</time></trkpt><trkpt lat="50.910190816664944" lon="5.0840015322165"><ele>50.0</ele><time>2026-04-08T16:03:40.999Z</time></trkpt><trkpt lat="50.91006178789541" lon="5.084132863296928"><ele>50.333333333333336</ele><time>2026-04-08T16:03:41.999Z</time></trkpt><trkpt lat="50.90993767132284" lon="5.084287815056349"><ele>50.66666666666667</ele><time>2026-04-08T16:03:42.999Z</time></trkpt><trkpt lat="50.90979954158622" lon="5.084426324094554"><ele>51.0</ele><time>2026-04-08T16:03:43.999Z</time></trkpt><trkpt lat="50.90965709769071" lon="5.084568786746371"><ele>51.0</ele><time>2026-04-08T16:03:44.999Z</time></trkpt><trkpt lat="50.909508655114855" lon="5.084678735605358"><ele>51.0</ele><time>2026-04-08T16:03:45.999Z</time></trkpt><trkpt lat="50.90935990479136" lon="5.084805738929591"><ele>51.0</ele><time>2026-04-08T16:03:46.999Z</time></trkpt><trkpt lat="50.90921130763826" lon="5.084926011847019"><ele>51.0</ele><time>2026-04-08T16:03:47.999Z</time></trkpt><trkpt lat="50.909068662934615" lon="5.085062184576964"><ele>51.0</ele><time>2026-04-08T16:03:48.999Z</time></trkpt><trkpt lat="50.90891908747644" lon="5.085182737109157"><ele>51.0</ele><time>2026-04-08T16:03:49.999Z</time></trkpt><trkpt lat="50.90877531348044" lon="5.085298627545071"><ele>51.0</ele><time>2026-04-08T16:03:50.999Z</time></trkpt><trkpt lat="50.90863402924202" lon="5.085418822594537"><ele>51.0</ele><time>2026-04-08T16:03:51.999Z</time></trkpt><trkpt lat="50.90848052122724" lon="5.085540768494097"><ele>51.0</ele><time>2026-04-08T16:03:52.999Z</time></trkpt><trkpt lat="50.90833389246981" lon="5.085653914799902"><ele>49.0</ele><time>2026-04-08T16:03:53.999Z</time></trkpt><trkpt lat="50.90818477968213" lon="5.085773723845148"><ele>47.0</ele><time>2026-04-08T16:03:54.999Z</time></trkpt><trkpt lat="50.90804147581759" lon="5.08588699965431"><ele>45.0</ele><time>2026-04-08T16:03:55.999Z</time></trkpt><trkpt lat="50.907884204250834" lon="5.086010227632655"><ele>45.0</ele><time>2026-04-08T16:03:56.999Z</time></trkpt><trkpt lat="50.90775022649643" lon="5.08611707159329"><ele>45.0</ele><time>2026-04-08T16:03:57.999Z</time></trkpt><trkpt lat="50.90763167201975" lon="5.086215681463203"><ele>45.0</ele><time>2026-04-08T16:03:58.999Z</time></trkpt><trkpt lat="50.907525119652284" lon="5.0862982973740065"><ele>45.0</ele><time>2026-04-08T16:03:59.999Z</time></trkpt><trkpt lat="50.907430546869044" lon="5.086367947447392"><ele>45.0</ele><time>2026-04-08T16:04:00.999Z</time></trkpt><trkpt lat="50.90735066911178" lon="5.086431753623658"><ele>45.0</ele><time>2026-04-08T16:04:01.999Z</time></trkpt><trkpt lat="50.90727418028282" lon="5.086481621947448"><ele>45.0</ele><time>2026-04-08T16:04:02.999Z</time></trkpt><trkpt lat="50.907204000073996" lon="5.086507518768884"><ele>45.0</ele><time>2026-04-08T16:04:03.999Z</time></trkpt><trkpt lat="50.90712868831121" lon="5.086537129948473"><ele>45.0</ele><time>2026-04-08T16:04:04.999Z</time></trkpt><trkpt lat="50.907061518991334" lon="5.08652940997651"><ele>45.0</ele><time>2026-04-08T16:04:05.999Z</time></trkpt><trkpt lat="50.90704096816323" lon="5.086780496135198"><ele>45.0</ele><time>2026-04-08T16:04:06.999Z</time></trkpt><trkpt lat="50.90703498962502" lon="5.086968392123038"><ele>45.0</ele><time>2026-04-08T16:04:07.999Z</time></trkpt><trkpt lat="50.9070252002792" lon="5.087138522217153"><ele>45.0</ele><time>2026-04-08T16:04:08.999Z</time></trkpt><trkpt lat="50.90702283359296" lon="5.0873347927845485"><ele>45.0</ele><time>2026-04-08T16:04:09.999Z</time></trkpt><trkpt lat="50.9070391383315" lon="5.087548123884462"><ele>45.0</ele><time>2026-04-08T16:04:10.999Z</time></trkpt><trkpt lat="50.90703487957942" lon="5.0877677389706015"><ele>45.0</ele><time>2026-04-08T16:04:11.999Z</time></trkpt><trkpt lat="50.90704027243972" lon="5.088005193809021"><ele>45.0</ele><time>2026-04-08T16:04:12.999Z</time></trkpt><trkpt lat="50.90704463808834" lon="5.088242339356567"><ele>45.0</ele><time>2026-04-08T16:04:13.999Z</time></trkpt><trkpt lat="50.907053051445494" lon="5.088477519245724"><ele>45.333333333333336</ele><time>2026-04-08T16:04:14.999Z</time></trkpt><trkpt lat="50.90706227063025" lon="5.0887183296603835"><ele>45.66666666666667</ele><time>2026-04-08T16:04:15.999Z</time></trkpt><trkpt lat="50.907066832920286" lon="5.08896282354301"><ele>46.0</ele><time>2026-04-08T16:04:16.998Z</time></trkpt><trkpt lat="50.90709633231666" lon="5.089188661546968"><ele>46.0</ele><time>2026-04-08T16:04:17.998Z</time></trkpt><trkpt lat="50.9071041314588" lon="5.089384889234434"><ele>46.0</ele><time>2026-04-08T16:04:18.998Z</time></trkpt><trkpt lat="50.907126575039385" lon="5.0895670760466265"><ele>46.0</ele><time>2026-04-08T16:04:20Z</time></trkpt><trkpt lat="50.907148288384114" lon="5.089756868880866"><ele>46.0</ele><time>2026-04-08T16:04:21Z</time></trkpt><trkpt lat="50.90715809386726" lon="5.089949474841554"><ele>45.5</ele><time>2026-04-08T16:04:22Z</time></trkpt><trkpt lat="50.90708222497734" lon="5.090120384342656"><ele>45.0</ele><time>2026-04-08T16:04:23Z</time></trkpt><trkpt lat="50.90702355399094" lon="5.090335837883242"><ele>44.5</ele><time>2026-04-08T16:04:24Z</time></trkpt><trkpt lat="50.90694287825568" lon="5.090522300816968"><ele>44.0</ele><time>2026-04-08T16:04:25Z</time></trkpt><trkpt lat="50.90686905059089" lon="5.090725745393747"><ele>43.666666666666664</ele><time>2026-04-08T16:04:26Z</time></trkpt><trkpt lat="50.90680115821904" lon="5.090931561558252"><ele>43.333333333333336</ele><time>2026-04-08T16:04:27Z</time></trkpt><trkpt lat="50.90672976494459" lon="5.0911465766812025"><ele>43.0</ele><time>2026-04-08T16:04:28Z</time></trkpt><trkpt lat="50.906654660946955" lon="5.091372612076111"><ele>42.66666666666667</ele><time>2026-04-08T16:04:29Z</time></trkpt><trkpt lat="50.90658890546442" lon="5.091605395960007"><ele>42.333333333333336</ele><time>2026-04-08T16:04:30Z</time></trkpt><trkpt lat="50.9065401641575" lon="5.09186653490843"><ele>42.0</ele><time>2026-04-08T16:04:31Z</time></trkpt><trkpt lat="50.9065049524987" lon="5.092133501845761"><ele>42.0</ele><time>2026-04-08T16:04:32Z</time></trkpt><trkpt lat="50.906469886587985" lon="5.09238386516215"><ele>42.0</ele><time>2026-04-08T16:04:33Z</time></trkpt><trkpt lat="50.90643548991437" lon="5.0926177434989075"><ele>42.0</ele><time>2026-04-08T16:04:34Z</time></trkpt><trkpt lat="50.90640156479739" lon="5.092832184454881"><ele>42.5</ele><time>2026-04-08T16:04:35Z</time></trkpt><trkpt lat="50.90636872071555" lon="5.09304154587416"><ele>43.0</ele><time>2026-04-08T16:04:36Z</time></trkpt><trkpt lat="50.906316024936544" lon="5.093240638369635"><ele>43.5</ele><time>2026-04-08T16:04:37Z</time></trkpt><trkpt lat="50.90627216995804" lon="5.093434801715785"><ele>44.0</ele><time>2026-04-08T16:04:38Z</time></trkpt><trkpt lat="50.9061703907752" lon="5.093568154473962"><ele>44.5</ele><time>2026-04-08T16:04:39Z</time></trkpt><trkpt lat="50.90605544547239" lon="5.093654360119704"><ele>45.0</ele><time>2026-04-08T16:04:40Z</time></trkpt><trkpt lat="50.90593090354668" lon="5.093728742815211"><ele>45.5</ele><time>2026-04-08T16:04:41Z</time></trkpt><trkpt lat="50.90580258647573" lon="5.093816896632334"><ele>46.0</ele><time>2026-04-08T16:04:42Z</time></trkpt><trkpt lat="50.90566479492566" lon="5.093896403887527"><ele>46.0</ele><time>2026-04-08T16:04:43Z</time></trkpt><trkpt lat="50.90552291930071" lon="5.093980373779432"><ele>46.0</ele><time>2026-04-08T16:04:44Z</time></trkpt><trkpt lat="50.905379989234085" lon="5.094061500750266"><ele>46.0</ele><time>2026-04-08T16:04:45Z</time></trkpt><trkpt lat="50.90523412470983" lon="5.094142131704105"><ele>46.333333333333336</ele><time>2026-04-08T16:04:46Z</time></trkpt><trkpt lat="50.905084850601284" lon="5.0942293721981144"><ele>46.666666666666664</ele><time>2026-04-08T16:04:47Z</time></trkpt><trkpt lat="50.90493498231506" lon="5.094319180935882"><ele>47.0</ele><time>2026-04-08T16:04:48Z</time></trkpt><trkpt lat="50.904789286272646" lon="5.094406374798841"><ele>47.25</ele><time>2026-04-08T16:04:49Z</time></trkpt><trkpt lat="50.90465090258356" lon="5.094492696413204"><ele>47.5</ele><time>2026-04-08T16:04:50Z</time></trkpt><trkpt lat="50.9045182458968" lon="5.094578144503453"><ele>47.75</ele><time>2026-04-08T16:04:51Z</time></trkpt><trkpt lat="50.904388671512976" lon="5.094659922392035"><ele>48.0</ele><time>2026-04-08T16:04:52Z</time></trkpt><trkpt lat="50.90426218225874" lon="5.094742132317218"><ele>48.2</ele><time>2026-04-08T16:04:53Z</time></trkpt><trkpt lat="50.90414622187897" lon="5.094830522354551"><ele>48.4</ele><time>2026-04-08T16:04:54Z</time></trkpt><trkpt lat="50.90404375628458" lon="5.094916975215566"><ele>48.6</ele><time>2026-04-08T16:04:55Z</time></trkpt><trkpt lat="50.90395402872531" lon="5.094994103453729"><ele>48.800000000000004</ele><time>2026-04-08T16:04:56Z</time></trkpt><trkpt lat="50.903871206484645" lon="5.095060845978347"><ele>49.0</ele><time>2026-04-08T16:04:57Z</time></trkpt><trkpt lat="50.90380541760743" lon="5.095115959517028"><ele>48.99999999999999</ele><time>2026-04-08T16:04:58Z</time></trkpt><trkpt lat="50.9037497574825" lon="5.095177051048422"><ele>49.0</ele><time>2026-04-08T16:04:59Z</time></trkpt><trkpt lat="50.90369872175638" lon="5.095258867914119"><ele>49.0</ele><time>2026-04-08T16:05:00Z</time></trkpt><trkpt lat="50.90371732782321" lon="5.0954100915556975"><ele>49.0</ele><time>2026-04-08T16:05:01Z</time></trkpt><trkpt lat="50.90375464956099" lon="5.095527087087378"><ele>48.99999999999999</ele><time>2026-04-08T16:05:02Z</time></trkpt><trkpt lat="50.903782163532014" lon="5.095633265052463"><ele>49.0</ele><time>2026-04-08T16:05:03Z</time></trkpt><trkpt lat="50.903801930438966" lon="5.09578473662499"><ele>49.0</ele><time>2026-04-08T16:05:05Z</time></trkpt><trkpt lat="50.90374489097759" lon="5.0958738654176"><ele>49.0</ele><time>2026-04-08T16:05:06Z</time></trkpt><trkpt lat="50.903648660231646" lon="5.095910835319294"><ele>49.0</ele><time>2026-04-08T16:05:07Z</time></trkpt><trkpt lat="50.90357437838913" lon="5.096020891326276"><ele>49.0</ele><time>2026-04-08T16:05:08Z</time></trkpt><trkpt lat="50.903484223553455" lon="5.0961223721645545"><ele>49.0</ele><time>2026-04-08T16:05:09Z</time></trkpt><trkpt lat="50.90339422238636" lon="5.096226408739444"><ele>49.25</ele><time>2026-04-08T16:05:10Z</time></trkpt><trkpt lat="50.90331294177198" lon="5.0963584637796036"><ele>49.5</ele><time>2026-04-08T16:05:11Z</time></trkpt><trkpt lat="50.90324039615641" lon="5.096508300953431"><ele>49.75</ele><time>2026-04-08T16:05:12Z</time></trkpt><trkpt lat="50.90315082915632" lon="5.096619272447284"><ele>50.0</ele><time>2026-04-08T16:05:13Z</time></trkpt><trkpt lat="50.90305994145188" lon="5.0967215128488865"><ele>50.0</ele><time>2026-04-08T16:05:14Z</time></trkpt><trkpt lat="50.902976176265035" lon="5.0968172105130245"><ele>50.0</ele><time>2026-04-08T16:05:15Z</time></trkpt><trkpt lat="50.90287490228277" lon="5.096874447595735"><ele>50.0</ele><time>2026-04-08T16:05:16Z</time></trkpt><trkpt lat="50.90278186564646" lon="5.09694074877943"><ele>50.0</ele><time>2026-04-08T16:05:17Z</time></trkpt><trkpt lat="50.90269921392783" lon="5.09698803263396"><ele>50.0</ele><time>2026-04-08T16:05:18Z</time></trkpt><trkpt lat="50.90262255482129" lon="5.097033180578975"><ele>50.0</ele><time>2026-04-08T16:05:19Z</time></trkpt><trkpt lat="50.9025432720111" lon="5.09708161819621"><ele>50.0</ele><time>2026-04-08T16:05:20Z</time></trkpt><trkpt lat="50.90247703669012" lon="5.097122427102073"><ele>50.0</ele><time>2026-04-08T16:05:21Z</time></trkpt><trkpt lat="50.90238982023989" lon="5.097177056276196"><ele>50.0</ele><time>2026-04-08T16:05:23Z</time></trkpt><trkpt lat="50.90237272986566" lon="5.09690809266701"><ele>50.0</ele><time>2026-04-08T16:06:16.999Z</time></trkpt><trkpt lat="50.90233996720904" lon="5.096796784036991"><ele>50.0</ele><time>2026-04-08T16:06:18.999Z</time></trkpt><trkpt lat="50.90227509557002" lon="5.096670235508524"><ele>50.0</ele><time>2026-04-08T16:06:20.999Z</time></trkpt></trkseg></trk></gpx>